[[{"header":{"parameterUnit":"m.s-1","parameterCategory":1,"la1":30.6,"la2":29.2853,"lo1":-89.7004,"lo2":-87.6739,"dy":0.0162,"dx":0.0183,"nx":112,"ny":82,"refTime":"2024-05-29T06:00:00:Z","depth":0,"parameterNumber":2,"parameterNumberName":"U-component_of_WINDS"},"data":[0.0,0.0,0.0,0.0,0.0,0.0,0.0,0.0,0.0,0.0,0.0,0.0,0.0,0.0,0.0,0.0,0.0,0.0,0.0,0.0,0.0,0.0,0.0,0.0,0.0,0.0,0.0,0.0,0.0,0.0,0.0,0.0,0.0,0.0,0.0,0.0,0.0,0.0,0.0,0.0,0.0,0.0,0.0,0.0,0.0,0.0,0.0,0.0,0.0,0.0,0.0,0.0,0.0,0.0,0.0,0.0,0.0,0.0,0.0,0.0,0.0,0.0,0.0,0.0,0.0,0.0,0.0,0.0,0.0,0.0,0.0,0.0,0.0,0.0,0.0,0.0,0.0,0.0,0.0,0.0,0.0,0.0,0.0,0.0,0.0,0.0,0.0,0.0,0.0,0.0,0.0,-2.1025,-2.2603,-2.3673,-2.4219,-2.2662,-2.0342,-1.721,0.0,0.0,0.0,0.0,0.0,0.0,0.0,0.0,0.0,0.0,0.0,0.0,0.0,0.0,0.0,0.0,0.0,0.0,0.0,0.0,0.0,0.0,0.0,0.0,0.0,0.0,0.0,0.0,0.0,0.0,0.0,0.0,0.0,0.0,0.0,0.0,0.0,0.0,0.0,0.0,0.0,0.0,0.0,0.0,0.0,0.0,0.0,0.0,0.0,0.0,0.0,0.0,0.0,0.0,0.0,0.0,0.0,0.0,0.0,0.0,0.0,0.0,0.0,0.0,0.0,0.0,0.0,0.0,0.0,0.0,0.0,0.0,0.0,0.0,0.0,0.0,0.0,0.0,0.0,0.0,0.0,0.0,0.0,0.0,0.0,0.0,0.0,0.0,0.0,0.0,0.0,0.0,0.0,0.0,0.0,0.0,0.0,0.0,0.0,0.0,0.0,0.0,0.0,0.0,-1.8593,-2.3639,-2.4401,-2.4545,-2.4547,-2.3498,-2.1433,-1.811,0.0,0.0,0.0,0.0,0.0,0.0,0.0,0.0,0.0,0.0,0.0,0.0,0.0,0.0,0.0,0.0,0.0,0.0,0.0,0.0,0.0,0.0,0.0,0.0,0.0,0.0,0.0,0.0,0.0,0.0,0.0,0.0,0.0,0.0,0.0,0.0,0.0,0.0,0.0,0.0,0.0,0.0,0.0,0.0,0.0,0.0,0.0,0.0,0.0,0.0,0.0,0.0,0.0,0.0,0.0,0.0,0.0,0.0,0.0,0.0,0.0,0.0,0.0,0.0,0.0,0.0,0.0,0.0,0.0,0.0,0.0,0.0,0.0,0.0,0.0,0.0,0.0,0.0,0.0,0.0,0.0,0.0,0.0,0.0,0.0,0.0,0.0,0.0,0.0,0.0,0.0,0.0,0.0,0.0,0.0,0.0,0.0,0.0,0.0,0.0,0.0,0.0,0.0,-1.8636,-2.0861,-2.4625,-2.4656,-2.453,-2.48,-2.3437,-2.1186,-1.7984,-1.5963,0.0,0.0,0.0,0.0,0.0,0.0,0.0,0.0,0.0,0.0,0.0,0.0,0.0,0.0,0.0,0.0,0.0,0.0,0.0,0.0,0.0,0.0,0.0,0.0,0.0,0.0,0.0,0.0,0.0,0.0,0.0,0.0,0.0,0.0,0.0,0.0,0.0,0.0,0.0,0.0,0.0,0.0,0.0,0.0,0.0,0.0,0.0,0.0,0.0,0.0,0.0,0.0,0.0,0.0,0.0,0.0,0.0,0.0,0.0,0.0,0.0,0.0,0.0,0.0,0.0,0.0,0.0,0.0,0.0,0.0,0.0,0.0,0.0,0.0,0.0,0.0,0.0,0.0,0.0,0.0,0.0,0.0,0.0,0.0,0.0,0.0,0.0,0.0,0.0,0.0,0.0,0.0,0.0,0.0,0.0,0.0,0.0,0.0,0.0,0.0,0.0,0.0,-2.1413,-2.3317,-2.5059,-2.4745,-2.4568,-2.502,-2.2993,-2.0503,-1.7739,-1.5799,0.0,0.0,0.0,0.0,0.0,0.0,0.0,0.0,0.0,0.0,0.0,0.0,0.0,0.0,0.0,0.0,0.0,0.0,0.0,0.0,0.0,0.0,0.0,0.0,0.0,0.0,0.0,0.0,0.0,0.0,0.0,0.0,0.0,0.0,0.0,0.0,0.0,0.0,0.0,0.0,0.0,0.0,0.0,0.0,0.0,0.0,0.0,0.0,0.0,0.0,0.0,0.0,0.0,0.0,0.0,0.0,0.0,0.0,0.0,0.0,0.0,0.0,0.0,0.0,0.0,0.0,0.0,0.0,0.0,0.0,0.0,0.0,0.0,0.0,0.0,0.0,0.0,0.0,0.0,0.0,0.0,0.0,0.0,0.0,0.0,0.0,0.0,0.0,0.0,0.0,0.0,0.0,0.0,0.0,0.0,0.0,0.0,0.0,0.0,0.0,0.0,0.0,-2.2319,-2.5212,-2.537,-2.5335,-2.5281,-2.5195,-2.2259,-1.9667,-1.789,-1.4878,0.0,0.0,0.0,0.0,0.0,0.0,0.0,0.0,0.0,0.0,0.0,0.0,0.0,0.0,0.0,0.0,0.0,0.0,0.0,0.0,0.0,0.0,0.0,0.0,0.0,0.0,0.0,0.0,0.0,0.0,0.0,0.0,0.0,0.0,0.0,0.0,0.0,0.0,0.0,0.0,0.0,0.0,0.0,0.0,0.0,0.0,0.0,0.0,0.0,0.0,0.0,0.0,0.0,0.0,0.0,0.0,0.0,0.0,0.0,0.0,0.0,0.0,0.0,0.0,0.0,0.0,0.0,0.0,0.0,0.0,0.0,0.0,0.0,0.0,0.0,0.0,0.0,0.0,0.0,0.0,0.0,0.0,0.0,0.0,0.0,0.0,0.0,0.0,0.0,0.0,0.0,0.0,0.0,0.0,0.0,0.0,0.0,0.0,0.0,0.0,0.0,0.0,-2.0906,-2.3388,0.0,-2.4658,-2.4392,-2.5153,-2.3185,-2.0768,-1.8098,0.0,0.0,0.0,0.0,0.0,0.0,0.0,0.0,0.0,0.0,0.0,0.0,0.0,0.0,0.0,0.0,0.0,0.0,0.0,0.0,0.0,0.0,0.0,0.0,0.0,0.0,0.0,0.0,0.0,0.0,0.0,0.0,0.0,0.0,0.0,0.0,0.0,0.0,0.0,0.0,0.0,0.0,0.0,0.0,0.0,0.0,0.0,0.0,0.0,0.0,0.0,0.0,0.0,0.0,0.0,0.0,0.0,0.0,0.0,0.0,0.0,0.0,0.0,0.0,0.0,0.0,0.0,0.0,0.0,0.0,0.0,0.0,0.0,0.0,0.0,0.0,0.0,0.0,0.0,0.0,0.0,0.0,0.0,0.0,0.0,0.0,0.0,0.0,0.0,0.0,0.0,0.0,0.0,0.0,0.0,0.0,0.0,0.0,0.0,0.0,0.0,0.0,-1.8118,-2.0504,-2.284,0.0,-2.4286,-2.3959,-2.5035,-2.3271,-2.092,-1.8159,0.0,0.0,0.0,0.0,0.0,0.0,0.0,0.0,0.0,0.0,0.0,0.0,0.0,0.0,0.0,0.0,0.0,0.0,0.0,0.0,0.0,0.0,0.0,0.0,0.0,0.0,0.0,0.0,0.0,0.0,0.0,0.0,0.0,0.0,0.0,0.0,0.0,0.0,0.0,0.0,0.0,0.0,0.0,0.0,0.0,0.0,0.0,0.0,0.0,0.0,0.0,0.0,0.0,0.0,0.0,0.0,0.0,0.0,0.0,0.0,0.0,0.0,0.0,0.0,0.0,0.0,0.0,0.0,0.0,0.0,0.0,0.0,0.0,0.0,0.0,0.0,0.0,0.0,0.0,0.0,0.0,0.0,0.0,0.0,0.0,0.0,0.0,0.0,0.0,0.0,0.0,0.0,0.0,0.0,0.0,0.0,0.0,0.0,0.0,0.0,0.0,0.0,-1.7993,-2.1598,-2.4247,-2.4916,-2.4407,-2.4264,-2.4934,-2.2181,-1.974,0.0,0.0,0.0,0.0,0.0,0.0,0.0,0.0,0.0,0.0,0.0,0.0,0.0,0.0,0.0,0.0,0.0,0.0,0.0,0.0,0.0,0.0,0.0,0.0,0.0,0.0,0.0,0.0,0.0,0.0,0.0,0.0,0.0,0.0,0.0,0.0,0.0,0.0,0.0,0.0,0.0,0.0,0.0,0.0,0.0,0.0,0.0,0.0,0.0,0.0,0.0,0.0,0.0,0.0,0.0,0.0,0.0,0.0,0.0,0.0,0.0,0.0,0.0,0.0,0.0,0.0,0.0,0.0,0.0,0.0,0.0,0.0,0.0,0.0,0.0,0.0,0.0,0.0,0.0,0.0,0.0,0.0,0.0,0.0,0.0,0.0,0.0,0.0,0.0,0.0,0.0,0.0,0.0,0.0,0.0,0.0,0.0,0.0,0.0,0.0,0.0,0.0,0.0,-1.8183,-2.1678,-2.4169,-2.4658,-2.4532,-2.4459,-2.4567,-2.3272,-2.122,-1.8323,0.0,0.0,0.0,0.0,0.0,0.0,0.0,0.0,0.0,0.0,0.0,0.0,0.0,0.0,0.0,0.0,0.0,0.0,0.0,0.0,0.0,0.0,0.0,0.0,0.0,0.0,0.0,0.0,0.0,0.0,0.0,0.0,0.0,0.0,0.0,0.0,0.0,0.0,0.0,0.0,0.0,0.0,0.0,0.0,0.0,0.0,0.0,0.0,0.0,0.0,0.0,0.0,0.0,0.0,0.0,0.0,0.0,0.0,0.0,0.0,0.0,0.0,0.0,0.0,0.0,0.0,0.0,0.0,0.0,0.0,0.0,0.0,0.0,0.0,0.0,0.0,0.0,0.0,0.0,0.0,0.0,0.0,0.0,0.0,0.0,0.0,0.0,0.0,0.0,0.0,0.0,0.0,0.0,0.0,0.0,0.0,0.0,0.0,0.0,0.0,0.0,0.0,-1.8643,-2.1882,-2.4208,-2.4703,-2.4521,-2.443,-2.4625,-2.3665,-2.1813,-1.8832,0.0,0.0,0.0,0.0,0.0,0.0,0.0,0.0,0.0,0.0,0.0,0.0,0.0,0.0,0.0,0.0,0.0,0.0,0.0,0.0,0.0,0.0,0.0,0.0,0.0,0.0,0.0,0.0,0.0,0.0,0.0,0.0,0.0,0.0,0.0,0.0,0.0,0.0,0.0,0.0,0.0,0.0,0.0,0.0,0.0,0.0,0.0,0.0,0.0,0.0,0.0,0.0,0.0,0.0,0.0,0.0,0.0,0.0,0.0,0.0,0.0,0.0,0.0,0.0,0.0,0.0,0.0,0.0,0.0,0.0,0.0,0.0,0.0,0.0,0.0,0.0,0.0,0.0,0.0,0.0,0.0,0.0,0.0,0.0,0.0,0.0,0.0,0.0,0.0,0.0,0.0,0.0,0.0,0.0,0.0,0.0,0.0,0.0,0.0,0.0,0.0,0.0,-1.9356,-2.229,-2.4398,-2.5045,-2.4572,-2.4425,-2.4944,-2.3634,-2.1796,-1.959,0.0,0.0,0.0,0.0,0.0,0.0,0.0,0.0,0.0,0.0,0.0,0.0,0.0,0.0,0.0,0.0,0.0,0.0,0.0,0.0,0.0,0.0,0.0,0.0,0.0,0.0,0.0,0.0,0.0,0.0,0.0,0.0,0.0,0.0,0.0,0.0,0.0,0.0,0.0,0.0,0.0,0.0,0.0,0.0,0.0,0.0,0.0,0.0,0.0,0.0,0.0,0.0,0.0,0.0,0.0,0.0,0.0,0.0,0.0,0.0,-1.8145,0.0,0.0,0.0,0.0,0.0,0.0,0.0,0.0,0.0,0.0,0.0,0.0,0.0,0.0,0.0,0.0,0.0,0.0,0.0,0.0,0.0,0.0,0.0,0.0,0.0,0.0,0.0,0.0,0.0,0.0,0.0,0.0,0.0,0.0,0.0,0.0,0.0,0.0,0.0,0.0,0.0,-2.0503,-2.3548,-2.5554,-2.5913,-2.5817,-2.5536,-2.504,-2.3916,-2.2464,-2.0587,-1.8152,0.0,0.0,0.0,0.0,0.0,0.0,0.0,0.0,0.0,0.0,0.0,0.0,0.0,0.0,0.0,0.0,0.0,0.0,0.0,0.0,0.0,0.0,0.0,0.0,0.0,0.0,0.0,0.0,0.0,0.0,0.0,0.0,0.0,0.0,0.0,0.0,0.0,0.0,0.0,0.0,0.0,0.0,0.0,0.0,0.0,0.0,0.0,0.0,0.0,0.0,0.0,0.0,0.0,0.0,0.0,0.0,0.0,0.0,0.0,0.0,-2.011,0.0,0.0,0.0,0.0,0.0,0.0,0.0,0.0,0.0,0.0,0.0,0.0,0.0,0.0,0.0,0.0,0.0,0.0,0.0,0.0,0.0,0.0,0.0,0.0,0.0,0.0,0.0,0.0,0.0,0.0,0.0,0.0,0.0,0.0,0.0,0.0,0.0,0.0,0.0,0.0,-2.1952,-2.4296,-2.5862,-2.6513,-2.6243,-2.5841,-2.5422,-2.4169,-2.2859,-2.1597,-1.9496,0.0,0.0,0.0,0.0,0.0,0.0,0.0,0.0,0.0,0.0,0.0,0.0,0.0,0.0,0.0,0.0,0.0,0.0,0.0,0.0,0.0,0.0,0.0,0.0,0.0,0.0,0.0,0.0,0.0,0.0,0.0,0.0,0.0,0.0,0.0,0.0,0.0,0.0,0.0,0.0,0.0,0.0,0.0,0.0,0.0,0.0,0.0,0.0,0.0,0.0,0.0,0.0,0.0,-2.7771,-2.8598,-2.9831,-2.9831,-2.9899,-2.9833,-2.5945,-2.4572,-2.4868,0.0,0.0,0.0,0.0,0.0,0.0,0.0,0.0,0.0,0.0,0.0,0.0,0.0,0.0,0.0,0.0,0.0,0.0,0.0,0.0,0.0,0.0,0.0,0.0,0.0,-2.4012,-2.3652,0.0,0.0,0.0,0.0,0.0,0.0,0.0,0.0,0.0,0.0,0.0,0.0,-2.3443,-2.4939,-2.6063,-2.7223,-2.6505,-2.5936,-2.5936,-2.4413,-2.3202,-2.2597,-2.0929,-1.9371,0.0,0.0,0.0,0.0,0.0,0.0,0.0,0.0,0.0,0.0,0.0,0.0,0.0,0.0,0.0,0.0,0.0,0.0,0.0,0.0,0.0,0.0,0.0,0.0,0.0,0.0,0.0,0.0,0.0,0.0,0.0,0.0,-1.6747,-1.7002,0.0,0.0,0.0,0.0,0.0,0.0,0.0,0.0,0.0,0.0,0.0,0.0,0.0,-2.6623,-2.8019,-2.9376,-3.0285,-3.0793,-3.2411,-3.344,-3.3934,-3.3934,-3.4291,-3.4878,-3.3247,0.0,-2.7402,-2.5817,0.0,0.0,0.0,0.0,0.0,0.0,0.0,0.0,0.0,0.0,0.0,0.0,0.0,0.0,0.0,0.0,0.0,0.0,0.0,0.0,0.0,0.0,-2.6575,-2.6661,-2.6986,-2.7133,0.0,-2.3153,-1.986,-1.9027,-1.7932,0.0,0.0,0.0,0.0,0.0,0.0,0.0,-2.4644,-2.5931,-2.7031,-2.8564,-2.7394,-2.6498,-2.6498,-2.4813,-2.3709,-2.3619,-2.1967,-2.0807,-2.0368,-1.7684,0.0,0.0,0.0,0.0,0.0,0.0,0.0,0.0,0.0,0.0,0.0,0.0,0.0,0.0,0.0,0.0,0.0,0.0,0.0,0.0,0.0,0.0,0.0,0.0,0.0,0.0,0.0,0.0,0.0,-1.7086,-1.9123,-1.8882,-2.0092,-2.0266,0.0,0.0,0.0,0.0,0.0,0.0,0.0,0.0,0.0,-2.8982,-2.9414,-3.0398,-3.2173,-3.3219,-3.4129,-3.483,-3.566,-3.6361,-3.6881,-3.6881,-3.707,-3.7384,-3.6861,-3.538,-3.313,-3.0313,-2.8097,-2.6275,0.0,0.0,0.0,0.0,-2.4927,-2.6059,-2.7282,-2.7178,0.0,-2.6404,0.0,0.0,0.0,0.0,0.0,0.0,0.0,0.0,0.0,0.0,0.0,-2.8437,-2.8798,-2.9029,-2.9029,-2.7148,-2.4974,0.0,-2.2088,-2.0764,-1.8995,0.0,0.0,0.0,0.0,-2.2317,-2.5638,-2.6644,-2.7543,-2.8865,-2.7556,-2.6602,-2.6602,-2.5027,-2.4016,-2.4016,-2.3172,-2.2414,-2.1901,-2.0152,-1.8341,0.0,0.0,0.0,0.0,0.0,0.0,0.0,0.0,0.0,0.0,0.0,0.0,0.0,0.0,0.0,0.0,0.0,0.0,0.0,0.0,0.0,0.0,0.0,0.0,0.0,0.0,0.0,0.0,-1.9524,-2.1451,-2.099,-2.2766,-2.3319,0.0,0.0,0.0,0.0,0.0,0.0,-2.7688,-2.8656,-3.0239,-3.2595,-3.3102,-3.4117,-3.5767,-3.6327,-3.7087,-3.8065,-3.8065,-3.8461,-3.9203,-3.9203,-3.9203,-3.9186,-3.8957,-3.8582,-3.7806,-3.4352,-3.1938,-3.0248,-2.8954,-2.8334,-2.8161,-2.8161,-2.8747,-2.9713,-3.0851,-3.0869,-3.0317,-2.9972,0.0,-2.8005,-2.5605,0.0,0.0,0.0,0.0,-2.7903,-2.9458,-2.9859,-2.9998,-3.0523,-3.091,-3.108,-3.0885,-3.0454,-2.9457,0.0,-2.5877,-2.4575,-2.2986,0.0,0.0,0.0,0.0,-2.4194,-2.6609,-2.725,-2.7891,-2.889,-2.7556,-2.6602,-2.6602,-2.5126,-2.419,-2.419,-2.4006,-2.3632,-2.3012,-2.2126,-2.0597,-1.8383,0.0,0.0,0.0,0.0,0.0,0.0,0.0,0.0,0.0,0.0,0.0,0.0,0.0,0.0,0.0,0.0,0.0,0.0,0.0,0.0,0.0,0.0,0.0,0.0,0.0,0.0,0.0,0.0,0.0,-2.3521,-2.679,0.0,0.0,0.0,0.0,-2.7324,-2.8721,-3.0374,-3.2193,-3.2994,-3.4548,-3.709,-3.721,-3.7607,-3.8405,-3.8456,-3.8853,-3.9577,-3.9577,-4.0008,-4.0791,-4.0791,-4.0791,-4.0739,-3.9974,-3.9612,-3.9405,-3.7042,-3.4749,-3.2662,-3.1869,-3.1145,-3.0541,-3.0541,-3.1438,-3.2679,-3.2766,-3.2766,-3.2852,-3.3596,-3.28,-3.1476,-3.0955,-3.0279,0.0,0.0,-3.0897,-3.1867,-3.3412,-3.3807,-3.3809,-3.3778,-3.402,-3.4054,-3.3298,-3.2582,-3.1504,0.0,-2.8147,-2.697,-2.61,0.0,-2.5172,-2.5209,-2.5236,-2.586,-2.7541,-2.7769,-2.8088,-2.8913,-2.7556,-2.6602,-2.6602,-2.5126,-2.419,-2.419,-2.418,-2.4056,-2.3762,-2.3213,-2.2027,-2.0101,-1.7874,0.0,0.0,0.0,0.0,0.0,0.0,0.0,0.0,0.0,0.0,0.0,0.0,0.0,0.0,0.0,0.0,0.0,0.0,0.0,0.0,0.0,0.0,0.0,0.0,0.0,0.0,0.0,0.0,-2.6841,-2.941,0.0,-2.8416,-2.9966,-3.1157,-3.12,-3.2784,-3.4257,-3.5364,-3.6122,-3.7245,-3.887,-3.8717,-3.9054,-4.0083,-4.0083,-4.0221,-4.0457,-4.0457,-4.0636,-4.0912,-4.0912,-4.0912,-4.0877,-4.0601,-4.0457,-4.0411,-3.96,-3.7927,-3.5818,-3.5559,-3.4993,-3.4369,-3.489,-3.5425,-3.5873,-3.5873,-3.5525,-3.4973,-3.432,-3.3369,-3.2474,-3.2346,-3.2123,-3.1986,-3.2348,-3.3048,-3.3825,-3.4614,-3.4823,-3.4789,-3.4772,-3.5035,-3.5054,-3.4244,-3.4044,-3.3661,-3.2461,-3.0875,-2.953,-2.8876,-2.8189,-2.7548,-2.7027,-2.6935,-2.7155,-2.7725,-2.8246,-2.8675,-2.8968,-2.8026,-2.7163,-2.6638,-2.5603,-2.475,-2.4226,-2.419,-2.4161,-2.4064,-2.3876,-2.2969,-2.125,-1.9886,-1.7734,0.0,0.0,0.0,0.0,0.0,0.0,0.0,0.0,0.0,0.0,0.0,0.0,0.0,0.0,0.0,0.0,0.0,0.0,0.0,0.0,0.0,0.0,0.0,0.0,0.0,0.0,-2.9448,-3.0019,-3.2435,-3.3541,-3.225,-3.3495,-3.4568,-3.5001,-3.6129,-3.7124,-3.7855,-3.8379,-3.9088,-4.006,-3.9901,-4.0134,-4.0894,-4.0912,-4.0912,-4.0912,-4.0912,-4.0912,-4.0912,-4.0912,-4.0912,-4.0912,-4.0912,-4.0912,-4.0912,-4.0912,-4.0014,-3.8617,-3.8358,-3.7749,-3.7129,-3.7685,-3.7962,-3.8134,-3.8269,-3.7965,-3.7318,-3.6059,-3.529,-3.4767,-3.4372,-3.4443,-3.4675,-3.4813,-3.5432,-3.611,-3.631,-3.6376,-3.6304,-3.6051,-3.6139,-3.6094,-3.5278,-3.506,-3.4839,-3.4307,-3.2757,-3.143,-3.1072,-3.0338,-2.9641,-2.909,-2.8778,-2.8613,-2.8613,-2.884,-2.9005,-2.9005,-2.8282,-2.7475,-2.6667,-2.587,-2.5062,-2.4245,-2.419,-2.419,-2.419,-2.3933,-2.3171,-2.1838,-2.0468,-1.868,-1.6467,0.0,0.0,0.0,0.0,0.0,0.0,0.0,0.0,0.0,0.0,0.0,0.0,0.0,0.0,0.0,0.0,0.0,0.0,0.0,0.0,0.0,0.0,0.0,-2.7198,-3.0987,-3.3634,-3.3046,-3.5917,-3.7546,-3.65,-3.749,-3.8316,-3.8641,-3.8663,-3.8974,-3.9698,-3.9733,-4.0077,-4.0877,-4.0912,-4.0912,-4.0912,-4.0912,-4.0912,-4.0912,-4.0912,-4.0912,-4.0912,-4.0912,-4.0912,-4.0912,-4.0912,-4.0912,-4.0912,-4.0912,-4.0912,-4.0825,-4.0026,-3.9301,-3.8663,-3.8663,-3.8938,-3.9388,-3.9779,-3.9899,-3.9775,-3.8989,-3.8757,-3.8508,-3.7315,-3.7505,-3.8025,-3.7628,-3.8068,-3.8673,-3.8692,-3.8707,-3.8505,-3.7731,-3.7547,-3.7327,-3.6505,-3.5665,-3.5059,-3.5023,-3.3738,-3.2674,-3.2638,-3.1971,-3.1452,-3.1452,-3.0723,0.0,-3.021,-2.95,-2.9005,-2.9005,-2.8301,-2.7512,-2.6722,-2.5907,-2.5081,-2.4281,-2.4208,-2.419,-2.419,-2.3446,-2.2666,-2.1854,-1.9557,-1.8331,-1.8249,0.0,0.0,0.0,0.0,0.0,0.0,0.0,0.0,0.0,0.0,0.0,0.0,0.0,0.0,0.0,0.0,0.0,0.0,0.0,0.0,0.0,0.0,-3.1956,-3.1776,-3.341,-3.5151,-3.6685,-3.8265,-3.9095,-3.8801,-3.9594,-4.0156,-4.025,-4.0273,-4.0359,-4.0567,-4.0584,-4.0687,-4.0894,-4.0912,-4.0912,-4.0912,-4.0912,-4.0912,-4.0912,-4.0912,-4.0912,-4.0912,-4.0912,-4.0912,-4.0912,-4.0912,-4.0912,-4.0912,-4.0912,-4.0912,-4.0877,-4.067,-4.0463,-4.0273,-4.0273,-4.0207,-4.0098,-4.0207,-4.0106,-3.9865,-3.9632,-3.9561,-3.9401,-3.8492,-3.8348,-3.8456,-3.8043,-3.8087,-3.8336,-3.8627,-3.8707,-3.8652,-3.8414,-3.8377,-3.8157,-3.7345,-3.6978,-3.645,-3.5243,-3.4637,-3.416,-3.3568,-3.2797,-3.2284,-3.2284,-3.1091,0.0,-3.021,-2.95,-2.9005,-2.9005,-2.8803,-2.8338,-2.753,-2.6722,-2.5933,-2.5117,-2.453,-2.419,-2.419,-2.3988,-2.3492,-2.2703,-2.0899,-1.967,0.0,0.0,0.0,0.0,0.0,0.0,0.0,0.0,0.0,0.0,0.0,0.0,0.0,0.0,0.0,0.0,0.0,0.0,0.0,0.0,0.0,0.0,-3.238,-3.4874,-3.5893,-3.6493,-3.7357,-3.8774,-3.9692,-4.0198,-4.0198,-4.0636,-4.1032,-4.1343,-4.136,-4.1516,-4.1843,-4.1861,-4.1861,-4.1861,-4.1861,-4.1705,-4.136,-4.136,-4.1222,-4.0912,-4.0912,-4.0912,-4.0912,-4.0912,-4.0912,0.0,-4.0912,-4.0912,-4.0912,-4.0912,-4.1012,0.0,0.0,0.0,0.0,0.0,-4.1619,-4.1477,-4.164,-4.1569,-4.1361,-4.0999,-4.0908,-4.0764,-3.995,-3.9715,-3.9587,-3.9013,-3.886,-3.8836,-3.8734,-3.8707,-3.8707,-3.8707,-3.8707,-3.8579,-3.8102,-3.7749,-3.7217,-3.6248,-3.5481,0.0,-3.438,-3.3642,-3.3096,-3.3096,-3.2027,-3.1091,-3.0742,-3.0008,-2.9372,-2.9042,-2.9005,-2.8675,-2.786,-2.7053,0.0,0.0,0.0,-2.4043,-2.3712,-2.3695,0.0,0.0,0.0,0.0,0.0,0.0,0.0,0.0,-1.9404,-1.9163,0.0,0.0,0.0,0.0,0.0,0.0,0.0,0.0,0.0,0.0,0.0,0.0,0.0,0.0,0.0,0.0,-3.5072,-3.6916,-3.9108,-3.9521,-3.9673,-3.9836,-4.048,-4.0912,-4.0912,-4.0981,-4.1309,-4.1964,-4.2085,-4.2447,-4.3155,0.0,0.0,0.0,0.0,-4.2861,-4.2154,-4.2154,-4.1774,-4.1032,-4.1032,-4.0981,-4.0912,-4.0912,-4.0912,-4.0912,-4.0912,-4.0912,-4.0912,-4.0912,-4.114,-4.1468,-4.1163,-4.1214,-4.1604,-4.2498,-4.2825,-4.2882,-4.3304,0.0,0.0,-4.2671,-4.2433,-4.2286,-4.148,-4.1242,-4.1058,-4.0267,-3.9955,-3.9735,-3.9019,-3.8781,-3.8707,-3.8707,-3.8707,-3.8707,-3.8707,-3.8138,-3.7621,-3.7529,-3.6303,-3.5224,-3.5041,-3.4325,-3.3807,-3.3807,-3.3128,-3.2339,-3.1635,-3.0742,-2.9934,-2.9207,0.0,0.0,-2.7989,-2.72,-2.6392,-2.5595,-2.4695,-2.3878,-2.3153,-2.3134,-2.3134,-2.3134,-2.3198,-2.3557,-2.4199,-2.4339,-2.4462,-2.4412,-2.0751,-2.0279,0.0,0.0,0.0,0.0,0.0,0.0,0.0,0.0,0.0,0.0,0.0,0.0,0.0,0.0,0.0,-3.5004,-3.7068,-3.8649,-3.9384,-3.9966,-4.0408,-4.0623,-4.0808,-4.0912,-4.0912,-4.1447,-4.1861,-4.1999,-4.2603,-4.3034,-4.3189,-4.3189,-4.3189,-4.3189,-4.3189,-4.312,-4.2965,-4.2965,-4.2568,-4.1792,0.0,0.0,-4.0912,-4.0912,-4.0912,-4.0912,-4.0912,-4.0912,-4.0912,-4.0912,-4.114,-4.1516,-4.1821,-4.1756,-4.1561,-4.2136,-4.2338,-4.2398,-4.2863,-4.3232,-4.3478,-4.3331,-4.3276,-4.3112,-4.2304,-4.2066,0.0,-4.1093,-4.0396,-3.9845,-3.9698,-3.9184,-3.8707,-3.8707,-3.8707,-3.8707,-3.8707,-3.8579,-3.8267,-3.7621,-3.7235,-3.6597,-3.5224,-3.4325,-3.3807,-3.3807,-3.3128,-3.2546,-3.2381,-3.1109,-3.0136,-2.9989,-2.939,-2.8932,-2.8785,-2.8026,-2.7218,-2.6429,-2.4997,-2.4135,-2.3969,-2.3979,-2.3979,-2.3969,-2.3988,-2.4062,-2.421,-2.4399,-2.4516,-2.4554,-2.381,-2.3846,0.0,0.0,0.0,0.0,0.0,0.0,0.0,0.0,0.0,0.0,0.0,-3.0091,0.0,0.0,-3.5154,-3.7188,-3.8398,-3.9343,-4.0014,-4.0391,-4.068,-4.0888,-4.0912,-4.105,-4.1412,-4.1792,-4.2327,-4.3103,-4.3517,-4.3914,-4.4285,-4.4302,-4.4302,-4.4302,-4.4302,-4.4113,-4.3741,-4.3741,-4.3172,-4.2016,-4.2016,-4.1619,-4.0912,-4.0912,-4.0912,-4.0912,-4.0912,-4.1018,-4.1255,-4.1709,-4.2029,-4.2239,-4.2675,-4.2578,-4.2239,-4.2693,-4.2846,-4.2884,-4.3124,-4.3339,-4.3515,-4.3515,-4.3515,-4.3423,-4.302,-4.2892,-4.2727,-4.1937,-4.1405,-4.1001,-4.0616,-3.99,-3.9294,-3.9294,-3.9001,-3.8707,-3.8707,-3.8707,-3.8579,-3.8175,-3.7786,-3.7107,-3.5862,-3.4949,-3.4266,-3.3862,-3.3458,-3.3073,-3.2656,-3.1904,-3.1091,-3.0283,-2.9831,-2.9445,-2.9023,-2.8264,-2.7273,-2.608,-2.5246,-2.4622,-2.4208,-2.419,-2.419,-2.419,-2.419,-2.419,-2.4201,-2.4408,-2.4786,-2.5356,-2.5444,-2.5595,0.0,0.0,0.0,0.0,0.0,0.0,0.0,0.0,-2.8518,-3.0364,-3.1664,-3.3085,-3.5013,-3.5859,-3.6948,-3.905,-3.9397,-3.9698,-4.0538,-4.0673,-4.0745,-4.0871,-4.0912,-4.1205,-4.1947,-4.2154,-4.281,-4.4207,-4.4432,-4.4768,-4.5363,-4.5397,-4.5397,-4.5397,-4.5397,-4.5104,-4.4535,-4.4492,-4.3828,-4.2465,-4.2465,-4.2068,-4.1343,-4.1188,-4.1119,-4.1119,-4.0963,-4.1117,-4.1561,-4.2318,-4.2749,-4.292,-4.3268,-4.3232,-4.3068,-4.3375,-4.3444,-4.3392,-4.3462,-4.3515,-4.3515,-4.3515,-4.3515,-4.3515,-4.3515,-4.3515,-4.3368,-4.2708,-4.2415,-4.2158,-4.1515,-4.0616,-3.99,-3.99,-3.9294,-3.8707,-3.8707,-3.8707,-3.8707,-3.8707,-3.8175,-3.7492,-3.667,-3.5811,-3.4912,-3.3954,-3.3807,-3.3568,-3.2913,-3.2693,-3.2032,-3.0595,-3.0283,-2.9879,-2.9078,-2.8264,-2.7247,-2.5944,-2.5723,-2.5338,-2.4685,-2.4667,-2.4667,-2.4667,-2.4667,-2.4687,-2.4718,-2.49,-2.5453,-2.6368,-2.6504,-2.66,-2.3712,-2.4186,-2.5015,-2.7706,-2.747,-2.8147,0.0,0.0,-3.3457,-3.6332,-3.7043,-3.7432,-3.8328,-3.8548,-3.8928,-3.9867,-4.0094,-4.0252,-4.0493,-4.0607,-4.0745,-4.0871,-4.0912,-4.1205,-4.1947,-4.2654,-4.3414,-4.4242,-4.4906,-4.5311,-4.5397,-4.5397,-4.5397,-4.5397,-4.5397,-4.5363,-4.5276,-4.5276,-4.4872,-4.4052,-4.4052,-4.3655,-4.2913,-4.2206,-4.1895,-4.1843,-4.1188,-4.1117,-4.1494,-4.1604,-4.2136,-4.2901,-4.2939,-4.316,-4.3427,-4.3479,-4.3268,-4.3013,-4.3375,-4.3515,-4.3515,-4.3515,-4.3515,-4.3515,-4.3515,-4.3515,-4.3478,-4.3404,-4.2837,-4.2286,-4.2194,-4.1038,-3.99,-3.99,-3.9294,-3.8707,-3.8707,-3.8707,-3.8707,-3.8707,-3.8634,-3.8303,-3.7511,-3.6703,-3.5624,-3.4045,-3.3807,-3.377,-3.3678,-3.3041,-3.2265,-3.136,-3.0632,-2.9879,-2.9078,-2.8264,-2.7725,-2.7541,-2.6851,-2.6429,-2.6337,-2.6337,-2.6337,-2.6337,-2.6337,-2.6432,-2.6591,-2.6674,-2.6946,-2.7347,-2.742,-2.756,-2.7232,-2.7757,-2.8264,0.0,-3.1393,-3.2628,-3.547,-3.5723,-3.5977,-3.8091,-3.8531,-3.8768,-3.9495,-3.9656,-3.979,0.0,-4.0313,-4.0387,-4.068,-4.0704,-4.0745,-4.0871,-4.0912,-4.1378,-4.2585,-4.3,-4.369,-4.4854,-4.5225,-4.5397,-4.5397,-4.5397,-4.5397,-4.5397,-4.5397,-4.5397,-4.5397,-4.5397,-4.5044,-4.4311,-4.4311,-4.3914,-4.3214,-4.3127,-4.2999,-4.278,-4.2282,-4.2154,-4.232,-4.2578,-4.2902,-4.325,-4.325,-4.3357,-4.3515,-4.3515,-4.3392,-4.3268,-4.3427,-4.3515,-4.3515,-4.3515,-4.3515,-4.3515,-4.3515,-4.3515,-4.3515,-4.3515,-4.3259,-4.3002,-4.3002,-4.2139,-4.1185,-4.0708,-3.9974,-3.9276,-3.8799,-3.8707,-3.8707,-3.8707,-3.8707,-3.8432,-3.7639,-3.7217,-3.6431,-3.4747,-3.41,-3.3807,-3.3807,-3.3513,-3.2816,-3.1544,-3.0687,-2.9879,-2.9078,-2.8693,-2.8301,-2.7835,-2.7475,-2.709,-2.662,-2.6602,-2.6602,-2.6602,-2.6602,-2.6729,-2.6963,-2.7035,-2.749,-2.8316,-2.837,-2.8745,-2.933,-3.032,0.0,-3.2733,-3.4619,-3.6186,-3.6474,-3.6992,-3.7777,-3.9046,-3.9399,-3.9642,-4.0086,-4.0271,-4.0377,-4.0468,-4.0607,-4.0749,-4.0834,-4.0965,-4.1016,-4.0905,-4.0912,-4.1429,-4.2741,-4.2861,-4.35,-4.4992,-4.5113,-4.5173,-4.538,-4.5397,-4.5397,-4.5397,-4.5397,-4.5397,-4.5397,-4.5397,-4.5121,-4.4596,-4.4596,-4.4302,-4.381,-4.4076,-4.3958,-4.3515,-4.3182,-4.3112,-4.3246,-4.3306,-4.3392,-4.3515,-4.3515,-4.3515,-4.3515,-4.3515,-4.3515,-4.3515,-4.3515,-4.3515,-4.3515,-4.3515,-4.3515,-4.3515,-4.3515,-4.3515,-4.3515,-4.3515,-4.3515,-4.3515,-4.3515,-4.2892,-4.2158,-4.1572,-4.0653,-3.9735,-3.9166,-3.8854,-3.8707,-3.8707,-3.8707,-3.8505,-3.7933,-3.7658,-3.7088,-3.5866,-3.4802,-3.4045,-3.3825,-3.3605,-3.3018,-3.1861,-3.0815,-2.9971,-2.9372,-2.9133,-2.8748,-2.8172,-2.8136,-2.7879,-2.7281,-2.7262,-2.7262,-2.7262,-2.7319,-2.7466,-2.7708,-2.7779,-2.8299,-2.9261,-2.9289,-2.9685,-2.8928,0.0,-3.3277,-3.4737,-3.6287,-3.7713,-3.8669,-3.8903,-3.914,-3.991,-4.0441,-4.0642,-4.0362,-4.0669,-4.0873,-4.0541,-4.1224,-4.1521,-4.08,-4.1436,-4.1698,-4.0981,-4.0912,-4.1205,0.0,-4.205,-4.2689,-4.4225,-4.4328,-4.4647,-4.5363,-4.5397,-4.5397,-4.5397,-4.5397,-4.5397,-4.5397,-4.5397,-4.538,-4.5363,-4.5363,-4.5345,-4.532,-4.5065,-4.456,-4.3874,-4.3533,-4.3629,-4.3987,-4.3227,-4.316,-4.3515,-4.3515,-4.3515,-4.3515,-4.3515,-4.3515,-4.3515,-4.3515,-4.3515,-4.3515,-4.3515,-4.3515,-4.3515,-4.3515,-4.3515,-4.3515,-4.3515,-4.3515,-4.3515,-4.3515,-4.2892,-4.2286,-4.2268,-4.1038,-3.9882,-3.9863,-3.9239,-3.8707,-3.8707,-3.8707,-3.8689,-3.867,-3.801,-3.7474,-3.7437,-3.6028,-3.4674,-3.3899,-3.3128,-3.2619,-3.2564,-3.1146,-3.0191,-3.0173,-2.9445,-2.8987,-2.8968,-2.8968,-2.895,-2.8932,-2.8932,-2.8932,-2.8932,-2.9111,-2.9321,-2.9523,-2.9587,-2.9813,-3.0169,-3.0099,-3.0155,-3.2335,0.0,-3.5619,-3.7469,-3.8447,-3.9266,-4.0412,-4.0643,-4.0573,-4.0285,-4.0346,-4.0184,-3.9284,-3.9966,-4.0476,-3.9853,-4.117,-4.1938,-4.0968,-4.1974,-4.2327,-4.105,-4.1343,0.0,0.0,0.0,0.0,-4.419,-4.4311,-4.4613,-4.5363,-4.5397,-4.5397,-4.5397,-4.5397,-4.5397,-4.5397,-4.5397,-4.5397,-4.5397,-4.5752,-4.593,-4.592,-4.5934,-4.5789,-4.5509,-4.464,-4.4363,-4.4437,-4.3633,-4.3375,-4.3515,-4.3515,-4.3515,-4.3515,-4.3515,-4.3515,-4.3515,-4.3515,-4.3515,-4.3515,-4.3515,-4.3515,-4.3515,-4.3515,-4.3515,-4.3515,-4.3515,-4.3515,-4.3515,-4.3515,-4.3313,-4.2947,-4.2433,-4.1882,-4.1203,-4.012,-3.968,-3.9331,-3.8799,-3.8707,-3.8707,-3.8707,-3.8487,-3.7936,-3.6868,-3.572,-3.4711,-3.3899,-3.3568,-3.3201,-3.2656,-3.2124,-3.1586,-3.1035,-3.0265,-2.9794,-2.9794,-2.9299,-2.9005,-2.9005,-2.9005,-2.9067,-2.9195,-2.9138,-2.9343,-2.9805,-2.9689,-2.9836,-3.0207,-3.0187,-3.0214,-3.4905,-3.6372,-3.7672,-3.9461,-4.0243,-4.0749,-4.1354,-4.1315,-4.0893,-4.0077,-3.9834,-3.9391,-3.8241,-3.8857,-3.9529,-3.9556,-4.1121,-4.2228,-4.1855,-4.2997,-4.3381,-4.213,-4.2241,-4.224,0.0,0.0,0.0,-4.3828,-4.4156,-4.4613,-4.5363,-4.5397,-4.5397,-4.5397,-4.5397,-4.5397,-4.5397,-4.5397,-4.5397,-4.5397,-4.5938,-4.6211,-4.6217,-4.6639,-4.683,-4.6778,-4.5936,-4.5553,-4.5461,-4.4378,-4.392,-4.3901,-4.3608,-4.3515,-4.3515,-4.3515,-4.3515,-4.3515,-4.3515,-4.3515,-4.3515,-4.3515,-4.3515,-4.3515,-4.3515,-4.3515,-4.3515,-4.3515,-4.3515,-4.3515,-4.3515,-4.3515,-4.3369,-4.2837,-4.2506,-4.2011,-4.0983,-4.0524,-4.0084,-3.9276,-3.9129,-3.9038,-3.8762,-3.8707,-3.8248,-3.6927,-3.6009,-3.5059,-3.3935,-3.3807,-3.3605,-3.3091,-3.2766,-3.2381,-3.1861,-3.1091,-3.0632,-3.0632,-2.9879,-2.9427,-2.9427,-2.9152,-2.9082,-2.9293,-2.9249,-2.9435,-2.9897,-2.9828,-2.9961,-3.0194,-3.0207,-3.0227,-3.6576,-3.8095,-3.9404,-4.0756,-4.1645,-4.2077,-4.1621,-4.0926,-4.0158,-3.9271,-3.8849,-3.8292,0.0,0.0,-3.8187,-3.9412,-4.1069,-4.2483,-4.3292,-4.4372,-4.4794,0.0,0.0,0.0,0.0,0.0,0.0,-4.3258,0.0,-4.4613,-4.5363,-4.5397,-4.5397,-4.5397,-4.5397,-4.5397,-4.5397,-4.5397,-4.5397,-4.5397,-4.598,-4.6211,-4.6235,-4.7204,-4.7611,-4.7596,-4.7252,-4.7094,-4.6984,-4.5406,-4.4745,-4.4618,-4.3864,-4.3551,-4.3515,-4.3515,-4.3515,-4.3515,-4.3515,-4.3515,-4.3515,-4.3515,-4.3515,-4.3515,-4.3515,-4.3515,-4.3515,-4.3515,-4.3515,-4.3515,-4.3515,-4.3515,-4.3515,-4.3515,-4.291,-4.2359,-4.2304,-4.1699,-4.0912,-4.0065,-3.9863,-3.9588,-3.8836,-3.8707,-3.8432,-3.7621,-3.685,-3.5752,-3.4082,-3.3825,-3.3807,-3.3807,-3.3128,-3.2656,-3.2656,-3.1916,-3.147,-3.147,-3.0705,-3.0265,-3.0265,-2.9537,-2.9211,-2.9423,-2.9606,-2.9784,-2.9972,-3.0194,-3.0293,-3.0268,-3.0308,-3.0322,-3.9136,-4.047,-4.1533,-4.2239,-4.2315,-4.2096,-4.1742,-4.1045,-3.9912,-3.7953,-3.7065,-3.5892,0.0,0.0,0.0,-3.7075,-4.0678,0.0,-4.3406,-4.5143,0.0,-4.4102,0.0,-4.4188,-4.3291,-4.369,0.0,0.0,-4.419,-4.4613,-4.5363,-4.5397,-4.5397,-4.5397,-4.5397,-4.5397,-4.5397,-4.5397,-4.5397,-4.5397,-4.6315,-4.6554,-4.6235,-4.7527,-4.7917,-4.7596,-4.7252,-4.7094,-4.7021,-4.6012,-4.5241,-4.4673,-4.447,-4.403,-4.3515,-4.3515,-4.3515,-4.3515,-4.3515,-4.3515,-4.3515,-4.3515,-4.3515,-4.3515,-4.3515,-4.3515,-4.3515,-4.3515,-4.3515,-4.3515,-4.3515,-4.3515,-4.3515,-4.3515,-4.3332,-4.302,-4.2433,-4.2139,-4.1589,-4.0157,-3.9423,-3.8946,-3.8744,-3.8707,-3.8432,-3.7621,-3.7327,-3.6578,-3.4912,-3.4174,-3.3807,-3.3807,-3.3623,-3.3495,-3.3495,-3.2761,-3.2302,-3.2302,-3.1531,-3.1091,-3.1091,-3.0889,-3.088,-3.1073,-3.1198,-3.1098,-3.0808,-3.1501,-3.1618,-3.1178,-3.1771,-3.2065,-4.0781,-4.1829,-4.2652,-4.2919,-4.2553,-4.1861,-4.0908,-3.9838,-3.8274,-3.5501,-3.4349,0.0,-3.0834,-3.3033,0.0,0.0,0.0,0.0,-4.4329,-4.5768,-4.6398,0.0,-4.5714,0.0,-4.4874,-4.5201,-4.5446,0.0,-4.5033,-4.5062,-4.5709,-4.5752,-4.5854,-4.6045,-4.6045,-4.6045,-4.6045,-4.6045,-4.6045,-4.607,-4.6845,-4.7071,-4.6845,-4.7854,-4.8152,-4.7899,0.0,-4.7626,-4.7553,-4.6746,-4.5957,-4.5186,-4.4838,-4.4213,-4.3515,-4.3515,-4.3515,-4.3515,-4.3515,-4.3515,-4.3515,-4.3515,-4.3515,-4.3515,-4.3515,-4.3515,-4.3515,-4.3515,-4.3515,-4.3515,-4.3515,-4.3515,-4.3515,-4.3515,-4.3515,-4.3386,-4.291,-4.2818,-4.2341,-4.0744,-3.9772,-3.9111,-3.8762,-3.8707,-3.856,-3.8083,-3.7731,-3.7162,-3.6229,-3.5073,-3.4192,-3.3844,-3.3807,-3.3807,-3.3807,-3.3385,-3.3115,-3.3115,-3.2375,-3.1935,-3.1935,-3.1586,-3.1489,-3.1693,-3.1856,-3.184,-3.167,-3.2256,-3.2365,-3.2031,-3.2489,-3.2699,-4.185,-4.2577,-4.3123,-4.3123,-4.2559,-4.1521,-3.9692,-3.8033,-3.5945,-3.2665,0.0,-3.0263,-2.8699,-3.0478,-3.303,-3.5555,0.0,-4.2086,-4.5424,-4.624,-4.6783,-4.7521,-4.7248,-4.6976,-4.6908,-4.6908,-4.6908,-4.6908,-4.6094,-4.5803,-4.6284,-4.6308,-4.6483,-4.6886,-4.6908,-4.6908,-4.6908,-4.6908,-4.6908,-4.6908,-4.7378,-4.7611,-4.7611,-4.8093,-4.8306,-4.8306,-4.8306,0.0,-4.8251,-4.7553,-4.6782,-4.5975,-4.5168,-4.4378,-4.3662,-4.3551,-4.3515,-4.3515,-4.3515,-4.3515,-4.3515,-4.3515,-4.3515,-4.3515,-4.3515,-4.3515,-4.3515,-4.3515,-4.3515,-4.3515,-4.3515,-4.3515,-4.3515,-4.3515,-4.3515,-4.3515,-4.3515,-4.3423,-4.2928,-4.1534,-4.0524,-3.968,-3.8982,-3.8781,-3.8707,-3.8707,-3.8102,-3.7621,-3.7511,-3.6046,-3.4729,-3.4027,-3.3862,-3.3807,-3.3807,-3.3807,-3.3807,-3.3807,-3.3146,-3.2748,-3.2748,-3.2082,-3.1796,-3.198,-3.227,-3.2447,-3.2514,-3.2863,-3.2986,-3.2871,-3.2986,-3.3024,-4.2759,-4.3069,-4.3178,-4.3178,-4.2577,-4.1393,-3.9099,-3.6838,0.0,0.0,-2.9235,-2.7798,-2.6151,-2.8459,-3.1408,-3.3844,-3.7533,-4.146,-4.5351,0.0,-4.7121,0.0,0.0,0.0,0.0,0.0,0.0,0.0,0.0,-4.6678,-4.6771,-4.6771,-4.6817,-4.6908,-4.6908,-4.6908,-4.6908,-4.6908,-4.6908,-4.6908,-4.7378,-4.7611,-4.7611,-4.8093,-4.8306,-4.8306,-4.8306,0.0,-4.8306,-4.8159,-4.7608,-4.6801,-4.6012,-4.5204,-4.4415,-4.3736,-4.3515,-4.3515,-4.3515,-4.3515,-4.3515,-4.3515,-4.3515,-4.3515,-4.3515,-4.3515,-4.3515,-4.3515,-4.3515,-4.3515,-4.3515,-4.3515,-4.3515,-4.3515,-4.3515,-4.3515,-4.3515,-4.2983,-4.2433,-4.2158,-4.091,-3.9845,-3.9717,-3.9148,-3.8707,-3.8707,-3.8579,-3.8248,-3.7584,-3.6046,-3.4949,-3.4821,-3.4197,-3.3807,-3.3807,-3.3807,-3.3807,-3.3807,-3.3678,-3.3587,-3.3587,-3.3458,-3.3411,-3.345,-3.3873,-3.3767,-3.316,-3.4239,-3.4426,-3.3796,-3.4464,-3.4762,-4.3086,-4.3286,-4.3286,-4.3286,-4.2097,-4.0141,-3.7197,0.0,0.0,0.0,-2.6925,-2.6085,-2.4839,-2.7347,0.0,-3.2228,-3.5257,0.0,0.0,0.0,0.0,0.0,0.0,0.0,0.0,0.0,0.0,0.0,0.0,-4.7524,-4.727,-4.7503,-4.763,-4.763,-4.763,-4.763,-4.763,-4.763,-4.763,-4.763,-4.7875,-4.7975,-4.7975,-4.8191,-4.8306,-4.8306,-4.8306,0.0,-4.8306,-4.8306,-4.7828,-4.7021,-4.6214,-4.5406,-4.4617,-4.3791,-4.3515,-4.3515,-4.3515,-4.3515,-4.3515,-4.3515,-4.3515,-4.3515,-4.3515,-4.3515,-4.3515,-4.3515,-4.3515,-4.3515,-4.3515,-4.3515,-4.3515,-4.3515,-4.3515,-4.3515,-4.3515,-4.3185,-4.28,-4.2378,-4.135,-4.0396,-3.9955,-3.9239,-3.8707,-3.8707,-3.8707,-3.856,-3.8175,-3.7055,-3.6138,-3.5734,-3.4931,-3.4417,-3.4417,-3.4045,-3.3807,-3.3807,-3.3807,-3.3807,-3.3807,-3.3807,-3.3807,-3.3807,-3.426,-3.432,-3.3934,-3.4782,-3.4999,-3.4636,-3.5018,-3.5209,-4.3191,-4.3411,-4.3411,-4.3411,-4.1649,-3.9006,-3.563,-3.2885,0.0,0.0,-2.5142,-2.4872,-2.4222,0.0,-2.887,0.0,-3.3183,-3.6454,0.0,0.0,0.0,0.0,0.0,0.0,0.0,0.0,0.0,0.0,0.0,0.0,-4.7775,-4.8113,-4.8306,-4.8306,-4.8306,-4.8306,-4.8306,-4.8306,-4.8306,-4.8306,-4.8306,-4.8306,-4.8306,-4.8306,-4.8306,-4.8306,-4.8306,0.0,0.0,-4.8306,-4.792,-4.7259,-4.6287,-4.5516,-4.4837,-4.3846,-4.3515,-4.3515,-4.3515,-4.3515,-4.3515,-4.3515,-4.3515,-4.3515,-4.3515,-4.3515,-4.3515,-4.3515,-4.3515,-4.3515,-4.3515,-4.3515,-4.3515,-4.3515,-4.3515,-4.3515,-4.3515,-4.3515,-4.3296,-4.2671,-4.1919,-4.1111,-4.0304,-3.9496,-3.8909,-3.8726,-3.8707,-3.8707,-3.8707,-3.8138,-3.7496,-3.6872,-3.5885,-3.5206,-3.5023,-3.4417,-3.399,-3.3807,-3.3807,-3.3834,-3.3881,-3.3815,-3.3834,-3.3881,-3.4255,-3.4431,-3.4431,-3.4908,-3.5132,-3.5132,-3.5185,-3.5209,-4.3277,-4.3497,-4.3497,-4.3497,-4.168,-3.9056,-3.5797,0.0,0.0,-2.5981,-2.4756,-2.4262,-2.4122,-2.4986,-2.6733,-2.9806,0.0,-3.5624,0.0,0.0,0.0,0.0,0.0,0.0,0.0,0.0,0.0,0.0,0.0,0.0,-4.8248,-4.8287,-4.8306,-4.8306,-4.8306,-4.8306,-4.8306,-4.8306,-4.8306,-4.8306,-4.8306,-4.8306,-4.8306,-4.8306,-4.8306,-4.8306,-4.8306,0.0,0.0,-4.8306,-4.8269,-4.8049,-4.6507,-4.5847,-4.559,-4.4084,-4.3515,-4.3515,-4.3515,-4.3515,-4.3515,-4.3515,-4.3515,-4.3515,-4.3515,-4.3515,-4.3515,-4.3515,-4.3515,-4.3515,-4.3515,-4.3515,-4.3515,-4.3515,-4.3515,-4.3515,-4.3515,-4.3515,-4.3478,-4.3387,-4.2745,-4.1937,-4.1132,-4.0322,-3.9533,-3.8817,-3.8707,-3.8707,-3.8707,-3.8634,-3.856,-3.8487,-3.7092,-3.5862,-3.5078,-3.4931,-3.4582,-3.3844,-3.3807,-3.3908,-3.4161,-3.3934,-3.3908,-3.4161,-3.4209,-3.4233,-3.4233,-3.4693,-3.4936,-3.4917,-3.5115,-3.5209,-4.2304,-4.313,-4.3386,-4.2892,-4.0965,-3.8193,-3.4449,0.0,-2.8565,-2.5307,-2.44,-2.419,-2.417,-2.485,-2.6146,-2.8393,-2.9549,-3.1715,-3.6101,0.0,0.0,0.0,0.0,0.0,0.0,0.0,0.0,0.0,0.0,0.0,-4.8306,-4.8306,-4.8306,-4.8306,-4.8306,-4.8306,-4.8306,-4.8306,-4.8306,-4.8306,-4.8306,-4.8306,-4.8306,-4.8306,-4.8306,-4.8306,-4.8306,0.0,0.0,-4.8306,-4.8306,-4.8196,-4.7058,-4.6342,-4.5755,-4.4635,-4.392,-4.3515,-4.3515,-4.3515,-4.3515,-4.3515,-4.3515,-4.3515,-4.3515,-4.3515,-4.3515,-4.3515,-4.3515,-4.3515,-4.3515,-4.3515,-4.3515,-4.3515,-4.3515,-4.3515,-4.3515,-4.3515,-4.3515,-4.3515,-4.2837,-4.2194,-4.1882,-4.0744,-3.979,-3.946,-3.9019,-3.8707,-3.8707,-3.8707,-3.8707,-3.8707,-3.7679,-3.6886,-3.6523,-3.5573,-3.4857,-3.4546,-3.4082,-3.3921,-3.4185,-3.4099,-3.4142,-3.4383,-3.4383,-3.4383,-3.4383,-3.4569,-3.4743,-3.4889,-3.4992,-3.5081,-4.0928,-4.2176,-4.2653,-4.2084,-3.9955,-3.7037,0.0,-3.0546,-2.7794,-2.4814,-2.419,-2.419,-2.419,-2.4658,-2.5485,-2.688,-2.7695,-2.9475,-3.3275,-3.5642,0.0,0.0,0.0,0.0,0.0,0.0,0.0,0.0,0.0,0.0,0.0,-4.8306,-4.8306,-4.8306,-4.8306,-4.8306,-4.8306,-4.8306,-4.8306,-4.8306,-4.8306,-4.8306,-4.8306,-4.8306,-4.8306,-4.8306,0.0,0.0,0.0,-4.8306,-4.8306,-4.8233,-4.7406,-4.6599,-4.5792,-4.5002,-4.4195,-4.3515,-4.3515,-4.3515,-4.3515,-4.3515,-4.3515,-4.3515,-4.3515,-4.3515,-4.3515,-4.3515,-4.3515,-4.3515,-4.3515,-4.3515,-4.3515,-4.3515,-4.3515,-4.3515,-4.3515,-4.3515,-4.3515,-4.3515,-4.3039,-4.258,-4.2341,-4.135,-4.0451,-3.9955,-3.9423,-3.8964,-3.8726,-3.8707,-3.8707,-3.8707,-3.8193,-3.7768,-3.7529,-3.6413,-3.5628,-3.5389,-3.4853,-3.4644,-3.4909,-3.4612,-3.4568,-3.4854,-3.4555,-3.4442,-3.4508,-3.4508,-3.4612,-3.4783,-3.486,-3.501,-3.9258,-4.0506,-4.1113,-4.1113,-3.8707,-3.5661,-3.317,-3.0118,-2.7137,-2.4704,-2.419,-2.419,-2.419,-2.4208,-2.4493,-2.5283,-2.7438,-3.0106,-3.3348,-3.6615,0.0,0.0,0.0,0.0,0.0,0.0,0.0,0.0,0.0,0.0,0.0,-4.8306,-4.8306,-4.8306,-4.8306,-4.8306,-4.8306,-4.8306,-4.8306,-4.8306,-4.8306,-4.8306,-4.8306,-4.8306,-4.8306,0.0,0.0,0.0,0.0,-4.8306,-4.8306,-4.8233,-4.7406,-4.6599,-4.5792,-4.5002,-4.4195,-4.3515,-4.3515,-4.3515,-4.3515,-4.3515,-4.3515,-4.3515,-4.3515,-4.3515,-4.3515,-4.3515,-4.3515,-4.3515,-4.3515,-4.3515,-4.3515,-4.3515,-4.3515,-4.3515,-4.3515,-4.3515,-4.3515,-4.3515,-4.3496,-4.3222,-4.2433,-4.2286,-4.1735,-4.0139,-3.9882,-3.9588,-3.8799,-3.8707,-3.8707,-3.8707,-3.8689,-3.8377,-3.7566,-3.7474,-3.7125,-3.634,-3.6266,-3.6357,-3.6573,-3.556,-3.5219,-3.5687,-3.4701,-3.4309,-3.4508,-3.4508,-3.4508,-3.4518,-3.4773,-3.501,-3.4559,-3.5903,-3.6674,-3.5573,-3.4509,-3.2999,-3.0008,-2.8521,-2.7119,-2.4704,-2.419,-2.419,-2.419,-2.419,-2.4997,-2.7457,-2.8491,0.0,0.0,0.0,0.0,0.0,0.0,0.0,0.0,0.0,0.0,0.0,0.0,0.0,0.0,-4.8306,-4.8306,-4.8306,-4.8306,-4.8306,-4.8306,-4.8306,-4.8306,-4.8306,-4.8306,-4.8306,-4.8306,-4.8306,0.0,0.0,0.0,0.0,0.0,-4.8306,-4.8306,-4.8269,-4.8012,-4.7095,-4.5865,-4.5608,-4.4654,-4.3515,-4.3515,-4.3515,-4.3515,-4.3515,-4.3515,-4.3515,-4.3515,-4.3515,-4.3515,-4.3515,-4.3515,-4.3515,-4.3515,-4.3515,-4.3515,-4.3515,-4.3515,-4.3515,-4.3515,-4.3515,-4.3515,-4.3515,-4.3515,-4.3423,-4.3149,-4.2653,-4.2139,-4.1625,-4.0598,-3.9808,-3.9551,-3.9038,-3.8707,-3.8707,-3.8707,-3.8597,-3.834,-3.7823,-3.7382,-3.7144,-3.6597,-3.6394,-3.6591,-3.6271,-3.6304,-3.6782,-3.5766,-3.5353,-3.5586,-3.4864,-3.4508,-3.4518,-3.4917,-3.5063,0.0,-3.2638,-3.339,-3.2412,-3.1684,-3.0638,-2.8319,-2.7339,-2.6384,-2.4575,-2.419,-2.419,-2.419,-2.419,-2.4961,-2.7273,-2.8154,0.0,0.0,0.0,0.0,0.0,0.0,0.0,0.0,0.0,0.0,0.0,0.0,0.0,0.0,-4.8306,-4.8306,-4.8306,-4.8306,-4.8306,-4.8306,-4.8306,-4.8306,-4.8306,-4.8306,-4.8306,-4.8306,-4.8306,0.0,0.0,0.0,0.0,0.0,-4.8306,-4.8306,-4.8306,-4.8306,-4.7498,-4.6324,-4.6012,-4.5076,-4.3901,-4.3625,-4.3515,-4.3515,-4.3515,-4.3515,-4.3515,-4.3515,-4.3515,-4.3515,-4.3515,-4.3515,-4.3515,-4.3515,-4.3515,-4.3515,-4.3515,-4.3515,-4.3515,-4.3515,-4.3515,-4.3515,-4.3515,-4.3515,-4.3515,-4.3515,-4.3075,-4.2653,-4.2359,-4.1442,-4.0579,-3.9974,-3.946,-3.9038,-3.8726,-3.8707,-3.8707,-3.8707,-3.823,-3.7936,-3.7936,-3.7477,-3.7257,-3.7391,-3.7091,-3.7102,-3.7483,-3.6622,-3.6308,-3.6547,-3.5914,-3.5598,-3.5598,-3.5894,-3.596,0.0,-3.0356,-3.0956,-3.0901,-2.9806,-2.8528,-2.7732,-2.6439,0.0,-2.4373,-2.419,-2.4226,-2.4355,-2.4318,-2.4622,-2.565,-2.7137,0.0,0.0,0.0,0.0,0.0,0.0,0.0,0.0,0.0,0.0,0.0,0.0,0.0,0.0,-4.8306,-4.8306,-4.8306,-4.8306,-4.8306,-4.8306,-4.8306,-4.8306,-4.8306,-4.8306,-4.8306,-4.8306,-4.8306,0.0,0.0,0.0,0.0,0.0,-4.8306,-4.8306,-4.8306,-4.8306,-4.781,-4.7003,-4.6269,-4.5443,-4.4581,-4.3828,-4.3551,-4.3515,-4.3515,-4.3515,-4.3515,-4.3515,-4.3515,-4.3515,-4.3515,-4.3515,-4.3515,-4.3515,-4.3515,-4.3515,-4.3515,-4.3515,-4.3515,-4.3515,-4.3515,-4.3515,-4.3515,-4.3515,-4.3515,-4.3515,-4.3515,-4.324,-4.2506,-4.2341,-4.1754,-4.0249,-4.001,-3.968,-3.8872,-3.8799,-3.8762,-3.8707,-3.8707,-3.8707,-3.8707,-3.8707,-3.8707,-3.8707,-3.7988,-3.7679,-3.789,-3.7368,-3.7156,-3.7294,-3.7363,-3.7402,-3.7402,-3.7412,-3.7373,-2.5401,0.0,-2.666,-2.6054,-2.6072,-2.6035,0.0,-2.5227,-2.5172,-2.4373,-2.419,-2.4575,-2.5805,-2.5529,-2.6182,-2.9469,0.0,0.0,0.0,0.0,0.0,0.0,0.0,0.0,0.0,0.0,0.0,0.0,0.0,0.0,0.0,-4.8306,-4.8306,-4.8306,-4.8306,-4.8306,-4.8306,-4.8306,-4.8306,-4.8306,-4.8306,-4.8306,-4.8306,-4.8306,0.0,0.0,0.0,0.0,-4.8306,-4.8306,-4.8306,-4.8306,-4.8306,-4.781,-4.7076,-4.6892,-4.592,-4.4654,-4.4488,-4.4011,-4.3515,-4.3515,-4.3515,-4.3515,-4.3515,-4.3515,-4.3515,-4.3515,-4.3515,-4.3515,-4.3515,-4.3515,-4.3515,-4.3515,-4.3515,-4.3515,-4.3515,-4.3515,-4.3515,-4.3515,-4.3515,-4.3515,-4.3515,-4.3515,-4.3441,-4.324,-4.269,-4.2158,-4.1772,-4.1203,-4.0506,-3.9698,-3.9625,-3.9368,-3.8762,-3.8707,-3.8707,-3.8707,-3.8707,-3.8707,-3.8707,-3.8524,-3.8545,-3.879,-3.8209,-3.771,-3.7294,-3.7323,-3.7353,-3.7402,-3.7547,-3.7538,-2.419,-2.5052,-2.5841,-2.5401,-2.5621,-2.5841,-2.5401,-2.5071,-2.4732,-2.4281,-2.419,-2.4575,-2.5823,-2.5988,0.0,0.0,-3.1843,0.0,0.0,0.0,0.0,0.0,0.0,0.0,0.0,0.0,0.0,0.0,0.0,0.0,0.0,-4.8306,-4.8306,-4.8306,-4.8306,-4.8306,-4.8306,-4.8306,-4.8306,-4.8306,-4.8306,-4.8306,-4.8306,-4.8306,-4.8306,0.0,0.0,0.0,-4.8306,-4.8306,-4.8306,-4.8306,-4.8306,-4.8031,-4.7553,-4.6838,-4.6012,-4.5149,-4.4415,-4.3864,-4.3515,-4.3515,-4.3515,-4.3515,-4.3515,-4.3515,-4.3515,-4.3515,-4.3515,-4.3515,-4.3515,-4.3515,-4.3515,-4.3515,-4.3515,-4.3515,-4.3515,-4.3515,-4.3515,-4.3515,-4.3515,-4.3515,-4.3515,-4.3515,-4.3515,-4.3515,-4.313,-4.2708,-4.2359,-4.1919,-4.135,-4.0543,-4.0451,-4.0267,-3.9829,-3.946,-3.9093,-3.8726,-3.8707,-3.8707,-3.8707,-3.8707,-3.884,-3.9101,-3.8784,-3.8521,-3.8316,-3.8316,-3.8327,-3.8368,-3.861,-3.859,-2.4502,-2.575,-2.684,-2.6374,-2.6521,-2.6722,-2.6465,0.0,0.0,0.0,0.0,0.0,0.0,-2.6686,0.0,0.0,0.0,0.0,0.0,0.0,0.0,0.0,0.0,0.0,0.0,0.0,0.0,0.0,0.0,0.0,0.0,-4.8306,-4.8306,-4.8306,-4.8306,-4.8306,-4.8306,-4.8306,-4.8306,-4.8306,-4.8306,-4.8306,-4.8306,-4.8306,-4.8306,0.0,0.0,0.0,-4.8306,-4.8306,-4.8306,-4.8306,-4.8306,-4.8306,-4.8122,-4.6636,-4.6012,-4.5663,-4.4048,-4.3515,-4.3515,-4.3515,-4.3515,-4.3515,-4.3515,-4.3515,-4.3515,-4.3515,-4.3515,-4.3515,-4.3515,-4.3515,-4.3515,-4.3515,-4.3515,-4.3515,-4.3515,-4.3515,-4.3515,-4.3515,-4.3515,-4.3515,-4.3515,-4.3515,-4.3515,-4.3515,-4.3515,-4.324,-4.2561,-4.2488,-4.2176,-4.137,-4.1279,-4.1224,-4.1113,-4.0487,-3.979,-3.9111,-3.8882,-3.8765,-3.8765,-3.8765,-3.8851,-3.905,-3.9031,-3.9165,-3.9452,-3.9452,-3.9464,-3.9514,-3.9739,-3.9739,-2.586,-2.7409,-2.7978,-2.5254,-2.6098,-2.7255,-2.5888,-2.5915,0.0,0.0,0.0,0.0,0.0,-2.9567,-3.0656,0.0,0.0,0.0,0.0,0.0,0.0,0.0,0.0,0.0,0.0,0.0,0.0,0.0,0.0,0.0,0.0,-4.8306,-4.8306,-4.8306,-4.8306,-4.8306,-4.8306,-4.8306,-4.8306,-4.8306,-4.8306,-4.8306,-4.8306,-4.8306,-4.8306,-4.8306,0.0,-4.8306,-4.8306,-4.8306,-4.8306,-4.8306,-4.8306,-4.8306,-4.8196,-4.7259,-4.6489,-4.5663,-4.4048,-4.3515,-4.3515,-4.3515,-4.3515,-4.3515,-4.3515,-4.3515,-4.3515,-4.3515,-4.3515,-4.3515,-4.3515,-4.3515,-4.3515,-4.3515,-4.3515,-4.3515,-4.3515,-4.3515,-4.3515,-4.3515,-4.3515,-4.3515,-4.3515,-4.3515,-4.3515,-4.3515,-4.3515,-4.346,-4.3331,-4.3331,-4.3002,-4.2194,-4.2121,-4.1846,-4.115,-4.0985,-4.0857,-4.0728,-3.9667,-3.9031,-3.9031,-3.9031,-3.895,-3.8765,-3.8765,-3.8877,-3.917,-3.917,-3.9272,-3.9514,-3.9532,-3.967,-2.5107,-2.6484,-2.7354,-2.5878,-2.764,-2.9671,-2.9365,-2.8906,-2.8558,0.0,0.0,0.0,0.0,0.0,-3.3348,-3.7055,0.0,0.0,0.0,0.0,0.0,0.0,0.0,0.0,0.0,0.0,0.0,0.0,0.0,0.0,0.0,0.0,-4.8306,-4.8306,-4.8306,-4.8306,-4.8306,-4.8306,-4.8306,-4.8306,-4.8306,-4.8306,-4.8306,-4.8306,-4.8306,-4.8306,0.0,-4.8306,-4.8306,-4.8306,-4.8306,-4.8306,-4.8306,-4.8306,-4.8159,-4.6911,-4.5681,-4.4488,-4.3772,-4.3515,-4.3515,-4.3515,-4.3515,-4.3515,-4.3515,-4.3515,-4.3515,-4.3515,-4.3515,-4.3515,-4.3515,-4.3515,-4.3515,-4.3515,-4.3515,-4.3515,-4.3515,-4.3515,-4.3515,-4.3515,-4.3515,-4.3515,-4.3515,-4.3515,-4.3515,-4.3515,-4.3515,-4.3515,-4.3515,-4.3515,-4.3368,-4.2983,-4.2947,-4.28,-4.2433,-4.2011,-4.157,-4.1132,-4.0114,-3.9597,-3.9737,-3.9186,-3.8877,-3.8925,-3.878,-3.8765,-3.8881,-3.8881,-3.895,-3.9073,-3.9219,-3.935,-2.4667,-2.5658,-2.6693,-2.706,-2.887,-3.0907,-3.2289,-3.1513,-3.0705,0.0,0.0,0.0,0.0,-3.4009,0.0,0.0,0.0,0.0,0.0,0.0,0.0,0.0,0.0,0.0,0.0,0.0,0.0,0.0,0.0,0.0,0.0,0.0,-4.8306,-4.8306,-4.8306,-4.8306,-4.8306,-4.8306,-4.8306,-4.8306,-4.8306,-4.8306,-4.8306,-4.8306,-4.8306,-4.8306,-4.8306,-4.8306,-4.8306,-4.8306,-4.8306,-4.8288,-4.8104,-4.7792,-4.7315,-4.6067,-4.4709,-4.3515,-4.3515,-4.3515,-4.3515,-4.3515,-4.3515,-4.3515,-4.3515,-4.3515,-4.3515,-4.3515,-4.3515,-4.3515,-4.3515,-4.3515,-4.3515,-4.3515,-4.3515,-4.3515,-4.3515,-4.3515,-4.3515,-4.3515,-4.3515,-4.3515,-4.3515,-4.3515,-4.3515,-4.3515,-4.3515,-4.3515,-4.3515,-4.3515,-4.3515,-4.3515,-4.3515,-4.3515,-4.3515,-4.2928,-4.2323,-4.1699,-4.0806,-4.028,-4.0294,-3.9501,-3.9051,-3.9007,-3.8792,-3.8707,-3.8707,-3.8707,-3.8707,-3.8707,-3.8906,-3.9031,-2.6025,-2.651,-2.695,-2.8455,-2.8448,-2.8851,-3.1904,-3.1935,-3.2186,-3.522,0.0,0.0,0.0,-3.7863,0.0,0.0,0.0,0.0,0.0,0.0,0.0,0.0,0.0,0.0,0.0,0.0,0.0,0.0,0.0,0.0,0.0,0.0,0.0,-4.8306,-4.8306,-4.8306,-4.8306,-4.8306,-4.8306,-4.8306,-4.8306,-4.8306,-4.8306,-4.8306,-4.8306,-4.8306,-4.8306,-4.8306,-4.8306,-4.8306,-4.8306,-4.8233,-4.748,-4.6269,-4.4948,-4.4837,-4.4232,-4.3515,-4.3515,-4.3515,-4.3515,-4.3515,-4.3515,-4.3515,-4.3515,-4.3515,-4.3515,-4.3515,-4.3515,-4.3515,-4.3515,-4.3515,-4.3515,-4.3515,-4.3515,-4.3515,-4.3515,-4.3515,-4.3515,-4.3515,-4.3515,-4.3515,-4.3515,-4.3515,-4.3515,-4.3515,-4.3515,-4.3515,-4.3515,-4.3515,-4.3515,-4.3515,-4.3515,-4.3515,-4.3515,-4.346,-4.3404,-4.3331,-4.2102,-4.1063,-4.0327,-4.0224,-3.9723,-3.8738,-3.8707,-3.8707,-3.8707,-3.8707,-3.8707,-3.8707,-3.8723,-3.8866,-2.4942,-2.6209,-2.7603,-2.8712,-2.9531,-3.0742,-3.3463,-3.4669,-3.584,-3.8065,-3.8542,0.0,0.0,0.0,0.0,0.0,0.0,0.0,0.0,0.0,0.0,0.0,0.0,0.0,0.0,0.0,0.0,0.0,0.0,0.0,0.0,0.0,0.0,-4.6819,-4.6819,-4.7058,-4.7553,-4.7553,-4.7791,-4.8306,-4.8306,-4.8306,-4.8306,-4.8306,-4.8306,-4.8306,-4.8306,-4.8012,-4.7553,-4.7553,-4.7278,-4.6783,-4.6471,-4.5681,-4.4691,-4.4691,-4.4195,-4.3515,-4.3515,-4.3515,-4.3515,-4.3515,-4.3515,-4.3515,-4.3515,-4.3515,-4.3515,-4.3515,-4.3515,-4.3515,-4.3515,-4.3515,-4.3515,-4.3515,-4.3515,-4.3515,-4.3515,-4.3515,-4.3515,-4.3515,-4.3515,-4.3515,-4.3515,-4.3515,-4.3515,-4.3515,-4.3515,-4.3515,-4.3515,-4.3515,-4.3515,-4.3515,-4.3515,-4.3515,-4.3515,-4.3463,-4.3464,-4.3497,-4.255,-4.1936,-4.1802,-4.0673,-3.9948,-3.9708,-3.9053,-3.8707,-3.8707,-3.8707,-3.8707,-3.8707,-3.8707,-3.875,-2.4585,-2.597,-2.7677,-2.8748,-3.0411,-3.2485,-3.5183,-3.667,-3.8172,-4.0559,-4.0634,-4.0432,-4.0928,0.0,0.0,0.0,0.0,0.0,0.0,0.0,0.0,0.0,0.0,0.0,0.0,0.0,0.0,0.0,0.0,0.0,0.0,0.0,0.0,0.0,-4.5902,-4.6159,-4.6709,-4.6709,-4.7003,-4.7553,-4.7553,-4.781,-4.8306,-4.8306,-4.8159,-4.7921,-4.7921,-4.7461,-4.6709,-4.6709,-4.625,-4.5516,-4.5516,-4.5039,-4.4323,-4.4323,-4.3975,-4.3515,-4.3515,-4.3515,-4.3515,-4.3515,-4.3515,-4.3515,-4.3515,-4.3515,-4.3515,-4.3515,-4.3515,-4.3515,-4.3515,-4.3515,-4.3515,-4.3515,-4.3515,-4.3515,-4.3515,-4.3515,-4.3515,-4.3515,-4.3515,-4.3515,-4.3515,-4.3515,-4.3515,-4.3515,-4.3515,-4.3515,-4.3515,-4.348,-4.3445,-4.341,-4.341,-4.341,-4.341,-4.3358,-4.3358,-4.3392,-4.2898,-4.2577,-4.2559,-4.1319,-4.057,-4.0488,-3.9488,-3.8978,-3.9027,-3.8753,-3.8658,-3.8707,-3.8707,-3.8707,-2.5393,-2.5988,-2.7024,-2.8638,0.0,0.0,-3.6795,-3.7529,-3.8667,-4.2688,-4.2231,-4.1625,-4.3185,0.0,0.0,0.0,0.0,0.0,0.0,0.0,0.0,0.0,0.0,0.0,0.0,0.0,0.0,0.0,0.0,0.0,0.0,0.0,0.0,0.0,-4.5883,-4.5883,-4.5883,-4.5883,-4.5883,-4.5902,-4.5902,-4.6728,-4.8288,-4.8288,-4.7828,-4.7094,-4.7094,-4.6617,-4.5883,-4.5883,-4.5406,-4.4691,-4.4691,-4.4195,-4.3515,-4.3515,-4.3515,-4.3515,-4.3515,-4.3515,-4.3515,-4.3515,-4.3515,-4.3515,-4.3515,-4.3515,-4.3515,-4.3515,-4.3515,-4.3515,-4.3515,-4.3515,-4.3515,-4.3515,-4.3515,-4.3515,-4.3515,-4.3515,-4.3515,-4.3515,-4.3515,-4.3515,-4.3515,-4.3515,-4.3515,-4.3515,-4.3515,-4.3515,-4.3497,-4.3446,-4.334,-4.3196,-4.3214,-4.3214,-4.3214,-4.3214,-4.3214,-4.3214,-4.3214,-4.2921,-4.2324,-4.2256,-4.1803,-4.0924,-4.0055,-3.9637,-3.9701,-3.8896,-3.8593,-3.8707,-3.8707,-3.8707,-2.5393,-2.7229,-2.9531,-3.1133,0.0,0.0,0.0,-4.0029,0.0,0.0,-4.3112,-4.2763,-4.2671,0.0,0.0,0.0,0.0,0.0,0.0,0.0,0.0,0.0,0.0,0.0,0.0,0.0,0.0,0.0,0.0,0.0,0.0,0.0,0.0,0.0,-4.4195,-4.447,-4.5057,-4.5057,-4.5351,-4.5902,-4.5902,-4.614,-4.6617,-4.6617,-4.6489,-4.6269,-4.6269,-4.581,-4.5021,-4.4452,-4.4066,-4.3864,-4.3864,-4.3699,-4.3515,-4.3515,-4.3515,-4.3515,-4.3515,-4.3515,-4.3515,-4.3515,-4.3515,-4.3515,-4.3515,-4.3515,-4.3515,-4.3515,-4.3515,-4.3515,-4.3515,-4.3515,-4.3515,-4.3515,-4.3515,-4.3515,-4.3515,-4.3515,-4.3515,-4.3515,-4.3515,-4.348,-4.3446,-4.3463,-4.348,-4.3446,-4.3429,-4.3394,-4.3304,-4.3269,-4.3251,-4.3196,-4.3214,-4.3214,-4.3214,-4.316,-4.316,-4.3196,-4.316,-4.3105,-4.3082,-4.2427,-4.1972,-4.1821,-4.0915,-4.0169,-3.9637,-3.9382,-3.9029,-3.8559,-3.8559,-3.8609,-2.6557,-2.8705,0.0,-3.3513,-3.6413,-3.9294,-4.1552,0.0,0.0,0.0,-4.324,-4.2965,-4.28,0.0,0.0,0.0,0.0,0.0,0.0,0.0,0.0,0.0,0.0,0.0,0.0,0.0,0.0,0.0,0.0,0.0,0.0,0.0,0.0,0.0,-4.348,-4.3718,-4.4213,-4.4213,-4.447,-4.4947,-4.4912,-4.4912,-4.493,-4.559,-4.5736,-4.5406,-4.5094,-4.4672,-4.4195,-4.3699,-4.3515,-4.3515,-4.3515,-4.3515,-4.3515,-4.3515,-4.3515,-4.3515,-4.3515,-4.3515,-4.3515,-4.3515,-4.3515,-4.3515,-4.3515,-4.3515,-4.3515,-4.3515,-4.3515,-4.3515,-4.3515,-4.3515,-4.3515,-4.3515,-4.3515,-4.3497,-4.3481,-4.3445,-4.3445,-4.3393,-4.3375,-4.3375,-4.334,-4.3358,-4.3375,-4.334,-4.3323,-4.3287,-4.316,-4.316,-4.3142,-4.3087,-4.3087,-4.3087,-4.3087,-4.305,-4.3031,-4.3068,-4.305,-4.3105,-4.3269,-4.2741,-4.2468,-4.2558,-4.1649,-4.0941,-4.0519,-4.0192,-3.9823,-3.9396,-3.9102,-3.8988,-2.8345,-3.0228,-3.2333,-3.5679,-3.7845,0.0,-4.2835,-4.3515,-4.3515,-4.3515,0.0,-4.2635,0.0,0.0,0.0,0.0,0.0,0.0,0.0,0.0,0.0,0.0,0.0,0.0,0.0,0.0,0.0,0.0,0.0,0.0,0.0,0.0,0.0,-4.3394,-4.3445,-4.3497,-4.3497,-4.3497,-4.3479,0.0,-4.3411,-4.3394,-4.3431,-4.4967,-4.526,-4.4544,-4.3809,-4.3515,-4.3515,-4.3515,-4.3515,-4.3515,-4.3515,-4.3515,-4.3515,-4.3515,-4.3515,-4.3515,-4.3515,-4.3515,-4.3515,-4.3515,-4.3515,-4.3515,-4.3515,-4.3515,-4.3515,-4.3515,-4.3515,-4.3515,-4.3515,-4.3497,-4.3497,-4.3497,-4.3497,-4.3463,-4.3394,-4.3394,-4.334,-4.3233,-4.3214,-4.3196,-4.3196,-4.3196,-4.3196,-4.3196,-4.3196,-4.316,-4.3104,-4.3086,-4.303,-4.2901,-4.2901,-4.2901,-4.2901,-4.2901,-4.2901,-4.2901,-4.2901,-4.2938,-4.3086,-4.3086,-4.3086,-4.3104,-4.2249,-4.1832,-4.1869,-4.116,-4.0795,-4.0772,-4.0043,-3.971,-2.8345,-3.0638,0.0,0.0,-4.0341,-4.2635,-4.3349,-4.3515,-4.3515,-4.3515,-4.3368,0.0,0.0,0.0,0.0,0.0,0.0,0.0,0.0,0.0,0.0,0.0,0.0,0.0,0.0,0.0,0.0,0.0,0.0,0.0,0.0,0.0,0.0,-4.3394,-4.3411,-4.3411,-4.3411,-4.3411,-4.3376,0.0,-4.3251,-4.3251,-4.3269,-4.3615,-4.3743,-4.3667,-4.3553,-4.3515,-4.3515,-4.3515,-4.3515,-4.3515,-4.3515,-4.3515,-4.3515,-4.3515,-4.3515,-4.3515,-4.3515,-4.3515,-4.3515,-4.3515,-4.3515,-4.3515,-4.3515,-4.3515,-4.3515,-4.3515,-4.3515,-4.3515,-4.3515,-4.3445,-4.3411,-4.3411,-4.3411,-4.3394,-4.3269,-4.3251,-4.3233,-4.3214,-4.3214,-4.3178,-4.3123,-4.3178,-4.3178,-4.3123,-4.3105,-4.3086,-4.2957,-4.2938,-4.2938,-4.2901,-4.2901,-4.2901,-4.2901,-4.2901,-4.2901,-4.2901,-4.2901,-4.2901,-4.2938,-4.2938,-4.2994,-4.3104,-4.2812,-4.2358,-4.1742,-4.156,-4.1216,-4.0722,-4.054,-4.0173,-2.8601,0.0,0.0,-3.8618,0.0,-4.3515,-4.3515,-4.3515,-4.3515,-4.3515,0.0,0.0,0.0,0.0,0.0,0.0,0.0,0.0,0.0,0.0,0.0,0.0,0.0,0.0,0.0,0.0,0.0,0.0,0.0,0.0,0.0,-4.3086,-4.3141,-4.3251,-4.3287,-4.3286,-4.3286,-4.3286,-4.3269,-4.3214,-4.316,-4.3123,-4.3068,-4.316,-4.3233,-4.3323,-4.3411,-4.3464,-4.3445,-4.3497,-4.3515,-4.3515,-4.3515,-4.3515,-4.3515,-4.3515,-4.3515,-4.3515,-4.3515,-4.3515,-4.3515,-4.3515,-4.3515,-4.3515,-4.3515,-4.3515,-4.3515,-4.3515,-4.348,-4.3464,-4.3464,-4.3394,-4.3305,-4.3251,-4.3269,-4.3287,-4.316,-4.316,-4.3123,-4.3068,-4.305,-4.305,-4.3012,-4.3031,-4.305,-4.3012,-4.2994,-4.2975,-4.2919,-4.2901,-4.2901,-4.2901,-4.2901,-4.2901,-4.2901,-4.2901,-4.2901,-4.2901,-4.2901,-4.2901,-4.2901,-4.2901,-4.2938,-4.2994,-4.2938,-4.2683,-4.2266,-4.2266,-4.2086,-4.1742,-4.1361,-4.1015,-2.8209,0.0,-3.4325,-3.9756,-4.2213,0.0,-4.3478,-4.3515,-4.3515,0.0,0.0,0.0,0.0,0.0,0.0,0.0,0.0,0.0,0.0,0.0,0.0,0.0,0.0,0.0,0.0,0.0,0.0,0.0,0.0,0.0,-4.2919,-4.3012,-4.3086,-4.3104,-4.3142,-4.3178,-4.3178,-4.3178,-4.3178,-4.3142,-4.3086,-4.3012,-4.2919,-4.3068,-4.316,-4.3196,-4.3305,-4.3376,-4.3358,-4.3445,-4.348,-4.348,-4.3497,-4.3515,-4.3515,-4.3515,-4.3515,-4.3515,-4.3515,-4.3515,-4.3515,-4.3515,-4.3515,-4.3497,-4.348,-4.3497,-4.3479,-4.3463,-4.341,-4.3394,-4.3358,-4.3269,-4.316,-4.3123,-4.3123,-4.3123,-4.3068,-4.3067,-4.303,-4.2919,-4.2901,-4.2901,-4.2901,-4.2901,-4.2901,-4.2901,-4.2901,-4.2901,-4.2901,-4.2901,-4.2901,-4.2901,-4.2901,-4.2901,-4.2901,-4.2901,-4.2901,-4.2901,-4.2901,-4.2901,-4.2901,-4.2901,-4.2901,-4.2901,-4.2901,-4.2901,-4.2901,-4.2901,-4.2901,-4.2883,-4.223,-4.1887,-2.5485,0.0,-3.572,0.0,-4.1791,-4.2635,0.0,0.0,-4.3515,0.0,0.0,0.0,0.0,0.0,0.0,0.0,0.0,0.0,0.0,0.0,0.0,0.0,0.0,0.0,0.0,0.0,0.0,0.0,0.0,0.0,-4.2901,-4.2919,-4.2975,-4.3086,-4.3104,-4.3123,-4.3123,-4.3123,-4.3068,-4.2957,-4.2938,-4.2919,-4.2901,-4.2938,-4.2994,-4.3123,-4.3196,-4.3233,-4.3233,-4.3358,-4.3394,-4.3411,-4.348,-4.3515,-4.3515,-4.3515,-4.3515,-4.3515,-4.3515,-4.3515,-4.3515,-4.3515,-4.3515,-4.3497,-4.3429,-4.3445,-4.3444,-4.3286,-4.3323,-4.3358,-4.3251,-4.3178,-4.3104,-4.3104,-4.3012,-4.2938,-4.2938,-4.2938,-4.2919,-4.2901,-4.2901,-4.2901,-4.2901,-4.2901,-4.2901,-4.2901,-4.2901,-4.2901,-4.2901,-4.2901,-4.2901,-4.2901,-4.2901,-4.2901,-4.2901,-4.2901,-4.2901,-4.2901,-4.2901,-4.2901,-4.2901,-4.2901,-4.2901,-4.2901,-4.2901,-4.2901,-4.2901,-4.2901,-4.2901,-4.2901,-4.2792,-4.2375,-2.6355,-3.0803,-3.5188,0.0,-4.0691,-4.1846,-4.2635,0.0,0.0,0.0,0.0,0.0,0.0,0.0,0.0,0.0,0.0,0.0,0.0,0.0,0.0,0.0,0.0,0.0,0.0,0.0,0.0,0.0,0.0,-4.2901,-4.2901,-4.2901,-4.2938,-4.2994,-4.2994,-4.2994,-4.2994,-4.2994,-4.2957,-4.2901,-4.2901,-4.2901,-4.2901,-4.2901,-4.2938,-4.2994,-4.3105,-4.3142,-4.316,-4.3251,-4.3305,-4.3286,-4.3322,-4.3322,-4.3339,-4.3429,-4.3446,-4.3464,-4.3497,-4.3515,-4.3479,-4.3464,-4.3446,-4.341,-4.3323,-4.3304,-4.3304,-4.3214,-4.3215,-4.3215,-4.316,-4.3068,-4.2994,-4.2994,-4.2938,-4.2901,-4.2901,-4.2901,-4.2901,-4.2901,-4.2901,-4.2901,-4.2901,-4.2901,-4.2901,-4.2901,-4.2901,-4.2901,-4.2901,-4.2901,-4.2901,-4.2901,-4.2901,-4.2901,-4.2901,-4.2901,-4.2901,-4.2901,-4.2901,-4.2901,-4.2901,-4.2901,-4.2901,-4.2901,-4.2901,-4.2901,-4.2901,-4.2901,-4.2901,-4.2901,-4.2901,-4.2701,0.0,0.0,-3.2596,-3.6486,-3.8689,-4.0212,0.0,0.0,0.0,0.0,0.0,0.0,0.0,0.0,0.0,0.0,0.0,0.0,0.0,0.0,0.0,0.0,0.0,0.0,0.0,0.0,0.0,0.0,0.0,-4.2901,-4.2901,-4.2901,-4.2901,-4.2901,-4.2901,-4.2901,-4.2901,-4.2901,-4.2901,-4.2901,-4.2901,-4.2901,-4.2901,-4.2901,-4.2901,-4.2919,-4.3012,-4.3049,-4.3049,-4.3142,-4.3178,-4.3178,-4.3196,-4.3214,-4.3214,-4.3323,-4.334,-4.3358,-4.341,-4.341,-4.3428,-4.3376,-4.334,-4.3323,-4.3196,-4.3196,-4.3178,-4.3142,-4.3123,-4.3086,-4.3049,-4.2975,-4.2901,-4.2901,-4.2901,-4.2901,-4.2901,-4.2901,-4.2901,-4.2901,-4.2901,-4.2901,-4.2901,-4.2901,-4.2901,-4.2901,-4.2901,-4.2901,-4.2901,-4.2901,-4.2901,-4.2901,-4.2901,-4.2901,-4.2901,-4.2901,-4.2901,-4.2901,-4.2901,-4.2901,-4.2901,-4.2901,-4.2901,-4.2901,-4.2901,-4.2901,-4.2901,-4.2901,-4.2901,-4.2901,-4.2901,-4.2901,0.0,-2.5705,0.0,-3.2687,-3.5312,0.0,0.0,0.0,0.0,0.0,0.0,0.0,0.0,0.0,0.0,0.0,0.0,0.0,0.0,0.0,0.0,0.0,0.0,0.0,0.0,0.0,0.0,0.0,0.0,-4.2901,-4.2901,-4.2901,-4.2901,-4.2901,-4.2901,-4.2901,-4.2901,-4.2901,-4.2901,-4.2901,-4.2901,-4.2901,-4.2901,-4.2901,-4.2901,-4.2901,-4.2919,-4.2901,-4.2919,-4.3049,-4.3104,-4.3123,-4.3178,-4.3214,-4.3214,-4.3214,-4.3214,-4.3214,-4.3196,-4.3233,-4.3233,-4.3196,-4.3214,-4.3196,-4.3141,-4.316,-4.316,-4.2975,-4.2994,-4.3068,-4.2938,-4.2919,-4.2901,-4.2901,-4.2901,-4.2901,-4.2901,-4.2901,-4.2901,-4.2901,-4.2901,-4.2901,-4.2901,-4.2901,-4.2901,-4.2901,-4.2901,-4.2901,-4.2901,-4.2901,-4.2901,-4.2901,-4.2901,-4.2901,-4.2901,-4.2901,-4.2901,-4.2901,-4.2901,-4.2901,-4.2901,-4.2901,-4.2901,-4.2901,-4.2901,-4.2901,-4.2901,-4.2901,-4.2901,-4.2901,-4.2901,-4.2901,0.0,0.0,0.0,-2.9959,-3.2724,-3.5055,0.0,0.0,0.0,0.0,0.0,0.0,0.0,0.0,0.0,0.0,0.0,0.0,0.0,0.0,0.0,0.0,0.0,0.0,0.0,0.0,0.0,0.0,0.0,0.0,-4.2901,-4.2901,-4.2901,-4.2901,-4.2901,-4.2901,-4.2901,-4.2901,-4.2901,-4.2901,-4.2901,-4.2901,-4.2901,-4.2901,-4.2901,-4.2901,-4.2901,-4.2901,-4.2901,-4.2938,-4.2975,-4.2957,-4.2994,-4.3013,-4.3013,-4.3087,-4.3123,-4.3142,-4.3196,-4.3214,-4.3196,-4.316,-4.3123,-4.3123,-4.3012,-4.2975,-4.2976,-4.292,-4.2938,-4.2957,-4.2901,-4.2901,-4.2901,-4.2901,-4.2901,-4.2901,-4.2901,-4.2901,-4.2901,-4.2901,-4.2901,-4.2901,-4.2901,-4.2901,-4.2901,-4.2901,-4.2901,-4.2901,-4.2901,-4.2901,-4.2901,-4.2901,-4.2901,-4.2901,-4.2901,-4.2901,-4.2901,-4.2901,-4.2901,-4.2901,-4.2901,-4.2901,-4.2901,-4.2901,-4.2901,-4.2901,-4.2901,-4.2901,-4.2901,-4.2901,-4.2901,-4.2901,-2.2015,0.0,0.0,0.0,0.0,-3.2027,0.0,0.0,0.0,0.0,0.0,0.0,0.0,0.0,0.0,0.0,0.0,0.0,0.0,0.0,0.0,0.0,0.0,0.0,0.0,0.0,0.0,0.0,0.0,0.0,-4.2901,-4.2901,-4.2901,-4.2901,-4.2901,-4.2901,-4.2901,-4.2901,-4.2901,-4.2901,-4.2901,-4.2901,-4.2901,-4.2901,-4.2901,-4.2901,-4.2901,-4.2901,-4.2901,-4.2901,-4.2901,-4.2901,-4.2901,-4.2901,-4.2901,-4.2994,-4.303,-4.3049,-4.3068,-4.3105,-4.3087,-4.3049,-4.303,-4.303,-4.2938,-4.2901,-4.2901,-4.2901,-4.2901,-4.2901,-4.2901,-4.2901,-4.2901,-4.2901,-4.2901,-4.2901,-4.2901,-4.2901,-4.2901,-4.2901,-4.2901,-4.2901,-4.2901,-4.2901,-4.2901,-4.2901,-4.2901,-4.2901,-4.2901,-4.2901,-4.2901,-4.2901,-4.2901,-4.2901,-4.2901,-4.2901,-4.2901,-4.2901,-4.2901,-4.2901,-4.2901,-4.2901,-4.2901,-4.2901,-4.2901,-4.2901,-4.2901,-4.2901,-4.2901,-4.2901,-4.2901,-4.2901,0.0,0.0,0.0,0.0,0.0,0.0,0.0,0.0,0.0,0.0,0.0,0.0,0.0,0.0,0.0,0.0,0.0,0.0,0.0,0.0,0.0,0.0,0.0,0.0,0.0,0.0,0.0,0.0,0.0,-4.2901,-4.2901,-4.2901,-4.2901,-4.2901,-4.2901,-4.2901,-4.2901,-4.2901,-4.2901,-4.2901,-4.2901,-4.2901,-4.2901,-4.2901,-4.2901,-4.2901,-4.2901,-4.2901,-4.2901,-4.2901,-4.2901,-4.2901,-4.2901,-4.2901,-4.2901,-4.2901,-4.2901,-4.2901,-4.2901,-4.2901,-4.2901,-4.2901,-4.2901,-4.2901,-4.2901,-4.2901,-4.2901,-4.2901,-4.2901,-4.2901,-4.2901,-4.2901,-4.2901,-4.2901,-4.2901,-4.2901,-4.2901,-4.2901,-4.2901,-4.2901,-4.2901,-4.2901,-4.2901,-4.2901,-4.2901,-4.2901,-4.2901,-4.2901,-4.2901,-4.2901,-4.2901,-4.2901,-4.2901,-4.2901,-4.2901,-4.2901,-4.2901,-4.2901,-4.2901,-4.2901,-4.2901,-4.2901,-4.2901,-4.2901,-4.2901,-4.2901,-4.2901,-4.2901,-4.2901,-4.2901,-4.2901,-4.2901,-2.1532,0.0,0.0,0.0,0.0,0.0,0.0,0.0,0.0,0.0,0.0,0.0,0.0,0.0,0.0,0.0,0.0,0.0,0.0,0.0,0.0,0.0,0.0,0.0,0.0,0.0,0.0,0.0,-4.2901,-4.2901,-4.2901,-4.2901,-4.2901,-4.2901,-4.2901,-4.2901,-4.2901,-4.2901,-4.2901,-4.2901,-4.2901,-4.2901,-4.2901,-4.2901,-4.2901,-4.2901,-4.2901,-4.2901,-4.2901,-4.2901,-4.2901,-4.2901,-4.2901,-4.2901,-4.2901,-4.2901,-4.2901,-4.2901,-4.2901,-4.2901,-4.2901,-4.2901,-4.2901,-4.2901,-4.2901,-4.2901,-4.2901,-4.2901,-4.2901,-4.2901,-4.2901,-4.2901,-4.2901,-4.2901,-4.2901,-4.2901,-4.2901,-4.2901,-4.2901,-4.2901,-4.2901,-4.2901,-4.2901,-4.2901,-4.2901,-4.2901,-4.2901,-4.2901,-4.2901,-4.2901,-4.2901,-4.2901,-4.2901,-4.2901,-4.2901,-4.2901,-4.2901,-4.2901,-4.2901,-4.2901,-4.2901,-4.2901,-4.2901,-4.2901,-4.2901,-4.2901,-4.2901,-4.2901,-4.2901,-4.2901,-4.2901,-4.2901,0.0,0.0,0.0,0.0,0.0,0.0,0.0,-2.8086,0.0,0.0,0.0,0.0,0.0,0.0,0.0,0.0,0.0,0.0,0.0,0.0,0.0,0.0,0.0,0.0,0.0,0.0,0.0,-4.2901,-4.2901,-4.2901,-4.2901,-4.2901,-4.2901,-4.2901,-4.2901,-4.2901,-4.2901,-4.2901,-4.2901,-4.2901,-4.2901,-4.2901,-4.2901,-4.2901,-4.2901,-4.2901,-4.2901,-4.2901,-4.2901,-4.2901,-4.2901,-4.2901,-4.2901,-4.2901,-4.2901,-4.2901,-4.2901,-4.2901,-4.2901,-4.2901,-4.2901,-4.2901,-4.2901,-4.2901,-4.2901,-4.2901,-4.2901,-4.2901,-4.2901,-4.2901,-4.2901,-4.2901,-4.2901,-4.2901,-4.2901,-4.2901,-4.2901,-4.2901,-4.2901,-4.2901,-4.2901,-4.2901,-4.2901,-4.2901,-4.2901,-4.2901,-4.2901,-4.2901,-4.2901,-4.2901,-4.2901,-4.2901,-4.2901,-4.2901,-4.2901,-4.2901,-4.2901,-4.2901,-4.2901,-4.2901,-4.2901,-4.2901,-4.2901,-4.2901,-4.2901,-4.2901,-4.2901,-4.2901,-4.2901,-4.2901,-4.2901,-4.2901,0.0,0.0,0.0,0.0,0.0,0.0,-2.7785,-2.7449,0.0,0.0,0.0,0.0,0.0,0.0,0.0,0.0,0.0,0.0,0.0,0.0,0.0,0.0,0.0,0.0,0.0,-4.2755,-4.2792,-4.2901,-4.2901,-4.2901,-4.2901,-4.2901,-4.2901,-4.2901,-4.2901,-4.2901,-4.2901,-4.2901,-4.2901,-4.2901,-4.2901,-4.2901,-4.2901,-4.2901,-4.2901,-4.2901,-4.2901,-4.2901,-4.2901,-4.2901,-4.2901,-4.2901,-4.2901,-4.2901,-4.2901,-4.2901,-4.2901,-4.2901,-4.2901,-4.2901,-4.2901,-4.2901,-4.2901,-4.2901,-4.2901,-4.2901,-4.2901,-4.2901,-4.2901,-4.2901,-4.2901,-4.2901,-4.2901,-4.2901,-4.2901,-4.2901,-4.2901,-4.2901,-4.2901,-4.2901,-4.2901,-4.2901,-4.2901,-4.2901,-4.2901,-4.2901,-4.2901,-4.2901,-4.2901,-4.2901,-4.2901,-4.2901,-4.2901,-4.2901,-4.2901,-4.2901,-4.2901,-4.2901,-4.2901,-4.2901,-4.2901,-4.2901,-4.2901,-4.2901,-4.2901,-4.2901,-4.2901,-4.2901,-4.2901,-4.2901,-4.2901,-4.2901,-2.7719,0.0,0.0,0.0,0.0,0.0,-2.5538,-2.6169,0.0,0.0,0.0,0.0,0.0,0.0,0.0,0.0,0.0,0.0,0.0,0.0,0.0,0.0,0.0,0.0,0.0,-4.1922,-4.2212,-4.2865,-4.2901,-4.2901,-4.2901,-4.2901,-4.2901,-4.2901,-4.2901,-4.2901,-4.2901,-4.2901,-4.2901,-4.2901,-4.2901,-4.2901,-4.2901,-4.2901,-4.2901,-4.2901,-4.2901,-4.2901,-4.2901,-4.2901,-4.2901,-4.2901,-4.2901,-4.2901,-4.2901,-4.2901,-4.2901,-4.2901,-4.2901,-4.2901,-4.2901,-4.2901,-4.2901,-4.2901,-4.2901,-4.2901,-4.2901,-4.2901,-4.2901,-4.2901,-4.2901,-4.2901,-4.2901,-4.2901,-4.2901,-4.2901,-4.2901,-4.2901,-4.2901,-4.2901,-4.2901,-4.2901,-4.2901,-4.2901,-4.2901,-4.2901,-4.2901,-4.2901,-4.2901,-4.2901,-4.2901,-4.2901,-4.2901,-4.2901,-4.2901,-4.2901,-4.2901,-4.2901,-4.2901,-4.2901,-4.2901,-4.2901,-4.2901,-4.2901,-4.2901,-4.2901,-4.2901,-4.2901,-4.2901,-4.2901,-4.2901,-4.2901,-2.9331,0.0,0.0,-2.8753,0.0,0.0,0.0,0.0,-2.5943,0.0,0.0,0.0,0.0,0.0,0.0,0.0,0.0,0.0,0.0,0.0,0.0,0.0,0.0,0.0,0.0,-4.089,-4.127,-4.1669,-4.2067,-4.2303,-4.2303,-4.2683,-4.2901,-4.2901,-4.2901,-4.2901,-4.2901,-4.2901,-4.2901,-4.2901,-4.2901,-4.2901,-4.2882,-4.2653,-4.2537,-4.2537,-4.2537,-4.2537,-4.2575,-4.2806,-4.2901,-4.2901,-4.2901,-4.2901,-4.2901,-4.2901,-4.2901,-4.2901,-4.2901,-4.2901,-4.2901,-4.2901,-4.2901,-4.2901,-4.2901,-4.2901,-4.2901,-4.2901,-4.2901,-4.2901,-4.2901,-4.2901,-4.2901,-4.2901,-4.2901,-4.2901,-4.2901,-4.2901,-4.2901,-4.2901,-4.2901,-4.2901,-4.2901,-4.2901,-4.2901,-4.2901,-4.2901,-4.2901,-4.2901,-4.2901,-4.2901,-4.2901,-4.2901,-4.2901,-4.2901,-4.2901,-4.2901,-4.2901,-4.2901,-4.2901,-4.2901,-4.2901,-4.2901,-4.2901,-4.2901,-4.2901,-4.2901,-4.2901,-4.2901,-4.2901,-4.2901,-4.2901,0.0,0.0,0.0,0.0,0.0,-2.8247,0.0,0.0,0.0,-2.6654,0.0,0.0,0.0,0.0,0.0,0.0,0.0,0.0,0.0,0.0,0.0,0.0,0.0,0.0,0.0,-3.926,-3.984,-4.0438,-4.0673,-4.1053,-4.1669,-4.2321,-4.2737,-4.2901,-4.2901,-4.2901,-4.2901,-4.2901,-4.2901,-4.2901,-4.2901,-4.2844,-4.275,-4.2378,-4.2157,-4.2074,-4.2074,-4.2074,-4.2095,-4.2478,-4.2616,-4.2653,-4.2825,-4.2901,-4.2901,-4.2901,-4.2901,-4.2882,-4.2806,-4.2768,-4.275,-4.2673,-4.2692,-4.2768,-4.2768,-4.2825,-4.2901,-4.2901,-4.2901,-4.2901,-4.2901,-4.2901,-4.2901,-4.2901,-4.2901,-4.2882,-4.2769,-4.2768,-4.2731,-4.2653,-4.2616,-4.2692,-4.2863,-4.2901,-4.2901,-4.2901,-4.2901,-4.2901,-4.2901,-4.2901,-4.2901,-4.2901,-4.2901,-4.2901,-4.2901,-4.2901,-4.2901,-4.2901,-4.2901,-4.2901,-4.2901,-4.2901,-4.2901,-4.2901,-4.2901,-4.2901,-4.2901,-4.2901,-4.2901,-4.2901,-4.2901,-4.2901,0.0,0.0,0.0,0.0,-3.094,0.0,0.0,0.0,-2.6043,-2.5135,0.0,0.0,0.0,0.0,0.0,0.0,0.0,0.0,0.0,0.0,0.0,0.0,0.0,0.0,0.0,0.0,-3.7487,-4.0293,-3.8663,-3.8753,-4.1542,-4.1795,-4.2158,-4.2883,-4.2901,-4.2901,-4.2901,-4.2901,-4.2901,-4.2901,-4.2901,-4.2673,-4.2297,-4.2218,-4.1973,-4.1569,-4.1569,-4.1569,-4.1569,-4.1635,-4.1656,-4.1743,-4.2577,-4.2901,-4.2901,-4.2901,-4.2901,-4.2844,-4.2418,-4.2297,-4.2198,-4.1785,-4.1931,-4.2297,-4.2297,-4.2575,-4.2901,-4.2901,-4.2901,-4.2901,-4.2901,-4.2901,-4.2901,-4.2901,-4.2901,-4.2787,-4.2378,-4.2297,-4.2157,-4.1743,-4.1656,-4.1913,-4.2768,-4.2901,-4.2901,-4.2901,-4.2901,-4.2901,-4.2901,-4.2901,-4.2901,-4.2901,-4.2901,-4.2901,-4.2901,-4.2901,-4.2901,-4.2901,-4.2901,-4.2901,-4.2901,-4.2901,-4.2901,-4.2901,-4.2901,-4.2901,-4.2901,-4.2901,-4.2901,-4.2901,-4.2901,-4.2901,0.0,0.0,0.0,0.0,0.0,0.0,-2.6089,0.0,-2.4667,0.0,0.0,0.0,0.0,0.0,0.0,0.0,0.0,0.0,0.0,0.0,0.0,0.0,0.0,0.0,0.0,0.0,0.0,0.0,0.0,-3.7286,-3.955,-4.0945,-4.185,-4.2194,-4.2647,-4.2768,-4.2498,-4.2498,-4.236,-4.2098,-4.2098,-4.1994,-4.1764,-4.1499,-4.1276,-4.1094,-4.1094,-4.1094,-4.1116,-4.137,-4.1503,-4.1547,-4.1934,-4.2259,-4.2536,-4.2806,-4.2731,-4.2458,-4.2277,-4.2032,-4.176,-4.1569,-4.1635,-4.1803,-4.1803,-4.2136,-4.2498,-4.2498,-4.2692,-4.2901,-4.2901,-4.2901,-4.2901,-4.2901,-4.2901,-4.2768,-4.23,-4.2198,-4.2074,-4.1591,-4.1503,-4.1635,-4.2035,-4.232,-4.2595,-4.2863,-4.2901,-4.2901,-4.2901,-4.2653,-4.2498,-4.2498,-4.2498,-4.2498,-4.2498,-4.2731,-4.2901,-4.2901,-4.2901,-4.2901,-4.2901,-4.2634,-4.2614,-4.2882,-4.2634,-4.2634,-4.2901,-4.2901,-4.2901,-4.2901,-4.2901,-4.2901,-3.5091,0.0,0.0,0.0,0.0,0.0,0.0,0.0,0.0,0.0,0.0,0.0,0.0,0.0,0.0,0.0,0.0,0.0,0.0,0.0,0.0,0.0,0.0,0.0,0.0,0.0,0.0,0.0,0.0,0.0,-3.7738,-3.9496,-4.08,-4.1669,-4.2266,-4.2456,-4.2198,-4.2198,-4.1952,-4.1503,-4.1503,-4.1437,-4.1298,-4.0949,-4.0731,-4.0604,-4.0604,-4.0604,-4.0635,-4.0995,-4.1116,-4.1139,-4.1276,-4.1521,-4.1867,-4.234,-4.23,-4.1973,-4.1846,-4.1521,-4.1116,-4.1116,-4.119,-4.1321,-4.1321,-4.1652,-4.1994,-4.1994,-4.2259,-4.2518,-4.2518,-4.2596,-4.2711,-4.2711,-4.2711,-4.2577,-4.2115,-4.1927,-4.1674,-4.1208,-4.1116,-4.1162,-4.1298,-4.1696,-4.2177,-4.2634,-4.2711,-4.2711,-4.2711,-4.2418,-4.2157,-4.2032,-4.1994,-4.2074,-4.2177,-4.2498,-4.275,-4.2882,-4.2787,-4.2711,-4.2711,-4.2259,-4.2177,-4.2518,-4.2177,-4.2177,-4.2518,-4.2653,-4.2711,-4.2711,-4.2711,-4.2711,0.0,0.0,0.0,-3.0571,0.0,0.0,0.0,0.0,-2.6485,0.0,0.0,0.0,0.0,0.0,0.0,0.0,0.0,0.0,0.0,0.0,0.0,0.0,0.0,0.0,0.0,0.0,0.0,0.0,0.0,0.0,-3.6741,-3.7104,-3.8536,-4.1596,-4.1723,-4.1896,-4.2198,-4.2198,-4.1952,-4.1503,-4.1503,-4.1276,-4.0825,-4.0802,-4.0556,-4.0121,-4.0121,-4.0121,-4.0121,-4.0146,-4.0146,-4.0196,-4.0652,-4.0825,-4.0919,-4.137,-4.1525,-4.1459,-4.0995,-4.0531,-4.0146,-4.0146,-4.0458,-4.0825,-4.0825,-4.1139,-4.1525,-4.1525,-4.1525,-4.1547,-4.1547,-4.1888,-4.2218,-4.2218,-4.2218,-4.2095,-4.1613,-4.1162,-4.0707,-4.0246,-4.0146,-4.0279,-4.0731,-4.1208,-4.1678,-4.2157,-4.2218,-4.2218,-4.2218,-4.2198,-4.2032,-4.1569,-4.1525,-4.1717,-4.2157,-4.2198,-4.2418,-4.2863,-4.2478,-4.2218,-4.2218,-4.1782,-4.1525,-4.1547,-4.1525,-4.1525,-4.1547,-4.1994,-4.2218,-4.2218,-4.2218,-4.2218,0.0,0.0,-3.755,-3.3034,0.0,0.0,0.0,0.0,0.0,0.0,0.0,0.0,0.0,0.0,0.0,0.0,0.0,0.0,0.0,0.0,0.0,0.0,0.0,0.0,0.0,0.0,0.0,0.0,0.0,0.0,0.0,-3.6651,-3.8535,-4.013,-4.1162,-4.1707,-4.1743,-4.1739,-4.1366,-4.0563,-4.0563,-4.0483,-4.0328,-4.0328,-4.0254,-4.0096,-4.0096,-4.0096,-4.0096,-4.0096,-4.0096,-4.0138,-4.0279,-4.0328,-4.0434,-4.119,-4.1281,-4.0972,-4.0507,-4.0229,-4.0096,-4.0096,-4.0221,-4.0328,-4.0328,-4.0659,-4.1042,-4.1042,-4.1276,-4.1503,-4.1503,-4.1613,-4.1739,-4.1739,-4.1739,-4.1609,-4.1139,-4.0902,-4.0676,-4.0196,-4.0096,-4.0146,-4.0303,-4.0483,-4.0855,-4.163,-4.1739,-4.1739,-4.1739,-4.1477,-4.1208,-4.1065,-4.1042,-4.1094,-4.1271,-4.1565,-4.1785,-4.1955,-4.1807,-4.1739,-4.1739,-4.1298,-4.1185,-4.1481,-4.1185,-4.1185,-4.1503,-4.1656,-4.1739,-4.1739,-4.141,-4.1609,-3.8362,-3.8633,0.0,-3.4658,-3.3068,0.0,-2.7655,0.0,0.0,0.0,0.0,0.0,0.0,0.0,0.0,0.0,0.0,0.0,0.0,0.0,0.0,0.0,0.0,0.0,0.0,0.0,-2.595,-2.8353,0.0,0.0,0.0,0.0,-3.7267,-3.8933,-4.0311,-4.1044,-4.1078,-4.1181,-4.0855,-4.0096,-4.0096,-4.0096,-4.0096,-4.0096,-4.0096,-4.0096,-4.0096,-4.0096,-4.0096,-4.0096,-4.0096,-4.0096,-4.0096,-4.0096,-4.0171,-4.0784,-4.0808,-4.0507,-4.0196,-4.0096,-4.0096,-4.0096,-4.0096,-4.0096,-4.0096,-4.0303,-4.0556,-4.0556,-4.0761,-4.1001,-4.1001,-4.1139,-4.1253,-4.1253,-4.1253,-4.1162,-4.0873,-4.0659,-4.0458,-4.0171,-4.0096,-4.0096,-4.0096,-4.0096,-4.036,-4.1139,-4.1253,-4.1253,-4.1253,-4.0995,-4.0731,-4.058,-4.0556,-4.0628,-4.0778,-4.123,-4.1503,-4.1503,-4.1326,-4.1253,-4.1253,-4.0802,-4.0707,-4.1001,-4.0707,-4.0707,-4.1001,-4.1122,-4.119,-4.1253,-4.1047,-4.123]},{"header":{"parameterUnit":"m.s-1","parameterCategory":1,"la1":30.6,"la2":29.2853,"lo1":-89.7004,"lo2":-87.6739,"dy":0.0162,"dx":0.0183,"nx":112,"ny":82,"refTime":"2024-05-29T06:00:00:Z","depth":0,"parameterNumber":3,"parameterNumberName":"V-component_of_WINDS"},"data":[0.0,0.0,0.0,0.0,0.0,0.0,0.0,0.0,0.0,0.0,0.0,0.0,0.0,0.0,0.0,0.0,0.0,0.0,0.0,0.0,0.0,0.0,0.0,0.0,0.0,0.0,0.0,0.0,0.0,0.0,0.0,0.0,0.0,0.0,0.0,0.0,0.0,0.0,0.0,0.0,0.0,0.0,0.0,0.0,0.0,0.0,0.0,0.0,0.0,0.0,0.0,0.0,0.0,0.0,0.0,0.0,0.0,0.0,0.0,0.0,0.0,0.0,0.0,0.0,0.0,0.0,0.0,0.0,0.0,0.0,0.0,0.0,0.0,0.0,0.0,0.0,0.0,0.0,0.0,0.0,0.0,0.0,0.0,0.0,0.0,0.0,0.0,0.0,0.0,0.0,0.0,1.279,1.3348,1.384,1.4337,1.4264,1.3464,1.1856,0.0,0.0,0.0,0.0,0.0,0.0,0.0,0.0,0.0,0.0,0.0,0.0,0.0,0.0,0.0,0.0,0.0,0.0,0.0,0.0,0.0,0.0,0.0,0.0,0.0,0.0,0.0,0.0,0.0,0.0,0.0,0.0,0.0,0.0,0.0,0.0,0.0,0.0,0.0,0.0,0.0,0.0,0.0,0.0,0.0,0.0,0.0,0.0,0.0,0.0,0.0,0.0,0.0,0.0,0.0,0.0,0.0,0.0,0.0,0.0,0.0,0.0,0.0,0.0,0.0,0.0,0.0,0.0,0.0,0.0,0.0,0.0,0.0,0.0,0.0,0.0,0.0,0.0,0.0,0.0,0.0,0.0,0.0,0.0,0.0,0.0,0.0,0.0,0.0,0.0,0.0,0.0,0.0,0.0,0.0,0.0,0.0,0.0,0.0,0.0,0.0,0.0,0.0,0.0,1.0843,1.307,1.3387,1.3571,1.3888,1.3945,1.3393,1.2129,0.0,0.0,0.0,0.0,0.0,0.0,0.0,0.0,0.0,0.0,0.0,0.0,0.0,0.0,0.0,0.0,0.0,0.0,0.0,0.0,0.0,0.0,0.0,0.0,0.0,0.0,0.0,0.0,0.0,0.0,0.0,0.0,0.0,0.0,0.0,0.0,0.0,0.0,0.0,0.0,0.0,0.0,0.0,0.0,0.0,0.0,0.0,0.0,0.0,0.0,0.0,0.0,0.0,0.0,0.0,0.0,0.0,0.0,0.0,0.0,0.0,0.0,0.0,0.0,0.0,0.0,0.0,0.0,0.0,0.0,0.0,0.0,0.0,0.0,0.0,0.0,0.0,0.0,0.0,0.0,0.0,0.0,0.0,0.0,0.0,0.0,0.0,0.0,0.0,0.0,0.0,0.0,0.0,0.0,0.0,0.0,0.0,0.0,0.0,0.0,0.0,0.0,0.0,1.0171,1.1063,1.2887,1.2869,1.294,1.343,1.3429,1.2825,1.1429,1.0491,0.0,0.0,0.0,0.0,0.0,0.0,0.0,0.0,0.0,0.0,0.0,0.0,0.0,0.0,0.0,0.0,0.0,0.0,0.0,0.0,0.0,0.0,0.0,0.0,0.0,0.0,0.0,0.0,0.0,0.0,0.0,0.0,0.0,0.0,0.0,0.0,0.0,0.0,0.0,0.0,0.0,0.0,0.0,0.0,0.0,0.0,0.0,0.0,0.0,0.0,0.0,0.0,0.0,0.0,0.0,0.0,0.0,0.0,0.0,0.0,0.0,0.0,0.0,0.0,0.0,0.0,0.0,0.0,0.0,0.0,0.0,0.0,0.0,0.0,0.0,0.0,0.0,0.0,0.0,0.0,0.0,0.0,0.0,0.0,0.0,0.0,0.0,0.0,0.0,0.0,0.0,0.0,0.0,0.0,0.0,0.0,0.0,0.0,0.0,0.0,0.0,0.0,1.1147,1.1626,1.2596,1.2439,1.2485,1.3059,1.2745,1.1987,1.0712,0.9729,0.0,0.0,0.0,0.0,0.0,0.0,0.0,0.0,0.0,0.0,0.0,0.0,0.0,0.0,0.0,0.0,0.0,0.0,0.0,0.0,0.0,0.0,0.0,0.0,0.0,0.0,0.0,0.0,0.0,0.0,0.0,0.0,0.0,0.0,0.0,0.0,0.0,0.0,0.0,0.0,0.0,0.0,0.0,0.0,0.0,0.0,0.0,0.0,0.0,0.0,0.0,0.0,0.0,0.0,0.0,0.0,0.0,0.0,0.0,0.0,0.0,0.0,0.0,0.0,0.0,0.0,0.0,0.0,0.0,0.0,0.0,0.0,0.0,0.0,0.0,0.0,0.0,0.0,0.0,0.0,0.0,0.0,0.0,0.0,0.0,0.0,0.0,0.0,0.0,0.0,0.0,0.0,0.0,0.0,0.0,0.0,0.0,0.0,0.0,0.0,0.0,0.0,1.1219,1.2331,1.2408,1.2391,1.2501,1.2803,1.1804,1.093,1.0459,0.914,0.0,0.0,0.0,0.0,0.0,0.0,0.0,0.0,0.0,0.0,0.0,0.0,0.0,0.0,0.0,0.0,0.0,0.0,0.0,0.0,0.0,0.0,0.0,0.0,0.0,0.0,0.0,0.0,0.0,0.0,0.0,0.0,0.0,0.0,0.0,0.0,0.0,0.0,0.0,0.0,0.0,0.0,0.0,0.0,0.0,0.0,0.0,0.0,0.0,0.0,0.0,0.0,0.0,0.0,0.0,0.0,0.0,0.0,0.0,0.0,0.0,0.0,0.0,0.0,0.0,0.0,0.0,0.0,0.0,0.0,0.0,0.0,0.0,0.0,0.0,0.0,0.0,0.0,0.0,0.0,0.0,0.0,0.0,0.0,0.0,0.0,0.0,0.0,0.0,0.0,0.0,0.0,0.0,0.0,0.0,0.0,0.0,0.0,0.0,0.0,0.0,0.0,1.0112,1.1124,0.0,1.1728,1.1831,1.2713,1.1973,1.1072,1.0213,0.0,0.0,0.0,0.0,0.0,0.0,0.0,0.0,0.0,0.0,0.0,0.0,0.0,0.0,0.0,0.0,0.0,0.0,0.0,0.0,0.0,0.0,0.0,0.0,0.0,0.0,0.0,0.0,0.0,0.0,0.0,0.0,0.0,0.0,0.0,0.0,0.0,0.0,0.0,0.0,0.0,0.0,0.0,0.0,0.0,0.0,0.0,0.0,0.0,0.0,0.0,0.0,0.0,0.0,0.0,0.0,0.0,0.0,0.0,0.0,0.0,0.0,0.0,0.0,0.0,0.0,0.0,0.0,0.0,0.0,0.0,0.0,0.0,0.0,0.0,0.0,0.0,0.0,0.0,0.0,0.0,0.0,0.0,0.0,0.0,0.0,0.0,0.0,0.0,0.0,0.0,0.0,0.0,0.0,0.0,0.0,0.0,0.0,0.0,0.0,0.0,0.0,0.9009,1.0,1.1047,0.0,1.178,1.1783,1.2859,1.2018,1.1036,1.0065,0.0,0.0,0.0,0.0,0.0,0.0,0.0,0.0,0.0,0.0,0.0,0.0,0.0,0.0,0.0,0.0,0.0,0.0,0.0,0.0,0.0,0.0,0.0,0.0,0.0,0.0,0.0,0.0,0.0,0.0,0.0,0.0,0.0,0.0,0.0,0.0,0.0,0.0,0.0,0.0,0.0,0.0,0.0,0.0,0.0,0.0,0.0,0.0,0.0,0.0,0.0,0.0,0.0,0.0,0.0,0.0,0.0,0.0,0.0,0.0,0.0,0.0,0.0,0.0,0.0,0.0,0.0,0.0,0.0,0.0,0.0,0.0,0.0,0.0,0.0,0.0,0.0,0.0,0.0,0.0,0.0,0.0,0.0,0.0,0.0,0.0,0.0,0.0,0.0,0.0,0.0,0.0,0.0,0.0,0.0,0.0,0.0,0.0,0.0,0.0,0.0,0.0,0.9592,1.1214,1.2555,1.3213,1.2671,1.2564,1.3223,1.1825,1.0634,0.0,0.0,0.0,0.0,0.0,0.0,0.0,0.0,0.0,0.0,0.0,0.0,0.0,0.0,0.0,0.0,0.0,0.0,0.0,0.0,0.0,0.0,0.0,0.0,0.0,0.0,0.0,0.0,0.0,0.0,0.0,0.0,0.0,0.0,0.0,0.0,0.0,0.0,0.0,0.0,0.0,0.0,0.0,0.0,0.0,0.0,0.0,0.0,0.0,0.0,0.0,0.0,0.0,0.0,0.0,0.0,0.0,0.0,0.0,0.0,0.0,0.0,0.0,0.0,0.0,0.0,0.0,0.0,0.0,0.0,0.0,0.0,0.0,0.0,0.0,0.0,0.0,0.0,0.0,0.0,0.0,0.0,0.0,0.0,0.0,0.0,0.0,0.0,0.0,0.0,0.0,0.0,0.0,0.0,0.0,0.0,0.0,0.0,0.0,0.0,0.0,0.0,0.0,0.914,1.1016,1.2149,1.1728,1.1537,1.1601,1.1916,1.1319,1.058,0.9845,0.0,0.0,0.0,0.0,0.0,0.0,0.0,0.0,0.0,0.0,0.0,0.0,0.0,0.0,0.0,0.0,0.0,0.0,0.0,0.0,0.0,0.0,0.0,0.0,0.0,0.0,0.0,0.0,0.0,0.0,0.0,0.0,0.0,0.0,0.0,0.0,0.0,0.0,0.0,0.0,0.0,0.0,0.0,0.0,0.0,0.0,0.0,0.0,0.0,0.0,0.0,0.0,0.0,0.0,0.0,0.0,0.0,0.0,0.0,0.0,0.0,0.0,0.0,0.0,0.0,0.0,0.0,0.0,0.0,0.0,0.0,0.0,0.0,0.0,0.0,0.0,0.0,0.0,0.0,0.0,0.0,0.0,0.0,0.0,0.0,0.0,0.0,0.0,0.0,0.0,0.0,0.0,0.0,0.0,0.0,0.0,0.0,0.0,0.0,0.0,0.0,0.0,0.927,1.1089,1.2202,1.1949,1.1696,1.1751,1.211,1.1671,1.0965,1.0013,0.0,0.0,0.0,0.0,0.0,0.0,0.0,0.0,0.0,0.0,0.0,0.0,0.0,0.0,0.0,0.0,0.0,0.0,0.0,0.0,0.0,0.0,0.0,0.0,0.0,0.0,0.0,0.0,0.0,0.0,0.0,0.0,0.0,0.0,0.0,0.0,0.0,0.0,0.0,0.0,0.0,0.0,0.0,0.0,0.0,0.0,0.0,0.0,0.0,0.0,0.0,0.0,0.0,0.0,0.0,0.0,0.0,0.0,0.0,0.0,0.0,0.0,0.0,0.0,0.0,0.0,0.0,0.0,0.0,0.0,0.0,0.0,0.0,0.0,0.0,0.0,0.0,0.0,0.0,0.0,0.0,0.0,0.0,0.0,0.0,0.0,0.0,0.0,0.0,0.0,0.0,0.0,0.0,0.0,0.0,0.0,0.0,0.0,0.0,0.0,0.0,0.0,0.9677,1.1235,1.2432,1.2968,1.252,1.2378,1.295,1.2336,1.1468,1.0334,0.0,0.0,0.0,0.0,0.0,0.0,0.0,0.0,0.0,0.0,0.0,0.0,0.0,0.0,0.0,0.0,0.0,0.0,0.0,0.0,0.0,0.0,0.0,0.0,0.0,0.0,0.0,0.0,0.0,0.0,0.0,0.0,0.0,0.0,0.0,0.0,0.0,0.0,0.0,0.0,0.0,0.0,0.0,0.0,0.0,0.0,0.0,0.0,0.0,0.0,0.0,0.0,0.0,0.0,0.0,0.0,0.0,0.0,0.0,0.0,1.1504,0.0,0.0,0.0,0.0,0.0,0.0,0.0,0.0,0.0,0.0,0.0,0.0,0.0,0.0,0.0,0.0,0.0,0.0,0.0,0.0,0.0,0.0,0.0,0.0,0.0,0.0,0.0,0.0,0.0,0.0,0.0,0.0,0.0,0.0,0.0,0.0,0.0,0.0,0.0,0.0,0.0,0.9075,1.0639,1.1511,1.1133,1.1059,1.0971,1.079,1.0773,1.0565,1.0097,0.9374,0.0,0.0,0.0,0.0,0.0,0.0,0.0,0.0,0.0,0.0,0.0,0.0,0.0,0.0,0.0,0.0,0.0,0.0,0.0,0.0,0.0,0.0,0.0,0.0,0.0,0.0,0.0,0.0,0.0,0.0,0.0,0.0,0.0,0.0,0.0,0.0,0.0,0.0,0.0,0.0,0.0,0.0,0.0,0.0,0.0,0.0,0.0,0.0,0.0,0.0,0.0,0.0,0.0,0.0,0.0,0.0,0.0,0.0,0.0,0.0,1.2113,0.0,0.0,0.0,0.0,0.0,0.0,0.0,0.0,0.0,0.0,0.0,0.0,0.0,0.0,0.0,0.0,0.0,0.0,0.0,0.0,0.0,0.0,0.0,0.0,0.0,0.0,0.0,0.0,0.0,0.0,0.0,0.0,0.0,0.0,0.0,0.0,0.0,0.0,0.0,0.0,0.9318,1.0881,1.1684,1.122,1.1106,1.1002,1.0791,1.054,1.0267,0.9928,0.9482,0.0,0.0,0.0,0.0,0.0,0.0,0.0,0.0,0.0,0.0,0.0,0.0,0.0,0.0,0.0,0.0,0.0,0.0,0.0,0.0,0.0,0.0,0.0,0.0,0.0,0.0,0.0,0.0,0.0,0.0,0.0,0.0,0.0,0.0,0.0,0.0,0.0,0.0,0.0,0.0,0.0,0.0,0.0,0.0,0.0,0.0,0.0,0.0,0.0,0.0,0.0,0.0,0.0,1.6196,1.6678,1.7354,1.7354,1.7393,1.7311,1.4866,1.408,1.4466,0.0,0.0,0.0,0.0,0.0,0.0,0.0,0.0,0.0,0.0,0.0,0.0,0.0,0.0,0.0,0.0,0.0,0.0,0.0,0.0,0.0,0.0,0.0,0.0,0.0,1.2667,1.2345,0.0,0.0,0.0,0.0,0.0,0.0,0.0,0.0,0.0,0.0,0.0,0.0,0.965,1.0973,1.1809,1.1696,1.1387,1.1177,1.1177,1.0615,1.0119,0.9796,0.951,0.911,0.0,0.0,0.0,0.0,0.0,0.0,0.0,0.0,0.0,0.0,0.0,0.0,0.0,0.0,0.0,0.0,0.0,0.0,0.0,0.0,0.0,0.0,0.0,0.0,0.0,0.0,0.0,0.0,0.0,0.0,0.0,0.0,1.2534,1.2812,0.0,0.0,0.0,0.0,0.0,0.0,0.0,0.0,0.0,0.0,0.0,0.0,0.0,1.5682,1.6545,1.7434,1.7662,1.7245,1.8901,1.9502,1.915,1.915,1.9352,1.9583,1.8052,0.0,1.5425,1.4458,0.0,0.0,0.0,0.0,0.0,0.0,0.0,0.0,0.0,0.0,0.0,0.0,0.0,0.0,0.0,0.0,0.0,0.0,0.0,0.0,0.0,0.0,1.413,1.4176,1.3676,1.316,0.0,1.1734,1.0616,1.0144,0.8989,0.0,0.0,0.0,0.0,0.0,0.0,0.0,0.9153,0.9727,1.0241,1.0715,1.0276,0.994,0.994,0.9805,0.967,0.9633,0.9381,0.94,0.9742,0.8012,0.0,0.0,0.0,0.0,0.0,0.0,0.0,0.0,0.0,0.0,0.0,0.0,0.0,0.0,0.0,0.0,0.0,0.0,0.0,0.0,0.0,0.0,0.0,0.0,0.0,0.0,0.0,0.0,0.0,1.27,1.4215,1.3719,1.3938,1.3961,0.0,0.0,0.0,0.0,0.0,0.0,0.0,0.0,0.0,1.6987,1.737,1.7816,1.8296,1.8986,1.9162,1.8862,1.9665,2.0052,2.0077,2.0077,2.018,2.0298,1.9703,1.8911,1.7941,1.6416,1.5176,1.4192,0.0,0.0,0.0,0.0,1.3359,1.3892,1.4506,1.4451,0.0,1.4076,0.0,0.0,0.0,0.0,0.0,0.0,0.0,0.0,0.0,0.0,0.0,1.512,1.4594,1.4041,1.4041,1.2949,1.1745,0.0,1.0447,0.9682,0.8235,0.0,0.0,0.0,0.0,0.8679,0.9395,0.9995,1.0435,1.0577,1.0064,0.9715,0.9715,0.9357,0.9159,0.9159,0.9333,0.9428,0.9438,0.8658,0.7975,0.0,0.0,0.0,0.0,0.0,0.0,0.0,0.0,0.0,0.0,0.0,0.0,0.0,0.0,0.0,0.0,0.0,0.0,0.0,0.0,0.0,0.0,0.0,0.0,0.0,0.0,0.0,0.0,1.3863,1.5265,1.446,1.5356,1.5618,0.0,0.0,0.0,0.0,0.0,0.0,1.6719,1.6964,1.7546,1.8582,1.9111,1.95,1.9673,2.0033,2.0189,2.0186,2.0186,2.0397,2.079,2.079,2.079,2.0781,2.0714,2.0461,2.0049,1.8265,1.6982,1.6083,1.5395,1.5065,1.4974,1.4974,1.5285,1.5799,1.6404,1.6413,1.612,1.5936,0.0,1.4851,1.3329,0.0,0.0,0.0,0.0,1.4026,1.4848,1.505,1.512,1.5468,1.4951,1.441,1.432,1.3519,1.258,0.0,1.1555,1.0974,0.9375,0.0,0.0,0.0,0.0,0.9348,0.9751,1.0324,1.0672,1.0622,1.0064,0.9715,0.9715,0.9145,0.8804,0.8804,0.9185,0.9339,0.9152,0.9052,0.8611,0.7779,0.0,0.0,0.0,0.0,0.0,0.0,0.0,0.0,0.0,0.0,0.0,0.0,0.0,0.0,0.0,0.0,0.0,0.0,0.0,0.0,0.0,0.0,0.0,0.0,0.0,0.0,0.0,0.0,0.0,1.5384,1.6944,0.0,0.0,0.0,0.0,1.6337,1.7045,1.7625,1.7983,1.843,1.9052,1.9773,1.9837,2.0049,2.042,2.0448,2.0659,2.1044,2.1044,2.1273,2.1632,2.1632,2.1632,2.1604,2.1255,2.1062,2.0952,1.9696,1.8476,1.7367,1.6945,1.656,1.6196,1.6196,1.6716,1.7376,1.7422,1.7422,1.7468,1.7816,1.744,1.656,1.5391,1.4686,0.0,0.0,1.3434,1.3897,1.4702,1.492,1.4964,1.5083,1.4528,1.3889,1.3622,1.3205,1.2849,0.0,1.1767,1.0828,1.0479,0.0,0.9131,0.9144,0.9185,0.9412,0.999,1.0107,1.0258,1.0559,1.0064,0.9715,0.9715,0.9145,0.8804,0.8804,0.8831,0.9054,0.954,0.8853,0.8345,0.8173,0.7063,0.0,0.0,0.0,0.0,0.0,0.0,0.0,0.0,0.0,0.0,0.0,0.0,0.0,0.0,0.0,0.0,0.0,0.0,0.0,0.0,0.0,0.0,0.0,0.0,0.0,0.0,0.0,0.0,1.6569,1.7759,0.0,1.6948,1.7432,1.7988,1.8378,1.888,1.9333,1.9754,2.0281,2.0592,2.0668,2.1076,2.1315,2.1257,2.1257,2.133,2.1511,2.1511,2.1549,2.1696,2.1696,2.1696,2.1678,2.1531,2.1511,2.1431,2.1,2.0113,1.9045,1.8907,1.8557,1.8275,1.8502,1.8786,1.9024,1.9024,1.8889,1.8595,1.82,1.7743,1.7221,1.6793,1.6544,1.621,1.5386,1.5411,1.5638,1.5366,1.5277,1.5307,1.5345,1.4736,1.4074,1.3836,1.3282,1.2753,1.2501,1.2162,1.1632,1.094,1.0435,1.0027,0.9804,0.977,0.985,1.0057,1.0281,1.0472,1.0579,1.02,0.9886,0.9729,0.9319,0.8978,0.8818,0.8804,0.8883,0.9087,0.8808,0.8445,0.8024,0.7435,0.6609,0.0,0.0,0.0,0.0,0.0,0.0,0.0,0.0,0.0,0.0,0.0,0.0,0.0,0.0,0.0,0.0,0.0,0.0,0.0,0.0,0.0,0.0,0.0,0.0,0.0,0.0,1.7694,1.7419,1.8821,1.9365,1.82,1.8854,1.9458,1.9803,2.0027,2.0367,2.0821,2.1165,2.1334,2.13,2.1721,2.1905,2.1687,2.1696,2.1696,2.1696,2.1696,2.1696,2.1696,2.1696,2.1696,2.1696,2.1696,2.1696,2.1696,2.1696,2.122,2.0479,2.0342,2.0072,1.9742,1.9985,1.992,1.9588,1.9237,1.8929,1.8606,1.7979,1.7595,1.7287,1.6764,1.6706,1.6586,1.5591,1.5591,1.5748,1.518,1.5021,1.4991,1.4887,1.4464,1.3991,1.3719,1.3196,1.2723,1.2529,1.2329,1.2026,1.1424,1.1042,1.0788,1.0588,1.0474,1.0414,1.0414,1.0533,1.0593,1.0593,1.0294,1.0,0.9706,0.9384,0.9091,0.8824,0.8804,0.8804,0.8804,0.8711,0.8405,0.7841,0.7323,0.6753,0.6095,0.0,0.0,0.0,0.0,0.0,0.0,0.0,0.0,0.0,0.0,0.0,0.0,0.0,0.0,0.0,0.0,0.0,0.0,0.0,0.0,0.0,0.0,0.0,1.531,1.7177,1.8404,1.7849,2.0166,2.1135,1.951,2.0674,2.1239,2.06,2.0558,2.0723,2.1108,2.1126,2.131,2.1678,2.1696,2.1696,2.1696,2.1696,2.1696,2.1696,2.1696,2.1696,2.1696,2.1696,2.1696,2.1696,2.1696,2.1696,2.1696,2.1696,2.1696,2.165,2.1282,2.0897,2.0558,2.0558,1.9947,1.8998,1.8024,1.766,1.7553,1.7206,1.7104,1.6844,1.5409,1.5201,1.5218,1.4022,1.3903,1.4124,1.413,1.4088,1.4015,1.3686,1.362,1.354,1.3287,1.3025,1.2804,1.279,1.2321,1.1933,1.1919,1.1637,1.1409,1.1409,1.1182,0.0,1.0995,1.0774,1.0593,1.0593,1.0301,1.0013,0.9726,0.9397,0.9098,0.8838,0.8811,0.8804,0.8804,0.8563,0.8194,0.7739,0.6734,0.6334,0.6507,0.0,0.0,0.0,0.0,0.0,0.0,0.0,0.0,0.0,0.0,0.0,0.0,0.0,0.0,0.0,0.0,0.0,0.0,0.0,0.0,0.0,0.0,1.8126,1.7887,1.8567,1.9334,1.9866,2.0722,2.1117,2.0631,2.1219,2.1577,2.1401,2.1357,2.1403,2.1513,2.1522,2.1577,2.1687,2.1696,2.1696,2.1696,2.1696,2.1696,2.1696,2.1696,2.1696,2.1696,2.1696,2.1696,2.1696,2.1696,2.1696,2.1696,2.1696,2.1696,2.1678,2.1568,2.1458,2.1357,2.1357,2.0597,1.9503,1.9232,1.8436,1.7593,1.749,1.7459,1.7337,1.6687,1.6575,1.6373,1.5226,1.4955,1.4908,1.425,1.4088,1.4068,1.3981,1.3968,1.3888,1.3547,1.3413,1.3267,1.2871,1.265,1.2476,1.2218,1.1937,1.175,1.175,1.1316,0.0,1.0995,1.0774,1.0593,1.0593,1.0519,1.0314,1.002,0.9726,0.9439,0.9111,0.8898,0.8804,0.8804,0.8731,0.855,0.8207,0.7452,0.6942,0.0,0.0,0.0,0.0,0.0,0.0,0.0,0.0,0.0,0.0,0.0,0.0,0.0,0.0,0.0,0.0,0.0,0.0,0.0,0.0,0.0,0.0,1.8367,1.963,2.005,2.0176,2.0389,2.0889,2.116,2.1374,2.1374,2.1549,2.176,2.1925,2.1934,2.2016,2.219,2.2199,2.2199,2.2199,2.2199,2.2117,2.1934,2.1934,2.1861,2.1696,2.1696,2.1696,2.1696,2.1696,2.1696,0.0,2.1696,2.1696,2.1696,2.1696,2.1463,0.0,0.0,0.0,0.0,0.0,1.9352,1.863,1.8214,1.7538,1.6816,1.6721,1.6684,1.6625,1.6293,1.6197,1.6044,1.5269,1.5014,1.4859,1.4242,1.4088,1.4088,1.4088,1.4088,1.4041,1.3868,1.3693,1.35,1.3193,1.2958,0.0,1.2556,1.2245,1.2087,1.2087,1.1657,1.1316,1.1189,1.0922,1.0727,1.0606,1.0593,1.0472,1.014,0.9846,0.0,0.0,0.0,0.8751,0.8631,0.8566,0.0,0.0,0.0,0.0,0.0,0.0,0.0,0.0,0.6328,0.5927,0.0,0.0,0.0,0.0,0.0,0.0,0.0,0.0,0.0,0.0,0.0,0.0,0.0,0.0,0.0,0.0,1.9995,2.078,2.1622,2.1682,2.1485,2.1181,2.1467,2.1696,2.1696,2.1733,2.1906,2.2254,2.2318,2.251,2.2885,0.0,0.0,0.0,0.0,2.273,2.2355,2.2355,2.2153,2.176,2.176,2.1733,2.1696,2.1696,2.1696,2.1696,2.1696,2.1696,2.1696,2.1696,2.1132,2.0393,2.1087,2.0943,2.0068,1.8149,1.7466,1.7326,1.6298,0.0,0.0,1.5531,1.5444,1.5391,1.5149,1.5062,1.4995,1.4656,1.4543,1.4462,1.4202,1.4115,1.4088,1.4088,1.4088,1.4088,1.4088,1.3881,1.3646,1.3613,1.3213,1.2864,1.2797,1.2536,1.2305,1.2305,1.2058,1.177,1.1475,1.1189,1.0895,1.0667,0.0,0.0,1.0187,0.99,0.9606,0.9284,0.8958,0.8691,0.8456,0.8335,0.8335,0.8449,0.8215,0.8313,0.8778,0.8321,0.7889,0.7463,0.6543,0.6152,0.0,0.0,0.0,0.0,0.0,0.0,0.0,0.0,0.0,0.0,0.0,0.0,0.0,0.0,0.0,1.9956,2.1186,2.1922,2.1607,2.1926,2.2054,2.1656,2.1641,2.1696,2.1696,2.198,2.2199,2.2272,2.2593,2.2821,2.2904,2.2904,2.2904,2.2904,2.2904,2.2867,2.2785,2.2785,2.2574,2.2163,0.0,0.0,2.1696,2.1696,2.1696,2.1696,2.1696,2.1696,2.1696,2.1696,2.1132,2.0249,1.9613,1.9749,2.0158,1.8926,1.8519,1.838,1.7372,1.6487,1.5771,1.5718,1.5698,1.5691,1.5398,1.5311,0.0,1.4957,1.4703,1.4502,1.4449,1.4262,1.4088,1.4088,1.4088,1.4088,1.4088,1.4041,1.3928,1.3646,1.3507,1.332,1.2864,1.2536,1.2305,1.2305,1.2058,1.1886,1.1826,1.1323,1.0969,1.0915,1.0734,1.0566,1.0512,1.02,0.9907,0.9619,0.9098,0.8784,0.8724,0.8698,0.8698,0.8724,0.8672,0.8639,0.8633,0.7957,0.7524,0.7331,0.7024,0.639,0.0,0.0,0.0,0.0,0.0,0.0,0.0,0.0,0.0,0.0,0.0,1.7373,0.0,0.0,2.0245,2.1094,2.189,2.2203,2.1839,2.2045,2.2087,2.1741,2.1696,2.1769,2.1961,2.2163,2.2446,2.2858,2.3078,2.3288,2.3547,2.3556,2.3556,2.3556,2.3556,2.3455,2.3197,2.3197,2.2895,2.2282,2.2282,2.2071,2.1696,2.1696,2.1696,2.1696,2.1696,2.141,2.0907,1.9894,1.9209,1.8696,1.7677,1.7909,1.8696,1.7684,1.7311,1.7217,1.6716,1.6204,1.5784,1.5784,1.5784,1.5751,1.5658,1.5611,1.5551,1.5264,1.507,1.4923,1.4783,1.4522,1.4302,1.4302,1.4195,1.4088,1.4088,1.4088,1.4041,1.3895,1.3706,1.346,1.3053,1.2764,1.2472,1.2325,1.2178,1.2037,1.1926,1.1651,1.1316,1.1022,1.0894,1.0754,1.06,1.0287,0.9927,0.9492,0.9158,0.8931,0.8811,0.8804,0.8804,0.8804,0.8804,0.8745,0.86,0.7931,0.7371,0.6942,0.661,0.6086,0.0,0.0,0.0,0.0,0.0,0.0,0.0,0.0,1.6465,1.7486,1.8281,1.9102,2.0215,2.0703,2.1278,2.2206,2.2346,2.2289,2.2183,2.2141,2.2008,2.1731,2.1696,2.1851,2.2245,2.2355,2.2702,2.3444,2.3563,2.3804,2.4183,2.4202,2.4202,2.4202,2.4202,2.4045,2.3618,2.3657,2.3242,2.2519,2.2519,2.2309,2.1925,2.1842,2.1806,2.1806,2.1723,2.1177,2.0158,1.8565,1.7652,1.7232,1.6393,1.6487,1.6911,1.6109,1.592,1.6062,1.5872,1.5784,1.5784,1.5784,1.5784,1.5784,1.5784,1.5784,1.5731,1.5545,1.5438,1.5344,1.511,1.4783,1.4522,1.4522,1.4302,1.4088,1.4088,1.4088,1.4088,1.4088,1.3895,1.36,1.3347,1.3079,1.275,1.2358,1.2305,1.2218,1.202,1.194,1.1698,1.1136,1.1022,1.0875,1.062,1.0287,0.9884,0.9411,0.9331,0.9191,0.8985,0.8978,0.8978,0.8978,0.8978,0.8864,0.8602,0.806,0.7389,0.6544,0.6058,0.5715,1.3656,1.3929,1.4406,1.5956,1.582,1.621,0.0,0.0,1.9316,2.0977,2.1387,2.1611,2.2129,2.2256,2.2418,2.2901,2.2858,2.2658,2.2388,2.222,2.2008,2.1731,2.1696,2.1851,2.2245,2.262,2.3023,2.3462,2.3877,2.4156,2.4202,2.4202,2.4202,2.4202,2.4202,2.4183,2.4137,2.4137,2.3859,2.3361,2.3361,2.3151,2.2757,2.2382,2.2217,2.219,2.1842,2.1177,2.0294,2.0068,1.8926,1.7279,1.7185,1.6676,1.5967,1.5825,1.6393,1.6998,1.6109,1.5784,1.5784,1.5784,1.5784,1.5784,1.5784,1.5784,1.5771,1.5744,1.5591,1.5391,1.5357,1.4937,1.4522,1.4522,1.4302,1.4088,1.4088,1.4088,1.4088,1.4088,1.4062,1.3941,1.3606,1.3313,1.2966,1.2392,1.2305,1.2291,1.2258,1.2067,1.1744,1.1375,1.1149,1.0875,1.062,1.0287,1.0057,0.999,0.9773,0.9619,0.9586,0.9586,0.9586,0.9586,0.9586,0.9263,0.8608,0.8346,0.7568,0.6314,0.6079,0.5607,1.5723,1.6025,1.6318,0.0,1.8125,1.8838,2.0478,2.0625,2.0771,2.1992,2.2246,2.2383,2.2803,2.2838,2.28,0.0,2.275,2.2618,2.2087,2.2043,2.2008,2.1731,2.1696,2.1943,2.2584,2.2803,2.3169,2.3849,2.411,2.4202,2.4202,2.4202,2.4202,2.4202,2.4202,2.4202,2.4202,2.4202,2.395,2.3499,2.3499,2.3288,2.2857,2.2093,2.1263,2.0462,1.9548,1.8934,1.8511,1.7909,1.7171,1.644,1.644,1.6157,1.5784,1.5784,1.6062,1.6393,1.5967,1.5784,1.5784,1.5784,1.5784,1.5784,1.5784,1.5784,1.5784,1.5784,1.5745,1.5651,1.5651,1.5337,1.499,1.4816,1.4549,1.4295,1.4122,1.4088,1.4088,1.4088,1.4088,1.3988,1.3653,1.35,1.326,1.269,1.2412,1.2305,1.2305,1.2198,1.1944,1.1442,1.1169,1.0875,1.062,1.0479,1.0301,1.0097,1.0,0.986,0.9722,0.9715,0.9715,0.9715,0.9715,0.9301,0.8469,0.8169,0.743,0.6278,0.5933,0.5555,1.63,1.685,0.0,1.8378,1.9487,2.0525,2.1005,2.1357,2.1756,2.2487,2.2461,2.2428,2.2911,2.2784,2.2555,2.2432,2.2625,2.2529,2.1883,2.2011,2.2039,2.175,2.1696,2.197,2.2666,2.273,2.3068,2.3923,2.3987,2.4082,2.4192,2.4202,2.4202,2.4202,2.4202,2.4202,2.4202,2.4202,2.4055,2.3712,2.3712,2.3556,2.3233,2.2035,2.0849,1.9716,1.8385,1.7693,1.7363,1.6569,1.6062,1.5784,1.5784,1.5784,1.5784,1.5784,1.5784,1.5784,1.5784,1.5784,1.5784,1.5784,1.5784,1.5784,1.5784,1.5784,1.5784,1.5784,1.5784,1.5784,1.5784,1.5611,1.5344,1.5182,1.4796,1.4462,1.4255,1.4142,1.4088,1.4088,1.4088,1.4015,1.376,1.366,1.3453,1.3099,1.271,1.2392,1.2311,1.2231,1.2017,1.1597,1.1216,1.0909,1.0727,1.064,1.0499,1.0254,1.0241,1.0147,0.9963,0.9956,0.9956,0.9956,0.9741,0.9257,0.8438,0.8064,0.7352,0.6253,0.6025,0.5737,1.4423,0.0,1.7415,1.8373,1.9244,2.0264,2.2045,2.2461,2.2598,2.2984,2.2359,2.1952,2.2662,2.2024,2.1561,2.2299,2.2558,2.2544,2.2152,2.2206,2.2171,2.1733,2.1696,2.1851,0.0,2.23,2.2638,2.3453,2.3508,2.3739,2.4183,2.4202,2.4202,2.4202,2.4202,2.4202,2.4202,2.4202,2.4192,2.4183,2.4183,2.4174,2.4097,2.2591,2.1673,2.1162,1.9724,1.8632,1.7772,1.741,1.6676,1.5784,1.5784,1.5784,1.5784,1.5784,1.5784,1.5784,1.5784,1.5784,1.5784,1.5784,1.5784,1.5784,1.5784,1.5784,1.5784,1.5784,1.5784,1.5784,1.5784,1.5611,1.5391,1.5384,1.4937,1.4516,1.4509,1.4282,1.4088,1.4088,1.4088,1.4082,1.4075,1.3834,1.3593,1.358,1.3113,1.2663,1.2338,1.2058,1.1913,1.1893,1.1336,1.0989,1.0982,1.0754,1.0586,1.0579,1.0579,1.0573,1.0566,1.0566,1.0566,1.0566,0.9882,0.9175,0.8501,0.8275,0.7502,0.6207,0.6535,0.6272,1.5683,0.0,1.8542,1.8784,1.9749,2.0714,2.0925,2.0988,2.0953,2.0915,2.0668,2.0641,2.1219,2.0639,2.0457,2.1808,2.1833,2.1715,2.184,2.2318,2.2446,2.1769,2.1925,0.0,0.0,0.0,0.0,2.3435,2.3499,2.3721,2.4183,2.4202,2.4202,2.4202,2.4202,2.4202,2.4202,2.4202,2.4202,2.4202,2.3438,2.3088,2.302,2.0813,1.9791,1.9552,1.7979,1.7085,1.678,1.6422,1.6109,1.5784,1.5784,1.5784,1.5784,1.5784,1.5784,1.5784,1.5784,1.5784,1.5784,1.5784,1.5784,1.5784,1.5784,1.5784,1.5784,1.5784,1.5784,1.5784,1.5784,1.5711,1.5631,1.5444,1.5244,1.4997,1.4603,1.4442,1.4315,1.4122,1.4088,1.4088,1.4088,1.4008,1.3808,1.3373,1.3045,1.2677,1.2338,1.2218,1.2084,1.1926,1.1732,1.1496,1.1296,1.1015,1.0881,1.0881,1.07,1.0593,1.0593,1.0593,1.0364,0.9875,1.0104,0.9428,0.7847,0.8199,0.7647,0.6214,0.6313,0.6181,1.5907,1.7154,1.8374,1.8664,1.9519,2.0261,2.0226,2.0039,1.9834,1.9547,1.9107,1.8947,1.938,1.8795,1.8749,2.0155,2.039,2.0482,2.0754,2.179,2.2283,2.164,2.2106,2.24,0.0,0.0,0.0,2.3242,2.3416,2.3721,2.4183,2.4202,2.4202,2.4202,2.4202,2.4202,2.4202,2.4202,2.4202,2.4202,2.3029,2.2476,2.2417,2.0038,1.8921,1.884,1.7289,1.6636,1.6603,1.6152,1.5985,1.5979,1.5872,1.5784,1.5784,1.5784,1.5784,1.5784,1.5784,1.5784,1.5784,1.5784,1.5784,1.5784,1.5784,1.5784,1.5784,1.5784,1.5784,1.5784,1.5784,1.5784,1.5785,1.5591,1.5471,1.5291,1.4917,1.475,1.4589,1.4295,1.4242,1.4208,1.4108,1.4088,1.3921,1.344,1.3106,1.2804,1.2351,1.2305,1.2231,1.2044,1.1966,1.1826,1.1597,1.1316,1.1149,1.1149,1.0875,1.0747,1.0747,1.0646,1.0263,0.9518,0.9716,0.9069,0.7489,0.7679,0.7228,0.628,0.6214,0.6115,1.515,1.5974,1.7184,1.8039,1.8541,1.901,1.9852,1.963,1.9154,1.8836,1.7756,1.6949,0.0,0.0,1.6456,1.765,1.8393,1.8915,1.9162,2.075,2.1727,0.0,0.0,0.0,0.0,0.0,0.0,2.294,0.0,2.3721,2.4183,2.4202,2.4202,2.4202,2.4202,2.4202,2.4202,2.4202,2.4202,2.4202,2.2987,2.2476,2.2426,2.0158,1.9176,1.9109,1.7784,1.7199,1.7159,1.6583,1.6286,1.6295,1.5965,1.5798,1.5784,1.5784,1.5784,1.5784,1.5784,1.5784,1.5784,1.5784,1.5784,1.5784,1.5784,1.5784,1.5784,1.5784,1.5784,1.5784,1.5784,1.5784,1.5784,1.5784,1.5618,1.5418,1.5398,1.5177,1.4941,1.4583,1.4509,1.4409,1.4135,1.4088,1.3988,1.3646,1.3367,1.3013,1.2405,1.2311,1.2305,1.2305,1.2058,1.1926,1.1926,1.1617,1.1415,1.1415,1.1176,1.1015,1.1015,1.0787,1.0308,0.956,0.891,0.8225,0.7508,0.6832,0.6473,0.6399,0.6304,0.6238,1.5961,1.7127,1.8167,1.7658,1.818,1.8632,1.788,1.7423,1.6942,1.611,1.54,1.4913,0.0,0.0,0.0,1.675,1.7635,0.0,1.9099,2.0335,0.0,2.1272,0.0,2.2333,2.2837,2.3169,0.0,0.0,2.3435,2.3721,2.4183,2.4202,2.4202,2.4202,2.4202,2.4202,2.4202,2.4202,2.4202,2.4202,2.2215,2.1709,2.2426,1.9383,1.8454,1.9109,1.7784,1.7199,1.7172,1.6747,1.6466,1.6315,1.6186,1.6025,1.5784,1.5784,1.5784,1.5784,1.5784,1.5784,1.5784,1.5784,1.5784,1.5784,1.5784,1.5784,1.5784,1.5784,1.5784,1.5784,1.5784,1.5784,1.5784,1.5784,1.5772,1.5658,1.5444,1.5337,1.5137,1.4616,1.4349,1.4175,1.4102,1.4088,1.3988,1.3646,1.354,1.3313,1.275,1.2438,1.2305,1.2305,1.2238,1.2191,1.2191,1.1924,1.1757,1.1757,1.1476,1.1316,1.1316,1.1243,1.086,1.0171,0.9911,0.9101,0.7788,0.7672,0.7263,0.6627,0.6753,0.6779,1.6321,1.7219,1.7885,1.7286,1.7409,1.7447,1.6632,1.5944,1.5173,1.4164,1.3574,0.0,1.2732,1.297,0.0,0.0,0.0,0.0,1.7967,1.9192,2.0054,0.0,2.1014,0.0,2.2008,2.2229,2.235,0.0,2.3256,2.3708,2.3479,2.3438,2.3238,2.2769,2.2769,2.2769,2.2769,2.2769,2.2769,2.2719,2.0979,2.0467,2.0979,1.867,1.7943,1.8447,0.0,1.7393,1.7367,1.7072,1.6727,1.6446,1.6375,1.6092,1.5784,1.5784,1.5784,1.5784,1.5784,1.5784,1.5784,1.5784,1.5784,1.5784,1.5784,1.5784,1.5784,1.5784,1.5784,1.5784,1.5784,1.5784,1.5784,1.5784,1.5784,1.5738,1.5618,1.5585,1.5411,1.483,1.4476,1.4235,1.4108,1.4088,1.4035,1.3861,1.3686,1.348,1.3186,1.2766,1.2445,1.2318,1.2305,1.2305,1.2305,1.2151,1.2094,1.2094,1.1784,1.1623,1.1623,1.1496,1.1073,1.0412,0.9968,0.9205,0.8043,0.7707,0.7324,0.6845,0.6943,0.6988,1.6433,1.6718,1.6932,1.6932,1.655,1.6094,1.5836,1.4933,1.3888,1.2785,0.0,1.1579,1.0801,1.1395,1.2267,1.2985,0.0,1.537,1.6533,1.7808,1.8724,1.9139,2.0055,2.0731,2.0885,2.0885,2.0885,2.0885,2.2669,2.3338,2.2325,2.2274,2.1861,2.0936,2.0885,2.0885,2.0885,2.0885,2.0885,2.0885,1.9746,1.9176,1.9176,1.8101,1.7582,1.7582,1.7582,0.0,1.7562,1.7367,1.7085,1.6734,1.644,1.6152,1.5838,1.5798,1.5784,1.5784,1.5784,1.5784,1.5784,1.5784,1.5784,1.5784,1.5784,1.5784,1.5784,1.5784,1.5784,1.5784,1.5784,1.5784,1.5784,1.5784,1.5784,1.5784,1.5784,1.5751,1.5625,1.5117,1.475,1.4442,1.4188,1.4115,1.4088,1.4088,1.3868,1.3646,1.3606,1.312,1.2683,1.2385,1.2325,1.2305,1.2305,1.2305,1.2305,1.2305,1.2064,1.196,1.196,1.1677,1.1259,1.0662,0.9751,0.8998,0.8371,0.7512,0.7049,0.7024,0.7049,0.7057,1.6467,1.664,1.6683,1.6683,1.645,1.5993,1.5156,1.4233,0.0,0.0,1.1259,1.0532,0.9973,1.0605,1.1471,1.2318,1.3661,1.509,1.6506,0.0,1.7911,0.0,0.0,0.0,0.0,0.0,0.0,0.0,0.0,2.1395,2.1191,2.1191,2.1089,2.0885,2.0885,2.0885,2.0885,2.0885,2.0885,2.0885,1.9746,1.9176,1.9176,1.8101,1.7582,1.7582,1.7582,0.0,1.7582,1.7528,1.7387,1.7092,1.6747,1.6453,1.6166,1.5919,1.5784,1.5784,1.5784,1.5784,1.5784,1.5784,1.5784,1.5784,1.5784,1.5784,1.5784,1.5784,1.5784,1.5784,1.5784,1.5784,1.5784,1.5784,1.5784,1.5784,1.5784,1.5645,1.5444,1.5344,1.489,1.4502,1.4456,1.4249,1.4088,1.4088,1.4041,1.3921,1.3633,1.312,1.2764,1.2717,1.2489,1.2305,1.2305,1.2305,1.2305,1.2305,1.2258,1.2225,1.2225,1.2178,1.2078,1.1969,1.0518,0.9643,0.9352,0.8062,0.7317,0.7183,0.7326,0.7429,1.6324,1.64,1.64,1.64,1.5844,1.5108,1.4279,0.0,0.0,0.0,1.0302,0.9818,0.9411,1.0123,0.0,1.173,1.2832,0.0,0.0,0.0,0.0,0.0,0.0,0.0,0.0,0.0,0.0,0.0,0.0,1.9443,2.0004,1.9495,1.9183,1.9183,1.9183,1.9183,1.9183,1.9183,1.9183,1.9183,1.8617,1.8356,1.8356,1.7838,1.7582,1.7582,1.7582,0.0,1.7582,1.7582,1.7467,1.7172,1.682,1.6526,1.6239,1.5939,1.5784,1.5784,1.5784,1.5784,1.5784,1.5784,1.5784,1.5784,1.5784,1.5784,1.5784,1.5784,1.5784,1.5784,1.5784,1.5784,1.5784,1.5784,1.5784,1.5784,1.5784,1.5718,1.5578,1.5424,1.505,1.4703,1.4543,1.4282,1.4088,1.4088,1.4088,1.4035,1.3895,1.3487,1.3153,1.3006,1.2757,1.2569,1.2569,1.2392,1.2305,1.2305,1.2305,1.2305,1.2305,1.2305,1.2305,1.2305,1.072,0.9841,0.977,0.823,0.7439,0.7362,0.7443,0.7484,1.6041,1.6123,1.6123,1.6123,1.5313,1.4294,1.3455,1.2377,0.0,0.0,0.9494,0.9268,0.9056,0.0,1.0508,0.0,1.2078,1.3313,0.0,0.0,0.0,0.0,0.0,0.0,0.0,0.0,0.0,0.0,0.0,0.0,1.8819,1.8048,1.7582,1.7582,1.7582,1.7582,1.7582,1.7582,1.7582,1.7582,1.7582,1.7582,1.7582,1.7582,1.7582,1.7582,1.7582,0.0,0.0,1.7582,1.7501,1.7259,1.6847,1.6567,1.6319,1.5959,1.5784,1.5784,1.5784,1.5784,1.5784,1.5784,1.5784,1.5784,1.5784,1.5784,1.5784,1.5784,1.5784,1.5784,1.5784,1.5784,1.5784,1.5784,1.5784,1.5784,1.5784,1.5784,1.5758,1.5531,1.5257,1.4963,1.4669,1.4376,1.4162,1.4095,1.4088,1.4088,1.4088,1.3881,1.3647,1.342,1.3105,1.2857,1.279,1.2569,1.2371,1.2305,1.2305,1.2231,1.204,1.2224,1.2231,1.204,1.0801,1.0158,1.0158,0.8542,0.7748,0.7748,0.7599,0.7484,1.5752,1.5832,1.5832,1.5832,1.517,1.4215,1.3118,0.0,0.0,0.9649,0.9133,0.8891,0.8989,0.9187,0.9697,1.0848,0.0,1.2966,0.0,0.0,0.0,0.0,0.0,0.0,0.0,0.0,0.0,0.0,0.0,0.0,1.774,1.7635,1.7582,1.7582,1.7582,1.7582,1.7582,1.7582,1.7582,1.7582,1.7582,1.7582,1.7582,1.7582,1.7582,1.7582,1.7582,0.0,0.0,1.7582,1.7569,1.7488,1.6927,1.6687,1.6593,1.5991,1.5784,1.5784,1.5784,1.5784,1.5784,1.5784,1.5784,1.5784,1.5784,1.5784,1.5784,1.5784,1.5784,1.5784,1.5784,1.5784,1.5784,1.5784,1.5784,1.5784,1.5784,1.5784,1.5771,1.5792,1.5558,1.5264,1.5022,1.4676,1.4389,1.4128,1.4088,1.4088,1.4088,1.4062,1.4035,1.4008,1.35,1.3053,1.2811,1.2757,1.263,1.2318,1.2305,1.1966,1.1223,1.1892,1.1966,1.1223,1.1074,1.0999,1.0999,0.9377,0.8589,0.8585,0.7825,0.7484,1.5398,1.5698,1.5738,1.5611,1.491,1.3901,1.2538,0.0,1.0432,0.9274,0.8911,0.8804,0.8857,0.9045,0.9484,1.0334,1.0755,1.1543,1.314,0.0,0.0,0.0,0.0,0.0,0.0,0.0,0.0,0.0,0.0,0.0,1.7582,1.7582,1.7582,1.7582,1.7582,1.7582,1.7582,1.7582,1.7582,1.7582,1.7582,1.7582,1.7582,1.7582,1.7582,1.7582,1.7582,0.0,0.0,1.7582,1.7582,1.7542,1.7186,1.6867,1.6653,1.6246,1.5985,1.5784,1.5784,1.5784,1.5784,1.5784,1.5784,1.5784,1.5784,1.5784,1.5784,1.5784,1.5784,1.5784,1.5784,1.5784,1.5784,1.5784,1.5784,1.5784,1.5784,1.5784,1.5784,1.5784,1.5591,1.5357,1.5244,1.483,1.4482,1.4362,1.4202,1.4088,1.4088,1.4088,1.4088,1.4088,1.3714,1.338,1.3293,1.2991,1.273,1.2616,1.2405,1.1929,1.1149,1.1409,1.1217,1.0389,1.0389,1.0389,1.0389,0.975,0.9188,0.8699,0.836,0.7978,1.4897,1.5351,1.5524,1.5317,1.4543,1.348,0.0,1.1156,1.0151,0.9031,0.8804,0.8804,0.8804,0.8944,0.9244,0.975,1.008,1.0728,1.2111,1.2973,0.0,0.0,0.0,0.0,0.0,0.0,0.0,0.0,0.0,0.0,0.0,1.7582,1.7582,1.7582,1.7582,1.7582,1.7582,1.7582,1.7582,1.7582,1.7582,1.7582,1.7582,1.7582,1.7582,1.7582,0.0,0.0,0.0,1.7582,1.7582,1.7555,1.7313,1.7018,1.6667,1.638,1.6086,1.5784,1.5784,1.5784,1.5784,1.5784,1.5784,1.5784,1.5784,1.5784,1.5784,1.5784,1.5784,1.5784,1.5784,1.5784,1.5784,1.5784,1.5784,1.5784,1.5784,1.5784,1.5784,1.5784,1.5665,1.5498,1.5411,1.505,1.4723,1.4543,1.4349,1.4182,1.4095,1.4088,1.4088,1.4088,1.3901,1.37,1.3613,1.3253,1.3012,1.2924,1.2685,1.2226,1.1385,1.1539,1.1107,1.0035,1.0154,1.0121,0.9895,0.9895,0.9599,0.9036,0.8813,0.8284,1.4289,1.4743,1.5015,1.5015,1.4088,1.2979,1.2114,1.0962,0.9844,0.8991,0.8804,0.8804,0.8804,0.8811,0.8884,0.9171,0.9987,1.0995,1.2138,1.3327,0.0,0.0,0.0,0.0,0.0,0.0,0.0,0.0,0.0,0.0,0.0,1.7582,1.7582,1.7582,1.7582,1.7582,1.7582,1.7582,1.7582,1.7582,1.7582,1.7582,1.7582,1.7582,1.7582,0.0,0.0,0.0,0.0,1.7582,1.7582,1.7555,1.7313,1.7018,1.6667,1.638,1.6086,1.5784,1.5784,1.5784,1.5784,1.5784,1.5784,1.5784,1.5784,1.5784,1.5784,1.5784,1.5784,1.5784,1.5784,1.5784,1.5784,1.5784,1.5784,1.5784,1.5784,1.5784,1.5784,1.5784,1.5778,1.5732,1.5444,1.5391,1.519,1.4609,1.4516,1.4409,1.4122,1.4088,1.4088,1.4088,1.4082,1.3968,1.3626,1.3593,1.3467,1.3227,1.32,1.283,1.2016,1.2505,1.1998,1.0317,1.0816,1.0694,0.9895,0.9895,0.9895,0.9857,0.9074,0.8284,1.2579,1.3112,1.3393,1.2991,1.2603,1.2011,1.0922,1.0381,0.9837,0.8991,0.8804,0.8804,0.8804,0.8804,0.9098,0.9993,1.0405,0.0,0.0,0.0,0.0,0.0,0.0,0.0,0.0,0.0,0.0,0.0,0.0,0.0,0.0,1.7582,1.7582,1.7582,1.7582,1.7582,1.7582,1.7582,1.7582,1.7582,1.7582,1.7582,1.7582,1.7582,0.0,0.0,0.0,0.0,0.0,1.7582,1.7582,1.7569,1.7534,1.7141,1.6693,1.66,1.6253,1.5784,1.5784,1.5784,1.5784,1.5784,1.5784,1.5784,1.5784,1.5784,1.5784,1.5784,1.5784,1.5784,1.5784,1.5784,1.5784,1.5784,1.5784,1.5784,1.5784,1.5784,1.5784,1.5784,1.5784,1.5751,1.5705,1.5524,1.5337,1.515,1.4776,1.4489,1.4396,1.4208,1.4088,1.4088,1.4088,1.4048,1.3955,1.372,1.356,1.3473,1.332,1.2843,1.2022,1.218,1.1447,0.9727,1.0256,1.0137,0.9286,0.971,0.9895,0.9857,0.8504,0.8055,0.0,1.1919,1.2194,1.1797,1.1571,1.1189,1.0307,0.9917,0.957,0.8945,0.8804,0.8804,0.8804,0.8804,0.9085,0.9927,1.0247,0.0,0.0,0.0,0.0,0.0,0.0,0.0,0.0,0.0,0.0,0.0,0.0,0.0,0.0,1.7582,1.7582,1.7582,1.7582,1.7582,1.7582,1.7582,1.7582,1.7582,1.7582,1.7582,1.7582,1.7582,0.0,0.0,0.0,0.0,0.0,1.7582,1.7582,1.7582,1.7582,1.7288,1.686,1.6747,1.6406,1.5979,1.5824,1.5784,1.5784,1.5784,1.5784,1.5784,1.5784,1.5784,1.5784,1.5784,1.5784,1.5784,1.5784,1.5784,1.5784,1.5784,1.5784,1.5784,1.5784,1.5784,1.5784,1.5784,1.5784,1.5784,1.5784,1.5678,1.5524,1.5418,1.5084,1.477,1.4549,1.4362,1.4208,1.4095,1.4088,1.4088,1.4088,1.3915,1.3808,1.3808,1.3641,1.3331,1.2829,1.2681,1.1966,1.0571,1.0458,0.9984,0.9154,0.9497,0.9622,0.9622,0.8617,0.8426,0.0,1.1049,1.1229,1.1209,1.0848,1.0419,1.0094,0.959,0.0,0.8871,0.8804,0.8818,0.8864,0.8851,0.8931,0.9304,0.9844,0.0,0.0,0.0,0.0,0.0,0.0,0.0,0.0,0.0,0.0,0.0,0.0,0.0,0.0,1.7582,1.7582,1.7582,1.7582,1.7582,1.7582,1.7582,1.7582,1.7582,1.7582,1.7582,1.7582,1.7582,0.0,0.0,0.0,0.0,0.0,1.7582,1.7582,1.7582,1.7582,1.746,1.7166,1.684,1.654,1.6281,1.5952,1.5798,1.5784,1.5784,1.5784,1.5784,1.5784,1.5784,1.5784,1.5784,1.5784,1.5784,1.5784,1.5784,1.5784,1.5784,1.5784,1.5784,1.5784,1.5784,1.5784,1.5784,1.5784,1.5784,1.5784,1.5784,1.5738,1.5471,1.5411,1.5197,1.4649,1.4563,1.4442,1.4148,1.4122,1.4108,1.4088,1.4088,1.4088,1.4088,1.4088,1.4088,1.4088,1.378,1.3251,1.2448,1.1246,1.0217,0.9385,0.9272,0.9195,0.9195,0.9155,0.9232,0.9245,0.0,0.967,0.9451,0.9457,0.9444,0.0,0.9151,0.9131,0.8871,0.8804,0.8945,0.9392,0.9292,0.9497,1.0689,0.0,0.0,0.0,0.0,0.0,0.0,0.0,0.0,0.0,0.0,0.0,0.0,0.0,0.0,0.0,1.7582,1.7582,1.7582,1.7582,1.7582,1.7582,1.7582,1.7582,1.7582,1.7582,1.7582,1.7582,1.7582,0.0,0.0,0.0,0.0,1.7582,1.7582,1.7582,1.7582,1.7582,1.746,1.7192,1.7125,1.677,1.6308,1.6192,1.6019,1.5784,1.5784,1.5784,1.5784,1.5784,1.5784,1.5784,1.5784,1.5784,1.5784,1.5784,1.5784,1.5784,1.5784,1.5784,1.5784,1.5784,1.5784,1.5784,1.5784,1.5784,1.5784,1.5784,1.5784,1.5758,1.5738,1.5538,1.5344,1.5204,1.4997,1.4743,1.4449,1.4422,1.4329,1.4108,1.4088,1.4088,1.4088,1.4088,1.4088,1.4088,1.4021,1.3555,1.265,1.15,1.0414,0.9385,0.9349,0.9313,0.9195,0.8582,0.8623,0.8804,0.9118,0.9406,0.9245,0.9325,0.9406,0.9245,0.9125,0.8971,0.8838,0.8804,0.8945,0.9399,0.9459,0.0,0.0,1.159,0.0,0.0,0.0,0.0,0.0,0.0,0.0,0.0,0.0,0.0,0.0,0.0,0.0,0.0,1.7582,1.7582,1.7582,1.7582,1.7582,1.7582,1.7582,1.7582,1.7582,1.7582,1.7582,1.7582,1.7582,1.7582,0.0,0.0,0.0,1.7582,1.7582,1.7582,1.7582,1.7582,1.7482,1.7367,1.7048,1.6747,1.6433,1.6166,1.5965,1.5784,1.5784,1.5784,1.5784,1.5784,1.5784,1.5784,1.5784,1.5784,1.5784,1.5784,1.5784,1.5784,1.5784,1.5784,1.5784,1.5784,1.5784,1.5784,1.5784,1.5784,1.5784,1.5784,1.5784,1.5784,1.5784,1.5698,1.5545,1.5418,1.5257,1.505,1.4756,1.4723,1.4656,1.4546,1.4362,1.4229,1.4095,1.4088,1.4088,1.4088,1.4088,1.3659,1.2705,1.2089,1.1273,1.0267,1.0267,1.0225,1.0146,0.9269,0.9354,0.8918,0.9372,0.9802,0.9599,0.9653,0.9726,0.9633,0.0,0.0,0.0,0.0,0.0,0.0,0.9713,0.0,0.0,0.0,0.0,0.0,0.0,0.0,0.0,0.0,0.0,0.0,0.0,0.0,0.0,0.0,0.0,0.0,1.7582,1.7582,1.7582,1.7582,1.7582,1.7582,1.7582,1.7582,1.7582,1.7582,1.7582,1.7582,1.7582,1.7582,0.0,0.0,0.0,1.7582,1.7582,1.7582,1.7582,1.7582,1.7582,1.7515,1.6974,1.6747,1.662,1.6032,1.5784,1.5784,1.5784,1.5784,1.5784,1.5784,1.5784,1.5784,1.5784,1.5784,1.5784,1.5784,1.5784,1.5784,1.5784,1.5784,1.5784,1.5784,1.5784,1.5784,1.5784,1.5784,1.5784,1.5784,1.5784,1.5784,1.5784,1.5784,1.5738,1.5491,1.5464,1.5351,1.5109,1.5075,1.5055,1.5015,1.4736,1.4482,1.4235,1.4008,1.387,1.387,1.387,1.3568,1.2924,1.2918,1.2443,1.1499,1.1499,1.1456,1.1284,1.0463,1.0463,0.9412,1.001,1.0218,0.9192,0.9499,0.992,0.9391,0.9432,0.0,0.0,0.0,0.0,0.0,1.0762,1.1196,0.0,0.0,0.0,0.0,0.0,0.0,0.0,0.0,0.0,0.0,0.0,0.0,0.0,0.0,0.0,0.0,1.7582,1.7582,1.7582,1.7582,1.7582,1.7582,1.7582,1.7582,1.7582,1.7582,1.7582,1.7582,1.7582,1.7582,1.7582,0.0,1.7582,1.7582,1.7582,1.7582,1.7582,1.7582,1.7582,1.7542,1.7259,1.6921,1.662,1.6032,1.5784,1.5784,1.5784,1.5784,1.5784,1.5784,1.5784,1.5784,1.5784,1.5784,1.5784,1.5784,1.5784,1.5784,1.5784,1.5784,1.5784,1.5784,1.5784,1.5784,1.5784,1.5784,1.5784,1.5784,1.5784,1.5784,1.5784,1.5784,1.5764,1.5718,1.5718,1.5651,1.5357,1.5331,1.5231,1.5028,1.4968,1.4921,1.4874,1.3659,1.2918,1.2918,1.2918,1.3222,1.387,1.387,1.3434,1.2491,1.2491,1.21,1.1284,1.1149,1.0722,0.9138,0.9639,0.999,0.9419,1.006,1.0763,1.0688,1.0521,1.0394,0.0,0.0,0.0,0.0,0.0,1.2138,1.3487,0.0,0.0,0.0,0.0,0.0,0.0,0.0,0.0,0.0,0.0,0.0,0.0,0.0,0.0,0.0,0.0,1.7582,1.7582,1.7582,1.7582,1.7582,1.7582,1.7582,1.7582,1.7582,1.7582,1.7582,1.7582,1.7582,1.7582,0.0,1.7582,1.7582,1.7582,1.7582,1.7582,1.7582,1.7582,1.7528,1.7074,1.6627,1.6192,1.5878,1.5784,1.5784,1.5784,1.5784,1.5784,1.5784,1.5784,1.5784,1.5784,1.5784,1.5784,1.5784,1.5784,1.5784,1.5784,1.5784,1.5784,1.5784,1.5784,1.5784,1.5784,1.5784,1.5784,1.5784,1.5784,1.5784,1.5784,1.5784,1.5784,1.5784,1.5784,1.5731,1.5645,1.5631,1.5578,1.5444,1.5291,1.513,1.5022,1.4156,1.3441,1.2959,1.3254,1.3434,1.3355,1.3828,1.387,1.3483,1.3483,1.3222,1.279,1.2272,1.1843,0.8978,0.9339,0.9749,0.9883,1.0508,1.1249,1.1792,1.147,1.1176,0.0,0.0,0.0,0.0,1.2378,0.0,0.0,0.0,0.0,0.0,0.0,0.0,0.0,0.0,0.0,0.0,0.0,0.0,0.0,0.0,0.0,0.0,0.0,1.7582,1.7582,1.7582,1.7582,1.7582,1.7582,1.7582,1.7582,1.7582,1.7582,1.7582,1.7582,1.7582,1.7582,1.7582,1.7582,1.7582,1.7582,1.7582,1.7575,1.7508,1.7395,1.7221,1.6767,1.6273,1.5784,1.5784,1.5784,1.5784,1.5784,1.5784,1.5784,1.5784,1.5784,1.5784,1.5784,1.5784,1.5784,1.5784,1.5784,1.5784,1.5784,1.5784,1.5784,1.5784,1.5784,1.5784,1.5784,1.5784,1.5784,1.5784,1.5784,1.5784,1.5784,1.5784,1.5784,1.5784,1.5784,1.5784,1.5784,1.5784,1.5784,1.5784,1.5625,1.5404,1.5177,1.4601,1.3919,1.3141,1.3601,1.3589,1.3052,1.3737,1.4088,1.4088,1.4088,1.4088,1.4088,1.3349,1.2918,0.9472,0.9682,0.9842,1.0392,1.0354,1.0501,1.1651,1.1623,1.1675,1.2819,0.0,0.0,0.0,1.3781,0.0,0.0,0.0,0.0,0.0,0.0,0.0,0.0,0.0,0.0,0.0,0.0,0.0,0.0,0.0,0.0,0.0,0.0,0.0,1.7582,1.7582,1.7582,1.7582,1.7582,1.7582,1.7582,1.7582,1.7582,1.7582,1.7582,1.7582,1.7582,1.7582,1.7582,1.7582,1.7582,1.7582,1.7555,1.734,1.6898,1.6415,1.6319,1.6099,1.5784,1.5784,1.5784,1.5784,1.5784,1.5784,1.5784,1.5784,1.5784,1.5784,1.5784,1.5784,1.5784,1.5784,1.5784,1.5784,1.5784,1.5784,1.5784,1.5784,1.5784,1.5784,1.5784,1.5784,1.5784,1.5784,1.5784,1.5784,1.5784,1.5784,1.5784,1.5784,1.5784,1.5784,1.5784,1.5784,1.5784,1.5784,1.5764,1.5744,1.5718,1.4446,1.3491,1.3103,1.3167,1.3436,1.4004,1.4088,1.4088,1.4088,1.4088,1.4088,1.4088,1.4046,1.3525,0.9078,0.9539,1.0047,1.0486,1.0748,1.1189,1.2221,1.2619,1.3,1.3854,1.4028,0.0,0.0,0.0,0.0,0.0,0.0,0.0,0.0,0.0,0.0,0.0,0.0,0.0,0.0,0.0,0.0,0.0,0.0,0.0,0.0,0.0,0.0,1.7041,1.7041,1.7128,1.7367,1.7367,1.7454,1.7582,1.7582,1.7582,1.7582,1.7582,1.7582,1.7582,1.7582,1.7534,1.7367,1.7367,1.7208,1.7027,1.6914,1.6627,1.6321,1.6321,1.6086,1.5784,1.5784,1.5784,1.5784,1.5784,1.5784,1.5784,1.5784,1.5784,1.5784,1.5784,1.5784,1.5784,1.5784,1.5784,1.5784,1.5784,1.5784,1.5784,1.5784,1.5784,1.5784,1.5784,1.5784,1.5784,1.5784,1.5784,1.5784,1.5784,1.5784,1.5784,1.5784,1.5784,1.5784,1.5784,1.5784,1.5784,1.5784,1.5927,1.5981,1.5832,1.512,1.4389,1.3683,1.3856,1.3804,1.3479,1.3877,1.4088,1.4088,1.4088,1.4088,1.4088,1.4088,1.3913,0.8918,0.9452,1.0074,1.0499,1.1069,1.1824,1.2806,1.3347,1.3846,1.4712,1.479,1.4716,1.4897,0.0,0.0,0.0,0.0,0.0,0.0,0.0,0.0,0.0,0.0,0.0,0.0,0.0,0.0,0.0,0.0,0.0,0.0,0.0,0.0,0.0,1.6707,1.68,1.7058,1.7058,1.7108,1.7308,1.7308,1.7402,1.7582,1.7582,1.7528,1.7442,1.7442,1.7333,1.7058,1.7058,1.6834,1.6567,1.6567,1.6393,1.6132,1.6132,1.6005,1.5784,1.5784,1.5784,1.5784,1.5784,1.5784,1.5784,1.5784,1.5784,1.5784,1.5784,1.5784,1.5784,1.5784,1.5784,1.5784,1.5784,1.5784,1.5784,1.5784,1.5784,1.5784,1.5784,1.5784,1.5784,1.5784,1.5784,1.5784,1.5784,1.5784,1.5784,1.5784,1.5879,1.5974,1.6015,1.6069,1.6069,1.6069,1.6211,1.6265,1.6062,1.5879,1.5392,1.4499,1.4733,1.4566,1.3793,1.4226,1.4428,1.435,1.4249,1.4166,1.4088,1.4088,1.4088,0.9211,0.9459,0.9869,1.0459,0.0,0.0,1.3347,1.3613,1.4026,1.5485,1.5371,1.515,1.5718,0.0,0.0,0.0,0.0,0.0,0.0,0.0,0.0,0.0,0.0,0.0,0.0,0.0,0.0,0.0,0.0,0.0,0.0,0.0,0.0,0.0,1.67,1.67,1.67,1.67,1.67,1.6707,1.6707,1.7007,1.7575,1.7575,1.7467,1.7199,1.7199,1.7025,1.67,1.67,1.6526,1.6321,1.6321,1.6086,1.5784,1.5784,1.5784,1.5784,1.5784,1.5784,1.5784,1.5784,1.5784,1.5784,1.5784,1.5784,1.5784,1.5784,1.5784,1.5784,1.5784,1.5784,1.5784,1.5784,1.5784,1.5784,1.5784,1.5784,1.5784,1.5784,1.5784,1.5784,1.5784,1.5784,1.5784,1.5784,1.5784,1.5784,1.5832,1.6028,1.6312,1.6581,1.6588,1.6588,1.6588,1.6588,1.6588,1.6588,1.6588,1.6261,1.5457,1.5642,1.5629,1.5301,1.5226,1.5116,1.4893,1.4591,1.4286,1.4088,1.4088,1.4088,0.9211,0.9877,1.0748,1.137,0.0,0.0,0.0,1.4569,0.0,0.0,1.5691,1.5565,1.5531,0.0,0.0,0.0,0.0,0.0,0.0,0.0,0.0,0.0,0.0,0.0,0.0,0.0,0.0,0.0,0.0,0.0,0.0,0.0,0.0,0.0,1.6086,1.6186,1.64,1.64,1.6506,1.6707,1.6707,1.6794,1.6967,1.6967,1.6921,1.684,1.684,1.6673,1.6386,1.6179,1.6039,1.5965,1.5965,1.5905,1.5784,1.5784,1.5784,1.5784,1.5784,1.5784,1.5784,1.5784,1.5784,1.5784,1.5784,1.5784,1.5784,1.5784,1.5784,1.5784,1.5784,1.5784,1.5784,1.5784,1.5784,1.5784,1.5784,1.5784,1.5784,1.5784,1.5784,1.5879,1.6028,1.5927,1.5879,1.6028,1.6076,1.617,1.6353,1.6447,1.6494,1.6581,1.6588,1.6588,1.6588,1.6784,1.6784,1.6636,1.6784,1.6601,1.6001,1.6021,1.5954,1.5636,1.5603,1.542,1.5116,1.5019,1.4738,1.4321,1.4321,1.4243,0.9666,1.0448,0.0,1.2198,1.3253,1.4302,1.5124,0.0,0.0,0.0,1.5738,1.5638,1.5578,0.0,0.0,0.0,0.0,0.0,0.0,0.0,0.0,0.0,0.0,0.0,0.0,0.0,0.0,0.0,0.0,0.0,0.0,0.0,0.0,0.0,1.5879,1.5912,1.6092,1.6092,1.6186,1.6359,1.6458,1.6513,1.652,1.665,1.6647,1.6526,1.6413,1.6259,1.6086,1.5905,1.5784,1.5784,1.5784,1.5784,1.5784,1.5784,1.5784,1.5784,1.5784,1.5784,1.5784,1.5784,1.5784,1.5784,1.5784,1.5784,1.5784,1.5784,1.5784,1.5784,1.5784,1.5784,1.5784,1.5784,1.5784,1.5832,1.5933,1.5974,1.5974,1.6116,1.6109,1.6163,1.6312,1.6211,1.6163,1.6312,1.6359,1.6454,1.673,1.6784,1.6777,1.6864,1.6864,1.6864,1.6864,1.7012,1.7059,1.6911,1.7012,1.6925,1.6555,1.6514,1.6462,1.6283,1.6196,1.6024,1.5706,1.5579,1.5287,1.4926,1.4766,1.4625,1.0352,1.1002,1.1728,1.2986,1.3774,0.0,1.5538,1.5784,1.5784,1.5784,0.0,1.5518,0.0,0.0,0.0,0.0,0.0,0.0,0.0,0.0,0.0,0.0,0.0,0.0,0.0,0.0,0.0,0.0,0.0,0.0,0.0,0.0,0.0,1.6224,1.5974,1.5832,1.5832,1.5832,1.5825,0.0,1.6123,1.6224,1.6238,1.6533,1.6529,1.6268,1.5945,1.5784,1.5784,1.5784,1.5784,1.5784,1.5784,1.5784,1.5784,1.5784,1.5784,1.5784,1.5784,1.5784,1.5784,1.5784,1.5784,1.5784,1.5784,1.5784,1.5784,1.5784,1.5784,1.5784,1.5784,1.5832,1.5832,1.5832,1.5832,1.5927,1.617,1.6224,1.6312,1.6541,1.6588,1.6636,1.6636,1.6636,1.6636,1.6636,1.6636,1.673,1.6979,1.7026,1.7113,1.7279,1.7279,1.7279,1.7279,1.7279,1.7279,1.7279,1.7279,1.7239,1.7026,1.7026,1.7026,1.6979,1.6963,1.6795,1.6545,1.6213,1.5967,1.5702,1.5421,1.5144,1.0352,1.1189,0.0,0.0,1.4683,1.5518,1.5724,1.5784,1.5784,1.5784,1.5731,0.0,0.0,0.0,0.0,0.0,0.0,0.0,0.0,0.0,0.0,0.0,0.0,0.0,0.0,0.0,0.0,0.0,0.0,0.0,0.0,0.0,0.0,1.6224,1.6123,1.6123,1.6123,1.6123,1.6218,0.0,1.6494,1.6494,1.6501,1.6579,1.6464,1.6218,1.5906,1.5784,1.5784,1.5784,1.5784,1.5784,1.5784,1.5784,1.5784,1.5784,1.5784,1.5784,1.5784,1.5784,1.5784,1.5784,1.5784,1.5784,1.5784,1.5784,1.5784,1.5784,1.5784,1.5784,1.5784,1.5974,1.6123,1.6123,1.6123,1.617,1.6447,1.6494,1.6541,1.6588,1.6588,1.6683,1.6878,1.6737,1.6683,1.6878,1.6925,1.6972,1.7192,1.7239,1.7239,1.7279,1.7279,1.7279,1.7279,1.7279,1.7279,1.7279,1.7279,1.7279,1.7239,1.7239,1.7153,1.6979,1.7134,1.706,1.6812,1.6739,1.6443,1.5938,1.5867,1.5572,1.0445,0.0,0.0,1.4104,0.0,1.5784,1.5784,1.5784,1.5784,1.5784,0.0,0.0,0.0,0.0,0.0,0.0,0.0,0.0,0.0,0.0,0.0,0.0,0.0,0.0,0.0,0.0,0.0,0.0,0.0,0.0,0.0,1.6972,1.6885,1.6602,1.6454,1.64,1.64,1.64,1.6447,1.6588,1.673,1.6824,1.6911,1.6676,1.6541,1.6359,1.6123,1.5981,1.5974,1.5832,1.5784,1.5784,1.5784,1.5784,1.5784,1.5784,1.5784,1.5784,1.5784,1.5784,1.5784,1.5784,1.5784,1.5784,1.5784,1.5784,1.5784,1.5784,1.5879,1.5981,1.5981,1.617,1.6407,1.6548,1.6501,1.6454,1.673,1.6784,1.6824,1.6911,1.6958,1.6958,1.7106,1.7005,1.6958,1.7106,1.7153,1.72,1.7286,1.7279,1.7279,1.7279,1.7279,1.7279,1.7279,1.7279,1.7279,1.7279,1.7279,1.7279,1.7279,1.7279,1.7239,1.7153,1.7239,1.7245,1.7077,1.7077,1.695,1.6601,1.6501,1.6208,1.0267,0.0,1.2536,1.4519,1.5364,0.0,1.5771,1.5784,1.5784,0.0,0.0,0.0,0.0,0.0,0.0,0.0,0.0,0.0,0.0,0.0,0.0,0.0,0.0,0.0,0.0,0.0,0.0,0.0,0.0,0.0,1.7286,1.716,1.7026,1.6979,1.6777,1.6683,1.6683,1.6683,1.6683,1.6723,1.6972,1.716,1.7286,1.6911,1.6676,1.6636,1.6407,1.6272,1.6265,1.5974,1.5879,1.5879,1.5832,1.5784,1.5784,1.5784,1.5784,1.5784,1.5784,1.5784,1.5784,1.5784,1.5784,1.5832,1.5879,1.5832,1.5825,1.5927,1.6069,1.6224,1.6265,1.6447,1.673,1.6932,1.6878,1.677,1.7019,1.7073,1.7113,1.7286,1.7279,1.7279,1.7279,1.7279,1.7279,1.7279,1.7279,1.7279,1.7279,1.7279,1.7279,1.7279,1.7279,1.7279,1.7279,1.7279,1.7279,1.7279,1.7279,1.7279,1.7279,1.7279,1.7279,1.7279,1.7279,1.7279,1.7279,1.7279,1.7279,1.7271,1.7062,1.6817,0.9244,0.0,1.3045,0.0,1.5211,1.5518,0.0,0.0,1.5784,0.0,0.0,0.0,0.0,0.0,0.0,0.0,0.0,0.0,0.0,0.0,0.0,0.0,0.0,0.0,0.0,0.0,0.0,0.0,0.0,0.0,1.7279,1.7286,1.72,1.7026,1.6979,1.6932,1.6932,1.6932,1.7019,1.7192,1.7239,1.7286,1.7279,1.7239,1.7099,1.6932,1.6636,1.6541,1.6541,1.6265,1.617,1.6123,1.5879,1.5784,1.5784,1.5784,1.5784,1.5784,1.5784,1.5784,1.5784,1.5784,1.5784,1.5832,1.6076,1.5974,1.592,1.6346,1.6359,1.6265,1.6494,1.6737,1.6979,1.6979,1.7106,1.7239,1.7239,1.7239,1.7286,1.7279,1.7279,1.7279,1.7279,1.7279,1.7279,1.7279,1.7279,1.7279,1.7279,1.7279,1.7279,1.7279,1.7279,1.7279,1.7279,1.7279,1.7279,1.7279,1.7279,1.7279,1.7279,1.7279,1.7279,1.7279,1.7279,1.7279,1.7279,1.7279,1.7279,1.7279,1.7235,1.7121,0.9593,1.1249,1.2851,0.0,1.4861,1.5231,1.5518,0.0,0.0,0.0,0.0,0.0,0.0,0.0,0.0,0.0,0.0,0.0,0.0,0.0,0.0,0.0,0.0,0.0,0.0,0.0,0.0,0.0,0.0,1.7279,1.7279,1.7279,1.7239,1.7153,1.7153,1.7153,1.7153,1.7153,1.7192,1.7279,1.7279,1.7279,1.7279,1.7279,1.7239,1.7153,1.6925,1.6831,1.6784,1.6548,1.6407,1.64,1.6305,1.6251,1.6204,1.6076,1.6028,1.5981,1.5832,1.5784,1.5825,1.5981,1.6028,1.6069,1.6359,1.6353,1.6298,1.6534,1.6643,1.6697,1.6784,1.7019,1.7153,1.7153,1.7239,1.7279,1.7279,1.7279,1.7279,1.7279,1.7279,1.7279,1.7279,1.7279,1.7279,1.7279,1.7279,1.7279,1.7279,1.7279,1.7279,1.7279,1.7279,1.7279,1.7279,1.7279,1.7279,1.7279,1.7279,1.7279,1.7279,1.7279,1.7279,1.7279,1.7279,1.7279,1.7279,1.7279,1.7279,1.7279,1.7279,1.7252,0.0,0.0,1.1864,1.328,1.4082,1.4636,0.0,0.0,0.0,0.0,0.0,0.0,0.0,0.0,0.0,0.0,0.0,0.0,0.0,0.0,0.0,0.0,0.0,0.0,0.0,0.0,0.0,0.0,0.0,1.7279,1.7279,1.7279,1.7279,1.7279,1.7279,1.7279,1.7279,1.7279,1.7279,1.7279,1.7279,1.7279,1.7279,1.7279,1.7279,1.7286,1.716,1.7066,1.7066,1.6831,1.6683,1.6683,1.6636,1.6588,1.6588,1.6359,1.6312,1.6265,1.6069,1.6015,1.6021,1.6218,1.6312,1.6359,1.6636,1.6636,1.6629,1.6723,1.6878,1.7026,1.7066,1.72,1.7279,1.7279,1.7279,1.7279,1.7279,1.7279,1.7279,1.7279,1.7279,1.7279,1.7279,1.7279,1.7279,1.7279,1.7279,1.7279,1.7279,1.7279,1.7279,1.7279,1.7279,1.7279,1.7279,1.7279,1.7279,1.7279,1.7279,1.7279,1.7279,1.7279,1.7279,1.7279,1.7279,1.7279,1.7279,1.7279,1.7279,1.7279,1.7279,1.7279,0.0,0.9324,0.0,1.1897,1.2852,0.0,0.0,0.0,0.0,0.0,0.0,0.0,0.0,0.0,0.0,0.0,0.0,0.0,0.0,0.0,0.0,0.0,0.0,0.0,0.0,0.0,0.0,0.0,0.0,1.7279,1.7279,1.7279,1.7279,1.7279,1.7279,1.7279,1.7279,1.7279,1.7279,1.7279,1.7279,1.7279,1.7279,1.7279,1.7279,1.7279,1.7286,1.7279,1.7286,1.7066,1.6979,1.6932,1.6683,1.6588,1.6588,1.6588,1.6588,1.6588,1.6581,1.6541,1.6541,1.6581,1.6588,1.6636,1.6885,1.6784,1.6676,1.7145,1.7153,1.7019,1.7239,1.7286,1.7279,1.7279,1.7279,1.7279,1.7279,1.7279,1.7279,1.7279,1.7279,1.7279,1.7279,1.7279,1.7279,1.7279,1.7279,1.7279,1.7279,1.7279,1.7279,1.7279,1.7279,1.7279,1.7279,1.7279,1.7279,1.7279,1.7279,1.7279,1.7279,1.7279,1.7279,1.7279,1.7279,1.7279,1.7279,1.7279,1.7279,1.7279,1.7279,1.7279,0.0,0.0,0.0,1.0941,1.1911,1.2759,0.0,0.0,0.0,0.0,0.0,0.0,0.0,0.0,0.0,0.0,0.0,0.0,0.0,0.0,0.0,0.0,0.0,0.0,0.0,0.0,0.0,0.0,0.0,0.0,1.7279,1.7279,1.7279,1.7279,1.7279,1.7279,1.7279,1.7279,1.7279,1.7279,1.7279,1.7279,1.7279,1.7279,1.7279,1.7279,1.7279,1.7279,1.7279,1.7239,1.72,1.7192,1.7099,1.7052,1.7052,1.6918,1.6878,1.6831,1.6636,1.6588,1.6636,1.6784,1.6878,1.6878,1.7106,1.7145,1.7091,1.7232,1.7239,1.7192,1.7279,1.7279,1.7279,1.7279,1.7279,1.7279,1.7279,1.7279,1.7279,1.7279,1.7279,1.7279,1.7279,1.7279,1.7279,1.7279,1.7279,1.7279,1.7279,1.7279,1.7279,1.7279,1.7279,1.7279,1.7279,1.7279,1.7279,1.7279,1.7279,1.7279,1.7279,1.7279,1.7279,1.7279,1.7279,1.7279,1.7279,1.7279,1.7279,1.7279,1.7279,1.7279,0.804,0.0,0.0,0.0,0.0,1.1657,0.0,0.0,0.0,0.0,0.0,0.0,0.0,0.0,0.0,0.0,0.0,0.0,0.0,0.0,0.0,0.0,0.0,0.0,0.0,0.0,0.0,0.0,0.0,0.0,1.7279,1.7279,1.7279,1.7279,1.7279,1.7279,1.7279,1.7279,1.7279,1.7279,1.7279,1.7279,1.7279,1.7279,1.7279,1.7279,1.7279,1.7279,1.7279,1.7279,1.7279,1.7279,1.7279,1.7279,1.7279,1.7153,1.7113,1.7066,1.6911,1.6817,1.6864,1.7066,1.7113,1.7113,1.7239,1.7279,1.7279,1.7279,1.7279,1.7279,1.7279,1.7279,1.7279,1.7279,1.7279,1.7279,1.7279,1.7279,1.7279,1.7279,1.7279,1.7279,1.7279,1.7279,1.7279,1.7279,1.7279,1.7279,1.7279,1.7279,1.7279,1.7279,1.7279,1.7279,1.7279,1.7279,1.7279,1.7279,1.7279,1.7279,1.7279,1.7279,1.7279,1.7279,1.7279,1.7279,1.7279,1.7279,1.7279,1.7279,1.7279,1.7279,0.0,0.0,0.0,0.0,0.0,0.0,0.0,0.0,0.0,0.0,0.0,0.0,0.0,0.0,0.0,0.0,0.0,0.0,0.0,0.0,0.0,0.0,0.0,0.0,0.0,0.0,0.0,0.0,0.0,1.7279,1.7279,1.7279,1.7279,1.7279,1.7279,1.7279,1.7279,1.7279,1.7279,1.7279,1.7279,1.7279,1.7279,1.7279,1.7279,1.7279,1.7279,1.7279,1.7279,1.7279,1.7279,1.7279,1.7279,1.7279,1.7279,1.7279,1.7279,1.7279,1.7279,1.7279,1.7279,1.7279,1.7279,1.7279,1.7279,1.7279,1.7279,1.7279,1.7279,1.7279,1.7279,1.7279,1.7279,1.7279,1.7279,1.7279,1.7279,1.7279,1.7279,1.7279,1.7279,1.7279,1.7279,1.7279,1.7279,1.7279,1.7279,1.7279,1.7279,1.7279,1.7279,1.7279,1.7279,1.7279,1.7279,1.7279,1.7279,1.7279,1.7279,1.7279,1.7279,1.7279,1.7279,1.7279,1.7279,1.7279,1.7279,1.7279,1.7279,1.7279,1.7279,1.7279,0.7997,0.0,0.0,0.0,0.0,0.0,0.0,0.0,0.0,0.0,0.0,0.0,0.0,0.0,0.0,0.0,0.0,0.0,0.0,0.0,0.0,0.0,0.0,0.0,0.0,0.0,0.0,0.0,1.7279,1.7279,1.7279,1.7279,1.7279,1.7279,1.7279,1.7279,1.7279,1.7279,1.7279,1.7279,1.7279,1.7279,1.7279,1.7279,1.7279,1.7279,1.7279,1.7279,1.7279,1.7279,1.7279,1.7279,1.7279,1.7279,1.7279,1.7279,1.7279,1.7279,1.7279,1.7279,1.7279,1.7279,1.7279,1.7279,1.7279,1.7279,1.7279,1.7279,1.7279,1.7279,1.7279,1.7279,1.7279,1.7279,1.7279,1.7279,1.7279,1.7279,1.7279,1.7279,1.7279,1.7279,1.7279,1.7279,1.7279,1.7279,1.7279,1.7279,1.7279,1.7279,1.7279,1.7279,1.7279,1.7279,1.7279,1.7279,1.7279,1.7279,1.7279,1.7279,1.7279,1.7279,1.7279,1.7279,1.7279,1.7279,1.7279,1.7279,1.7279,1.7279,1.7279,1.7279,0.0,0.0,0.0,0.0,0.0,0.0,0.0,1.0431,0.0,0.0,0.0,0.0,0.0,0.0,0.0,0.0,0.0,0.0,0.0,0.0,0.0,0.0,0.0,0.0,0.0,0.0,0.0,1.7279,1.7279,1.7279,1.7279,1.7279,1.7279,1.7279,1.7279,1.7279,1.7279,1.7279,1.7279,1.7279,1.7279,1.7279,1.7279,1.7279,1.7279,1.7279,1.7279,1.7279,1.7279,1.7279,1.7279,1.7279,1.7279,1.7279,1.7279,1.7279,1.7279,1.7279,1.7279,1.7279,1.7279,1.7279,1.7279,1.7279,1.7279,1.7279,1.7279,1.7279,1.7279,1.7279,1.7279,1.7279,1.7279,1.7279,1.7279,1.7279,1.7279,1.7279,1.7279,1.7279,1.7279,1.7279,1.7279,1.7279,1.7279,1.7279,1.7279,1.7279,1.7279,1.7279,1.7279,1.7279,1.7279,1.7279,1.7279,1.7279,1.7279,1.7279,1.7279,1.7279,1.7279,1.7279,1.7279,1.7279,1.7279,1.7279,1.7279,1.7279,1.7279,1.7279,1.7279,1.7279,0.0,0.0,0.0,0.0,0.0,0.0,1.0457,1.0297,0.0,0.0,0.0,0.0,0.0,0.0,0.0,0.0,0.0,0.0,0.0,0.0,0.0,0.0,0.0,0.0,0.0,1.7274,1.7289,1.7279,1.7279,1.7279,1.7279,1.7279,1.7279,1.7279,1.7279,1.7279,1.7279,1.7279,1.7279,1.7279,1.7279,1.7279,1.7279,1.7279,1.7279,1.7279,1.7279,1.7279,1.7279,1.7279,1.7279,1.7279,1.7279,1.7279,1.7279,1.7279,1.7279,1.7279,1.7279,1.7279,1.7279,1.7279,1.7279,1.7279,1.7279,1.7279,1.7279,1.7279,1.7279,1.7279,1.7279,1.7279,1.7279,1.7279,1.7279,1.7279,1.7279,1.7279,1.7279,1.7279,1.7279,1.7279,1.7279,1.7279,1.7279,1.7279,1.7279,1.7279,1.7279,1.7279,1.7279,1.7279,1.7279,1.7279,1.7279,1.7279,1.7279,1.7279,1.7279,1.7279,1.7279,1.7279,1.7279,1.7279,1.7279,1.7279,1.7279,1.7279,1.7279,1.7279,1.7279,1.7279,1.1164,0.0,0.0,0.0,0.0,0.0,0.9771,1.0144,0.0,0.0,0.0,0.0,0.0,0.0,0.0,0.0,0.0,0.0,0.0,0.0,0.0,0.0,0.0,0.0,0.0,1.6991,1.7055,1.7264,1.7279,1.7279,1.7279,1.7279,1.7279,1.7279,1.7279,1.7279,1.7279,1.7279,1.7279,1.7279,1.7279,1.7279,1.7279,1.7279,1.7279,1.7279,1.7279,1.7279,1.7279,1.7279,1.7279,1.7279,1.7279,1.7279,1.7279,1.7279,1.7279,1.7279,1.7279,1.7279,1.7279,1.7279,1.7279,1.7279,1.7279,1.7279,1.7279,1.7279,1.7279,1.7279,1.7279,1.7279,1.7279,1.7279,1.7279,1.7279,1.7279,1.7279,1.7279,1.7279,1.7279,1.7279,1.7279,1.7279,1.7279,1.7279,1.7279,1.7279,1.7279,1.7279,1.7279,1.7279,1.7279,1.7279,1.7279,1.7279,1.7279,1.7279,1.7279,1.7279,1.7279,1.7279,1.7279,1.7279,1.7279,1.7279,1.7279,1.7279,1.7279,1.7279,1.7279,1.7279,1.2677,0.0,0.0,1.1471,0.0,0.0,0.0,0.0,1.0186,0.0,0.0,0.0,0.0,0.0,0.0,0.0,0.0,0.0,0.0,0.0,0.0,0.0,0.0,0.0,0.0,1.6573,1.6727,1.6835,1.6996,1.7091,1.7091,1.7245,1.7279,1.7279,1.7279,1.7279,1.7279,1.7279,1.7279,1.7279,1.7279,1.7279,1.7326,1.7831,1.8056,1.8056,1.8056,1.8056,1.8017,1.7512,1.7279,1.7279,1.7279,1.7279,1.7279,1.7279,1.7279,1.7279,1.7279,1.7279,1.7279,1.7279,1.7279,1.7279,1.7279,1.7279,1.7279,1.7279,1.7279,1.7279,1.7279,1.7279,1.7279,1.7279,1.7279,1.7279,1.7279,1.7279,1.7279,1.7279,1.7279,1.7279,1.7279,1.7279,1.7279,1.7279,1.7279,1.7279,1.7279,1.7279,1.7279,1.7279,1.7279,1.7279,1.7279,1.7279,1.7279,1.7279,1.7279,1.7279,1.7279,1.7279,1.7279,1.7279,1.7279,1.7279,1.7279,1.7279,1.7279,1.7279,1.7279,1.7279,0.0,0.0,0.0,0.0,0.0,1.1881,0.0,0.0,0.0,1.0566,0.0,0.0,0.0,0.0,0.0,0.0,0.0,0.0,0.0,0.0,0.0,0.0,0.0,0.0,0.0,1.5862,1.6147,1.6389,1.6485,1.6639,1.6888,1.7099,1.7267,1.7279,1.7279,1.7279,1.7279,1.7279,1.7279,1.7279,1.7279,1.7419,1.7598,1.8427,1.888,1.9063,1.9063,1.9063,1.9018,1.8195,1.787,1.7831,1.7466,1.7279,1.7279,1.7279,1.7279,1.7326,1.7512,1.7606,1.7598,1.7785,1.7738,1.7606,1.7606,1.7466,1.7279,1.7279,1.7279,1.7279,1.7279,1.7279,1.7279,1.7279,1.7279,1.7326,1.7552,1.7606,1.7645,1.7831,1.787,1.7738,1.7372,1.7279,1.7279,1.7279,1.7279,1.7279,1.7279,1.7279,1.7279,1.7279,1.7279,1.7279,1.7279,1.7279,1.7279,1.7279,1.7279,1.7279,1.7279,1.7279,1.7279,1.7279,1.7279,1.7279,1.7279,1.7279,1.7279,1.7279,1.7279,1.7279,0.0,0.0,0.0,0.0,1.4799,0.0,0.0,0.0,1.204,1.106,0.0,0.0,0.0,0.0,0.0,0.0,0.0,0.0,0.0,0.0,0.0,0.0,0.0,0.0,0.0,0.0,1.5193,1.6331,1.5621,1.5657,1.6837,1.6939,1.7033,1.7271,1.7279,1.7279,1.7279,1.7279,1.7279,1.7279,1.7279,1.7785,1.8611,1.8742,1.9239,2.0051,2.0051,2.0051,2.0051,1.9914,1.9869,1.9687,1.7963,1.7279,1.7279,1.7279,1.7279,1.7419,1.8334,1.8611,1.8788,1.9596,1.933,1.8611,1.8611,1.8017,1.7279,1.7279,1.7279,1.7279,1.7279,1.7279,1.7279,1.7279,1.7279,1.7559,1.8427,1.8611,1.888,1.9687,1.9869,1.9322,1.7606,1.7279,1.7279,1.7279,1.7279,1.7279,1.7279,1.7279,1.7279,1.7279,1.7279,1.7279,1.7279,1.7279,1.7279,1.7279,1.7279,1.7279,1.7279,1.7279,1.7279,1.7279,1.7279,1.7279,1.7279,1.7279,1.7279,1.7279,1.7279,1.7279,0.0,0.0,0.0,0.0,0.0,0.0,1.2584,0.0,1.1799,0.0,0.0,0.0,0.0,0.0,0.0,0.0,0.0,0.0,0.0,0.0,0.0,0.0,0.0,0.0,0.0,0.0,0.0,0.0,0.0,1.5065,1.5979,1.6595,1.6961,1.7047,1.723,1.7606,1.8149,1.8149,1.8419,1.8964,1.8964,1.9193,1.9642,2.024,2.0692,2.1051,2.1051,2.1051,2.1006,2.0458,2.0187,2.0096,1.9276,1.865,1.811,1.7512,1.7645,1.8241,1.8657,1.9155,1.9695,2.0051,1.9914,1.9604,1.9604,1.8926,1.8149,1.8149,1.7738,1.7279,1.7279,1.7279,1.7279,1.7279,1.7279,1.7606,1.8557,1.8788,1.9063,2.0005,2.0187,1.9914,1.9101,1.8511,1.7971,1.7372,1.7279,1.7279,1.7279,1.7831,1.8149,1.8149,1.8149,1.8149,1.8149,1.7645,1.7279,1.7279,1.7279,1.7279,1.7279,1.7878,1.7924,1.7326,1.7878,1.7878,1.7279,1.7279,1.7279,1.7279,1.7279,1.7279,1.9401,0.0,0.0,0.0,0.0,0.0,0.0,0.0,0.0,0.0,0.0,0.0,0.0,0.0,0.0,0.0,0.0,0.0,0.0,0.0,0.0,0.0,0.0,0.0,0.0,0.0,0.0,0.0,0.0,0.0,1.5199,1.5957,1.6536,1.6888,1.7077,1.7695,1.8788,1.8788,1.9285,2.0187,2.0187,2.0322,2.0647,2.1373,2.1828,2.2104,2.2104,2.2104,2.2006,2.1284,2.1006,2.0962,2.0692,2.0195,1.9467,1.8465,1.8557,1.9239,1.9513,2.0195,2.1006,2.1006,2.0818,2.0602,2.0602,1.9923,1.9193,1.9193,1.865,1.8102,1.8102,1.7917,1.7692,1.7692,1.7692,1.7963,1.8972,1.9384,1.9877,2.0827,2.1006,2.0917,2.0647,1.9832,1.8834,1.7878,1.7692,1.7692,1.7692,1.8334,1.888,1.9155,1.9193,1.9063,1.8834,1.8149,1.7598,1.7326,1.7559,1.7692,1.7692,1.865,1.8834,1.8102,1.8834,1.8834,1.8102,1.7831,1.7692,1.7692,1.7692,1.7692,0.0,0.0,0.0,1.7517,0.0,0.0,0.0,0.0,1.4984,0.0,0.0,0.0,0.0,0.0,0.0,0.0,0.0,0.0,0.0,0.0,0.0,0.0,0.0,0.0,0.0,0.0,0.0,0.0,0.0,0.0,1.4798,1.4944,1.557,1.6859,1.691,1.7515,1.8788,1.8788,1.9285,2.0187,2.0187,2.0692,2.165,2.1695,2.2192,2.3047,2.3047,2.3047,2.3047,2.3003,2.3003,2.2916,2.2015,2.165,2.1472,2.0458,2.0141,2.0277,2.1284,2.2236,2.3003,2.3003,2.2369,2.165,2.165,2.0962,2.0141,2.0141,2.0141,2.0096,2.0096,1.9422,1.8742,1.8742,1.8742,1.9018,1.996,2.0917,2.1872,2.2828,2.3003,2.2731,2.1828,2.0827,1.9824,1.888,1.8742,1.8742,1.8742,1.8788,1.9155,2.0051,2.0141,1.9786,1.888,1.8788,1.8334,1.7372,1.8195,1.8742,1.8742,1.965,2.0141,2.0096,2.0141,2.0141,2.0096,1.9193,1.8742,1.8742,1.8742,1.8742,0.0,0.0,2.168,1.9072,0.0,0.0,0.0,0.0,0.0,0.0,0.0,0.0,0.0,0.0,0.0,0.0,0.0,0.0,0.0,0.0,0.0,0.0,0.0,0.0,0.0,0.0,0.0,0.0,0.0,0.0,0.0,1.4761,1.552,1.6213,1.6683,1.7811,1.9687,1.9741,2.0512,2.2138,2.2138,2.2325,2.2643,2.2643,2.2775,2.3091,2.3091,2.3091,2.3091,2.3091,2.3091,2.3057,2.2731,2.2643,2.2413,2.0818,2.0638,2.1329,2.228,2.2818,2.3091,2.3091,2.2872,2.2643,2.2643,2.1961,2.1195,2.1195,2.0692,2.0187,2.0187,1.996,1.9741,1.9741,1.9741,2.0014,2.0962,2.1463,2.1971,2.2916,2.3091,2.3003,2.2687,2.2325,2.1552,1.9968,1.9741,1.9741,1.9741,2.0286,2.0827,2.115,2.1195,2.1051,2.0746,2.0104,1.9596,1.9231,1.955,1.9741,1.9741,2.0647,2.0872,2.0232,2.0872,2.0872,2.0187,1.9869,1.9741,1.9741,2.0421,2.0014,2.2148,2.2305,0.0,2.001,1.9092,0.0,1.5967,0.0,0.0,0.0,0.0,0.0,0.0,0.0,0.0,0.0,0.0,0.0,0.0,0.0,0.0,0.0,0.0,0.0,0.0,0.0,1.0485,1.1419,0.0,0.0,0.0,0.0,1.5009,1.5681,1.6698,1.8113,2.0035,2.0532,2.1552,2.3091,2.3091,2.3091,2.3091,2.3091,2.3091,2.3091,2.3091,2.3091,2.3091,2.3091,2.3091,2.3091,2.3091,2.3091,2.296,2.1686,2.1641,2.228,2.2916,2.3091,2.3091,2.3091,2.3091,2.3091,2.3091,2.2687,2.2192,2.2192,2.173,2.123,2.123,2.0962,2.0737,2.0737,2.0737,2.0917,2.1561,2.1961,2.2369,2.296,2.3091,2.3091,2.3091,2.3091,2.2545,2.0962,2.0737,2.0737,2.0737,2.1284,2.1828,2.2148,2.2192,2.2059,2.1739,2.0782,2.0187,2.0187,2.0548,2.0737,2.0737,2.1695,2.1872,2.123,2.1872,2.1872,2.123,2.0953,2.0818,2.0737,2.1141,2.0782]}]]